[[{"header":{"parameterUnit":"m.s-1","parameterCategory":1,"la1":30.6,"la2":28.766,"lo1":-90.7593,"lo2":-88.6598,"dy":0.0162,"dx":0.0183,"nx":116,"ny":114,"refTime":"2024-07-10T06:00:00:Z","depth":0,"parameterNumber":2,"parameterNumberName":"U-component_of_WINDS"},"data":[0.0,0.0,0.0,0.0,0.0,0.0,0.0,0.0,0.0,0.0,0.0,0.0,0.0,0.0,0.0,0.0,0.0,0.0,0.0,0.0,0.0,0.0,0.0,0.0,0.0,0.0,0.0,0.0,0.0,0.0,0.0,0.0,0.0,0.0,0.0,0.0,0.0,0.0,0.0,0.0,0.0,0.0,0.0,0.0,0.0,0.0,0.0,0.0,0.0,0.0,0.0,0.0,0.0,0.0,0.0,0.0,0.0,0.0,0.0,0.0,0.0,0.0,0.0,0.0,0.0,0.0,0.0,0.0,0.0,0.0,0.0,0.0,0.0,0.0,0.0,0.0,0.0,0.0,0.0,0.0,0.0,0.0,0.0,0.0,0.0,0.0,0.0,0.0,0.0,0.0,0.0,0.0,0.0,0.0,0.0,0.0,0.0,0.0,0.0,0.0,0.0,0.0,0.0,0.0,0.0,0.0,0.0,0.0,0.0,0.0,0.0,0.0,0.0,0.0,0.0,0.0,0.0,0.0,0.0,0.0,0.0,0.0,0.0,0.0,0.0,0.0,0.0,0.0,0.0,0.0,0.0,0.0,0.0,0.0,0.0,0.0,0.0,0.0,0.0,0.0,0.0,0.0,0.0,0.0,0.0,0.0,0.0,0.0,0.0,0.0,0.0,0.0,0.0,0.0,0.0,0.0,0.0,0.0,0.0,0.0,0.0,0.0,0.0,0.0,0.0,0.0,0.0,0.0,0.0,0.0,0.0,0.0,0.0,0.0,0.0,0.0,0.0,0.0,0.0,0.0,0.0,0.0,0.0,0.0,0.0,0.0,0.0,0.0,0.0,0.0,0.0,0.0,0.0,0.0,0.0,0.0,0.0,0.0,0.0,0.0,0.0,0.0,0.0,0.0,0.0,0.0,0.0,0.0,0.0,0.0,0.0,0.0,0.0,0.0,0.0,0.0,0.0,0.0,0.0,0.0,0.0,0.0,0.0,0.0,0.0,0.0,0.0,0.0,0.0,0.0,0.0,0.0,0.0,0.0,0.0,0.0,0.0,0.0,0.0,0.0,0.0,0.0,0.0,0.0,0.0,0.0,0.0,0.0,0.0,0.0,0.0,0.0,0.0,0.0,0.0,0.0,0.0,0.0,0.0,0.0,0.0,0.0,0.0,0.0,0.0,0.0,0.0,0.0,0.0,0.0,0.0,0.0,0.0,0.0,0.0,0.0,0.0,0.0,0.0,0.0,0.0,0.0,0.0,0.0,0.0,0.0,0.0,0.0,0.0,0.0,0.0,0.0,0.0,0.0,0.0,0.0,0.0,0.0,0.0,0.0,0.0,0.0,0.0,0.0,0.0,0.0,0.0,0.0,0.0,0.0,0.0,0.0,0.0,0.0,0.0,0.0,0.0,0.0,0.0,0.0,0.0,0.0,0.0,0.0,0.0,0.0,0.0,0.0,0.0,0.0,0.0,0.0,0.0,0.0,0.0,0.0,0.0,0.0,0.0,0.0,0.0,0.0,0.0,0.0,0.0,0.0,0.0,0.0,0.0,0.0,0.0,0.0,0.0,0.0,0.0,0.0,0.0,0.0,0.0,0.0,0.0,0.0,0.0,0.0,0.0,0.0,0.0,0.0,0.0,0.0,0.0,0.0,0.0,0.0,0.0,0.0,0.0,0.0,0.0,0.0,0.0,0.0,0.0,0.0,0.0,0.0,0.0,0.0,0.0,0.0,0.0,0.0,0.0,0.0,0.0,0.0,0.0,0.0,0.0,0.0,0.0,0.0,0.0,0.0,0.0,0.0,0.0,0.0,0.0,0.0,0.0,0.0,0.0,0.0,0.0,0.0,0.0,0.0,0.0,0.0,0.0,0.0,0.0,0.0,0.0,0.0,0.0,0.0,0.0,0.0,0.0,0.0,0.0,0.0,0.0,0.0,0.0,0.0,0.0,0.0,0.0,0.0,0.0,0.0,0.0,0.0,0.0,0.0,0.0,0.0,0.0,0.0,0.0,0.0,0.0,0.0,0.0,0.0,0.0,0.0,0.0,0.0,0.0,0.0,0.0,0.0,0.0,0.0,0.0,0.0,0.0,0.0,0.0,0.0,0.0,0.0,0.0,0.0,0.0,0.0,0.0,0.0,0.0,0.0,0.0,0.0,0.0,0.0,0.0,0.0,0.0,0.0,0.0,0.0,0.0,0.0,0.0,0.0,0.0,0.0,0.0,0.0,0.0,0.0,0.0,0.0,0.0,0.0,0.0,0.0,0.0,0.0,0.0,0.0,0.0,0.0,0.0,0.0,0.0,0.0,0.0,0.0,0.0,0.0,0.0,0.0,0.0,0.0,0.0,0.0,0.0,0.0,0.0,0.0,0.0,0.0,0.0,0.0,0.0,0.0,0.0,0.0,0.0,0.0,0.0,0.0,0.0,0.0,0.0,0.0,0.0,0.0,0.0,0.0,0.0,0.0,0.0,0.0,0.0,0.0,0.0,0.0,0.0,0.0,0.0,0.0,0.0,0.0,0.0,0.0,0.0,0.0,0.0,0.0,0.0,0.0,0.0,0.0,0.0,0.0,0.0,0.0,0.0,0.0,0.0,0.0,0.0,0.0,0.0,0.0,0.0,0.0,0.0,0.0,0.0,0.0,0.0,0.0,0.0,0.0,0.0,0.0,0.0,0.0,0.0,0.0,0.0,0.0,0.0,0.0,0.0,0.0,0.0,0.0,0.0,0.0,0.0,0.0,0.0,0.0,0.0,0.0,0.0,0.0,0.0,0.0,0.0,0.0,0.0,0.0,0.0,0.0,0.0,0.0,0.0,0.0,0.0,0.0,0.0,0.0,0.0,0.0,0.0,0.0,0.0,0.0,0.0,0.0,0.0,0.0,0.0,0.0,0.0,0.0,0.0,0.0,0.0,0.0,0.0,0.0,0.0,0.0,0.0,0.0,0.0,0.0,0.0,0.0,0.0,0.0,0.0,0.0,0.0,0.0,0.0,0.0,0.0,0.0,0.0,0.0,0.0,0.0,0.0,0.0,0.0,0.0,0.0,0.0,0.0,0.0,0.0,0.0,0.0,0.0,0.0,0.0,0.0,0.0,0.0,0.0,0.0,0.0,0.0,0.0,0.0,0.0,0.0,0.0,0.0,0.0,0.0,0.0,0.0,0.0,0.0,0.0,0.0,0.0,0.0,0.0,0.0,0.0,0.0,0.0,0.0,0.0,0.0,0.0,0.0,0.0,0.0,0.0,0.0,0.0,0.0,0.0,0.0,0.0,0.0,0.0,0.0,0.0,0.0,0.0,0.0,0.0,0.0,0.0,0.0,0.0,0.0,0.0,0.0,0.0,0.0,0.0,0.0,0.0,0.0,0.0,0.0,0.0,0.0,0.0,0.0,0.0,0.0,0.0,0.0,0.0,0.0,0.0,0.0,0.0,0.0,0.0,0.0,0.0,0.0,0.0,0.0,0.0,0.0,0.0,0.0,0.0,0.0,0.0,0.0,0.0,0.0,0.0,0.0,0.0,0.0,0.0,0.0,0.0,0.0,0.0,0.0,0.0,0.0,0.0,0.0,0.0,0.0,0.0,0.0,0.0,0.0,0.0,0.0,0.0,0.0,0.0,0.0,0.0,0.0,0.0,0.0,0.0,0.0,0.0,0.0,0.0,0.0,0.0,0.0,0.0,0.0,0.0,0.0,0.0,0.0,0.0,0.0,0.0,0.0,0.0,0.0,0.0,0.0,0.0,0.0,0.0,0.0,0.0,0.0,0.0,0.0,0.0,0.0,0.0,0.0,0.0,0.0,0.0,0.0,0.0,0.0,0.0,0.0,0.0,0.0,0.0,0.0,0.0,0.0,0.0,0.0,0.0,0.0,0.0,0.0,0.0,0.0,0.0,0.0,0.0,0.0,0.0,0.0,0.0,0.0,0.0,0.0,0.0,0.0,0.0,0.0,0.0,0.0,0.0,0.0,0.0,0.0,0.0,0.0,0.0,0.0,0.0,0.0,0.0,0.0,0.0,0.0,0.0,0.0,0.0,0.0,0.0,0.0,0.0,0.0,0.0,0.0,0.0,0.0,0.0,0.0,0.0,0.0,0.0,0.0,0.0,0.0,0.0,0.0,0.0,0.0,0.0,0.0,0.0,0.0,0.0,0.0,0.0,0.0,0.0,0.0,0.0,0.0,0.0,0.0,0.0,0.0,0.0,0.0,0.0,0.0,0.0,0.0,0.0,0.0,0.0,0.0,0.0,0.0,0.0,0.0,0.0,0.0,0.0,0.0,0.0,0.0,0.0,0.0,0.0,0.0,0.0,0.0,0.0,0.0,0.0,0.0,0.0,0.0,0.0,0.0,0.0,0.0,0.0,0.0,0.0,0.0,0.0,0.0,0.0,0.0,0.0,0.0,0.0,0.0,0.0,0.0,0.0,0.0,0.0,0.0,0.0,0.0,0.0,0.0,0.0,0.0,0.0,0.0,0.0,0.0,0.0,0.0,0.0,0.0,0.0,0.0,0.0,0.0,0.0,0.0,0.0,0.0,0.0,0.0,0.0,0.0,0.0,0.0,0.0,0.0,0.0,0.0,0.0,0.0,0.0,0.0,0.0,0.0,0.0,0.0,0.0,0.0,0.0,0.0,0.0,0.0,0.0,0.0,0.0,0.0,0.0,0.0,0.0,0.0,0.0,0.0,0.0,0.0,0.0,0.0,0.0,0.0,0.0,0.0,0.0,0.0,0.0,0.0,0.0,0.0,0.0,0.0,0.0,0.0,0.0,0.0,0.0,0.0,0.0,0.0,0.0,0.0,0.0,0.0,0.0,0.0,0.0,0.0,0.0,0.0,0.0,0.0,0.0,0.0,0.0,0.0,0.0,0.0,0.0,0.0,0.0,0.0,0.0,0.0,0.0,0.0,0.0,0.0,0.0,0.0,0.0,0.0,0.0,0.0,0.0,0.0,0.0,0.0,0.0,0.0,0.0,0.0,0.0,0.0,0.0,0.0,0.0,0.0,0.0,0.0,0.0,0.0,0.0,0.0,0.0,0.0,0.0,0.0,0.0,0.0,0.0,0.0,0.0,0.0,0.0,0.0,0.0,0.0,0.0,0.0,0.0,0.0,0.0,0.0,0.0,0.0,0.0,0.0,0.0,0.0,0.0,0.0,0.0,0.0,0.0,0.0,0.0,0.0,0.0,0.0,0.0,0.0,0.0,0.0,0.0,0.0,0.0,0.0,0.0,0.0,0.0,0.0,0.0,0.0,0.0,0.0,0.0,0.0,0.0,0.0,0.0,0.0,0.0,0.0,0.0,0.0,0.0,0.0,0.0,0.0,0.0,0.0,0.0,0.0,0.0,0.0,0.0,0.0,0.0,0.0,0.0,0.0,0.0,0.0,0.0,0.0,0.0,0.0,0.0,0.0,0.0,0.0,0.0,0.0,0.0,0.0,0.0,0.0,0.0,0.0,0.0,0.0,0.0,0.0,0.0,0.0,0.0,0.0,0.0,0.0,0.0,0.0,0.0,0.0,0.0,0.0,0.0,0.0,0.0,0.0,0.0,0.0,0.0,0.0,0.0,0.0,0.0,0.0,0.0,0.0,0.0,0.0,0.0,0.0,0.0,0.0,0.0,0.0,0.0,0.0,0.0,0.0,0.0,0.0,0.0,0.0,0.0,0.0,0.0,0.0,0.0,0.0,0.0,0.0,0.0,0.0,0.0,0.0,0.0,0.0,0.0,0.0,0.0,0.0,0.0,0.0,0.0,0.0,0.0,0.0,0.0,0.0,0.0,0.0,0.0,0.0,0.0,0.0,0.0,0.0,0.0,0.0,0.0,0.0,0.0,0.0,0.0,0.0,0.0,0.0,0.0,0.0,0.0,0.0,0.0,0.0,0.0,0.0,0.0,0.0,0.0,0.0,0.0,0.0,0.0,0.0,0.0,0.0,0.0,0.0,0.0,0.0,0.0,0.0,0.0,0.0,0.0,0.0,0.0,0.0,0.0,0.0,0.0,0.0,0.0,0.0,0.0,0.0,0.0,0.0,0.0,0.0,0.0,0.0,0.0,0.0,0.0,0.0,0.0,0.0,0.0,0.0,0.0,0.0,0.0,0.0,0.0,0.0,0.0,1.1341,0.0,0.0,0.0,0.0,0.0,0.0,0.0,0.0,0.0,0.0,0.0,0.0,0.0,0.0,0.0,0.0,0.0,0.0,0.0,0.0,0.0,0.0,0.0,0.0,0.3626,0.3769,0.389,0.4031,0.4109,0.4109,0.0,0.0,0.0,0.0,0.0,0.4109,0.4109,0.4228,0.4491,0.4631,0.4976,0.5483,0.5718,0.5857,0.5887,0.0,0.0,0.0,0.0,0.0,0.0,0.0,0.0,0.0,0.0,0.0,0.0,0.0,0.0,0.0,0.0,0.0,0.0,0.0,0.0,0.0,0.0,0.0,0.0,0.0,0.0,0.0,0.0,0.0,0.0,0.0,0.0,0.0,0.0,0.0,0.0,0.0,0.0,0.0,0.0,0.0,0.0,0.0,0.0,0.0,0.0,0.0,0.0,0.0,0.0,0.0,0.0,0.0,0.0,0.0,0.0,0.0,0.0,0.0,0.0,0.0,0.0,0.0,0.0,0.0,0.0,0.0,0.0,0.0,0.0,0.0,1.2771,0.0,0.0,0.0,0.0,0.0,0.0,0.0,0.0,0.0,0.0,0.0,0.0,0.0,0.0,0.0,0.0,0.0,0.0,0.0,0.0,0.0,0.3203,0.3473,0.3506,0.3587,0.3807,0.3828,0.3828,0.3828,0.3828,0.0,0.0,0.0,0.3608,0.3828,0.3869,0.4146,0.4622,0.4815,0.5256,0.5954,0.6171,0.6189,0.0,0.5991,0.0,0.0,0.0,0.0,0.0,0.0,0.0,0.0,0.0,0.0,0.0,0.0,0.0,0.0,0.0,0.0,0.0,0.0,0.0,0.0,0.0,0.0,0.0,0.0,0.0,0.0,0.0,0.0,0.0,0.0,0.0,0.0,0.0,0.0,0.0,0.0,0.0,0.0,0.0,0.0,0.0,0.0,0.0,0.0,0.0,0.0,0.0,0.0,0.0,0.0,0.0,0.0,0.0,0.0,0.0,0.0,0.0,0.0,0.0,0.0,0.0,0.0,0.0,1.2768,1.3272,1.379,1.4617,1.536,1.5949,1.5208,1.5145,1.5547,1.5047,0.0,0.0,0.0,0.0,0.0,0.0,0.0,0.0,0.0,0.0,0.0,0.0,0.0,0.0,0.0,0.0,0.0,0.0,0.0,0.3203,0.3473,0.3506,0.3506,0.3545,0.3545,0.3545,0.3545,0.3545,0.0,0.0,0.3506,0.3527,0.3545,0.379,0.404,0.4357,0.523,0.5825,0.6159,0.0,0.0,0.0,0.6341,0.6283,0.0,0.0,0.0,0.0,0.0,0.0,0.0,0.0,0.0,0.0,0.0,0.0,0.0,0.0,0.0,0.0,0.0,0.0,0.0,0.0,0.0,0.0,0.0,0.0,0.0,0.0,0.0,0.0,0.0,0.0,0.0,0.0,0.0,0.0,0.0,0.0,0.0,0.0,0.0,0.0,0.0,0.0,0.9008,0.9443,0.0,0.0,0.0,0.0,0.0,0.0,0.0,0.0,0.0,0.0,0.0,0.0,0.0,1.1637,1.283,1.3137,1.3677,1.4391,1.5003,1.5533,1.609,1.7267,1.7836,1.7988,1.881,0.0,1.7108,1.703,0.0,0.0,0.0,0.0,0.0,0.0,0.0,0.0,0.0,0.0,0.0,0.0,0.0,0.0,0.0,0.0,0.0,0.0,0.0,0.0,0.0,0.3626,0.3727,0.3727,0.3869,0.389,0.3727,0.0,0.0,0.3506,0.3506,0.3566,0.3727,0.3848,0.4179,0.4748,0.5613,0.6088,0.0,0.0,0.0,0.0,0.703,0.7066,0.0,0.0,0.0,0.0,0.0,0.0,0.0,0.0,0.0,0.0,0.0,0.0,0.0,0.0,0.0,0.0,0.0,0.0,0.0,0.0,0.0,0.0,0.0,0.0,0.0,0.0,0.0,0.0,0.0,0.0,0.0,0.0,0.0,0.0,0.0,0.0,0.0,0.0,0.0,0.0,0.0,0.9227,0.9791,0.9676,0.9838,0.9622,0.0,0.0,0.0,0.0,0.0,0.0,0.0,0.0,0.0,1.2963,1.2698,1.3065,1.4149,1.4853,1.5381,1.5777,1.6608,1.716,1.7455,1.8767,1.937,1.9435,2.0714,2.0959,2.0338,1.9085,1.8012,1.7083,0.0,0.0,0.0,0.0,1.7317,1.783,0.0,0.0,0.0,0.0,0.0,0.0,0.0,0.0,0.0,0.0,0.0,0.0,0.3539,0.3848,0.401,0.401,0.4191,0.0,0.0,0.0,0.379,0.3506,0.3506,0.3626,0.389,0.4195,0.4738,0.5515,0.6232,0.0,0.0,0.0,0.0,0.0,0.0,0.0,0.0,0.0,0.0,0.0,0.0,0.0,0.0,0.0,0.0,0.0,0.0,0.0,0.0,0.0,0.0,0.0,0.0,0.0,0.0,0.0,0.0,0.0,0.0,0.0,0.0,0.0,0.0,0.0,0.0,0.0,0.0,0.0,0.0,0.0,0.0,0.0,0.0,0.0,0.0,0.0,0.0,1.0165,1.0674,1.024,1.0836,1.0807,0.0,0.0,0.0,0.0,0.0,0.0,1.2371,1.2811,1.338,1.404,1.4059,1.4515,1.5503,1.631,1.6823,1.7129,1.7924,1.8437,1.8691,1.9944,2.0589,2.0751,2.198,2.2669,2.2745,2.0823,1.9739,1.9236,1.8801,1.8394,1.8096,1.8737,1.9241,1.9691,0.0,0.0,0.0,0.0,0.0,0.0,0.0,0.0,0.0,0.0,0.0,0.3567,0.3845,0.0,0.4289,0.0,0.0,0.0,0.0,0.0,0.379,0.3506,0.3506,0.3626,0.389,0.5027,0.5932,0.0,0.0,0.0,0.0,0.0,0.0,0.0,0.0,0.0,0.0,0.0,0.0,0.0,0.0,0.0,0.0,0.0,0.0,0.0,0.0,0.0,0.0,0.0,0.0,0.0,0.0,0.0,0.0,0.0,0.0,0.0,0.0,0.0,0.0,0.0,0.0,0.0,0.0,0.0,0.0,0.0,0.0,0.0,0.0,0.0,0.0,0.0,0.0,0.0,0.0,0.0,0.0,1.2056,1.2706,0.0,0.0,0.0,0.0,1.231,1.287,1.3447,1.3961,1.4021,1.4517,1.5552,1.5611,1.6102,1.7179,1.7211,1.778,1.8767,1.8833,1.931,2.023,2.1037,2.1653,2.2051,2.2821,2.3165,2.3079,2.196,2.1472,2.137,2.0657,1.9976,1.9469,2.0074,2.0108,1.9982,0.0,0.0,0.0,0.1804,0.1869,0.1933,0.1933,0.2042,0.2307,0.2786,0.2934,0.3226,0.0,0.413,0.437,0.0,0.0,0.0,0.0,0.0,0.4031,0.3769,0.4053,0.4525,0.5225,0.6216,0.6745,0.0,0.0,0.0,0.0,0.0,0.0,0.0,0.0,0.0,0.0,0.0,0.0,0.0,0.0,0.0,0.0,0.0,0.0,0.0,0.0,0.0,0.0,0.0,0.0,0.0,0.0,0.0,0.0,0.0,0.0,0.0,0.0,0.0,0.0,0.0,0.0,0.0,0.0,0.0,0.0,0.0,0.0,0.0,0.0,0.0,0.0,0.0,0.0,0.0,0.0,0.0,0.0,1.4132,1.4611,0.0,1.3578,1.3888,1.3971,1.3534,1.433,1.4945,1.5103,1.5455,1.5834,1.6214,1.6536,1.675,1.6788,1.8097,1.8783,1.8858,1.9818,2.0536,2.1084,2.1632,2.2073,2.2444,2.2961,2.3314,2.3495,2.3097,2.2819,2.2594,2.2353,2.208,2.1918,2.2113,2.2121,2.2026,0.1804,0.1804,0.0,0.1804,0.1804,0.1804,0.1804,0.1804,0.2022,0.2611,0.2861,0.3238,0.0,0.0,0.0,0.0,0.0,0.0,0.0,0.0,0.415,0.379,0.4379,0.5138,0.5972,0.6813,0.0,0.0,0.0,0.0,0.0,0.0,0.0,0.0,0.0,0.0,0.0,0.0,0.0,0.0,0.0,0.0,1.0182,0.0,0.0,0.0,0.0,0.0,0.0,0.0,0.0,0.0,0.0,0.0,0.0,0.0,0.0,0.0,0.0,0.0,0.0,0.0,0.0,0.0,0.0,0.0,0.0,0.0,0.0,0.0,0.0,0.0,0.0,0.0,0.0,0.0,0.0,0.0,1.5049,1.5134,1.605,1.6263,1.5146,1.536,1.5372,1.4958,1.5754,1.6245,1.6245,1.675,1.7034,1.7034,1.7388,1.7578,1.7558,1.8926,1.9598,1.9553,2.0518,2.1235,2.172,2.211,2.2539,2.299,2.3365,2.3662,2.3867,2.3867,2.3744,2.3522,2.3414,2.3291,2.3198,2.3061,2.2981,2.2857,0.1804,0.1804,0.1804,0.1804,0.1804,0.1804,0.1804,0.1804,0.2022,0.2611,0.3166,0.3698,0.0,0.0,0.0,0.0,0.0,0.0,0.0,0.4309,0.408,0.3593,0.4499,0.536,0.6033,0.0,0.0,0.0,0.0,0.0,0.0,0.0,0.0,0.0,0.0,0.0,0.0,0.0,0.0,0.0,0.0,0.0,1.1892,0.0,0.0,0.0,0.0,0.0,0.0,0.0,0.0,0.0,0.0,0.0,0.0,0.0,0.0,0.0,0.0,0.0,0.0,0.0,0.0,0.0,0.0,0.0,0.0,0.0,0.0,0.0,0.0,0.0,0.0,0.0,0.0,0.0,1.3142,1.4978,1.6107,1.5105,1.7024,1.7853,1.6375,1.6789,1.6995,1.6617,1.7069,1.7347,1.7381,1.786,1.8131,1.8131,1.8171,1.8615,1.957,1.9641,2.0104,2.0991,2.1023,2.1442,2.2144,2.2488,2.3023,2.3735,2.4065,2.4199,2.4199,2.4199,2.4199,2.417,2.3837,2.3513,2.3174,2.2839,2.2563,2.233,0.1804,0.1804,0.1804,0.1804,0.1804,0.1804,0.1804,0.1804,0.2022,0.2611,0.3005,0.0,0.0,0.0,0.0,0.0,0.0,0.0,0.4611,0.441,0.4522,0.4997,0.5515,0.0,0.0,0.0,0.0,0.0,0.0,0.0,0.0,0.0,0.0,0.0,0.0,0.0,0.0,0.0,0.0,0.0,0.0,0.0,1.1966,0.0,0.0,0.0,0.0,0.0,0.0,0.0,0.0,0.0,0.0,0.0,0.0,0.0,0.0,0.0,0.0,0.0,0.0,0.0,0.0,0.0,0.0,0.0,0.0,0.0,0.0,0.0,0.0,0.0,0.0,0.0,1.4164,1.5691,1.5762,1.7226,1.8435,1.8877,1.9295,1.9413,1.9099,1.8964,1.8834,1.8608,1.8482,1.8505,1.8825,1.8972,1.9046,1.9046,1.9409,1.9559,1.9458,2.0522,2.0974,2.0871,2.1799,2.2478,2.2896,2.3232,2.3644,2.4074,2.417,2.4199,2.4199,2.4199,2.4199,2.4199,2.4094,2.3867,2.3544,2.3468,2.323,2.2949,0.1782,0.1804,0.1804,0.1804,0.1804,0.1847,0.1955,0.1869,0.2064,0.2764,0.3108,0.0,0.0,0.0,0.0,0.0,0.0,0.477,0.439,0.4411,0.4837,0.5761,0.0,0.0,0.0,0.0,0.0,0.0,0.0,0.0,0.0,0.0,0.0,0.0,0.0,0.0,0.0,0.0,0.0,0.0,0.0,0.0,1.2589,1.2589,1.1777,1.0616,1.0324,0.9516,0.8512,0.8142,0.0,0.0,0.0,0.0,0.0,0.0,0.0,0.0,0.0,0.0,0.0,0.0,0.0,0.0,0.0,0.0,0.0,0.0,0.0,0.0,0.0,0.0,0.0,0.0,1.5739,1.75,1.8335,1.9145,1.9813,2.0244,2.0511,2.0643,2.0547,2.0108,1.9835,1.9732,1.9508,1.948,1.9725,1.9963,2.0081,2.0081,2.0364,2.0456,2.0327,2.1171,2.1592,2.1587,2.2345,2.2947,2.3414,2.3711,2.3961,2.419,2.4284,2.4275,2.4199,2.4199,2.4199,0.0,0.0,0.0,0.0,0.0,2.3369,2.3189,0.1626,0.1714,0.1738,0.1738,0.1804,0.1935,0.2174,0.202,0.2195,0.3004,0.0,0.0,0.0,0.0,0.0,0.0,0.0,0.0,0.0,0.0,0.0,0.6061,0.0,0.0,0.0,0.0,0.0,0.0,0.0,0.0,0.0,0.0,0.0,0.0,0.0,0.0,0.0,0.0,0.0,0.0,0.0,0.0,1.3413,1.3498,1.2823,1.1772,1.1206,1.0258,0.9231,0.8678,0.0,0.0,0.0,0.0,0.0,0.0,0.0,0.0,0.0,0.0,0.0,0.0,0.0,0.0,0.0,0.0,0.0,0.0,0.0,0.0,0.0,0.0,0.0,0.0,1.7503,1.9548,2.0558,2.0759,2.0673,2.0313,2.1114,2.1538,2.1197,2.066,2.0374,2.044,2.0381,2.0374,2.044,0.0,0.0,0.0,0.0,2.1314,2.1688,2.1688,2.2034,2.2695,2.2754,2.3115,2.3738,2.3977,2.4155,2.4275,2.4453,2.4436,2.4275,2.4275,2.4275,2.4228,2.3919,2.3786,2.3714,2.345,2.3328,2.3314,0.1003,0.125,0.1408,0.1408,0.1803,0.215,0.2193,0.2391,0.2654,0.3046,0.3532,0.0,0.0,0.0,0.0,0.0,0.0,0.0,0.0,0.0,0.0,0.0,0.0,0.0,0.0,0.0,0.0,0.0,0.0,0.0,0.0,0.0,0.0,0.0,0.0,0.0,0.0,0.0,0.0,0.0,0.0,0.0,1.3464,1.4064,1.3651,1.2703,1.2314,1.1466,1.0458,0.9863,0.9048,0.8287,0.8338,0.0,0.0,0.0,0.0,0.0,0.0,0.0,0.0,0.0,0.0,0.0,0.0,0.0,0.0,0.0,0.0,0.0,0.0,0.0,0.0,1.6748,1.882,2.0545,2.1307,2.172,2.1925,2.1868,2.2022,2.2135,2.2057,2.1612,2.1475,2.1861,2.1535,2.1505,2.1882,2.2003,2.2049,2.2049,2.2049,2.2086,2.2172,2.2163,2.2345,2.2721,0.0,0.0,2.3968,2.4435,2.4657,2.4685,2.4731,2.4716,2.4685,2.4685,2.4685,2.467,2.4433,2.4248,2.4113,2.4211,2.4154,2.3996,0.0425,0.0917,0.1298,0.1298,0.1694,0.2108,0.2413,0.2457,0.2695,0.3402,0.3744,0.0,0.0,0.0,0.0,0.0,0.0,0.0,0.0,0.0,0.0,0.0,0.0,0.0,0.0,0.0,0.0,0.0,0.0,0.0,0.0,0.0,0.0,0.0,0.0,0.0,0.0,0.0,0.0,0.0,0.0,0.0,1.4896,1.4828,1.4493,1.3939,1.3098,1.2476,1.1906,1.0902,1.0157,0.9602,0.9027,0.8821,0.8693,0.0,0.0,0.0,0.0,0.0,0.0,0.0,0.0,0.0,0.0,0.0,0.0,0.0,0.0,1.3368,1.4282,0.0,1.6764,1.8684,1.9898,2.092,2.1828,2.2143,2.231,2.231,2.231,2.231,2.231,2.2217,2.2258,2.2465,2.2294,2.2332,2.2721,2.2581,2.25,2.25,2.25,2.2453,2.231,2.231,2.2526,2.2939,2.3325,2.3778,2.433,2.4742,2.4898,2.4803,2.4911,2.4888,2.479,2.4806,2.4804,2.4794,2.4796,2.4613,2.4357,2.4461,2.4375,2.418,0.0,0.0604,0.114,0.1208,0.1582,0.2066,0.2611,0.2522,0.2732,0.3758,0.3954,0.4167,0.4646,0.4927,0.5024,0.0,0.0,0.0,0.0,0.0,0.0,0.0,0.0,0.0,0.0,0.0,0.0,0.0,0.0,0.0,0.0,0.0,0.0,0.0,0.0,0.0,0.0,0.0,0.0,0.0,0.0,0.0,1.6924,1.6079,1.5598,1.5226,1.3976,1.3551,1.337,1.1952,1.1355,1.1009,0.9988,0.9797,0.9805,0.9015,0.9084,0.0,0.0,0.0,0.0,0.0,0.0,0.0,0.0,0.0,1.3719,1.3801,1.4327,1.5205,1.6698,1.7111,1.7996,2.0395,2.0863,2.1273,2.2239,2.2388,2.2415,2.2462,2.2415,2.2415,2.2462,2.2678,2.2797,2.2797,2.2746,2.2814,2.3093,2.2806,2.2617,2.2617,2.2617,2.2596,2.2513,2.2598,2.2998,2.3732,2.4003,2.4508,2.5207,2.5518,2.5492,2.5195,2.5359,2.5244,2.4949,2.5115,2.5087,2.495,2.5101,2.4942,2.4607,2.4566,2.4436,2.4209,0.0,0.0268,0.0601,0.0892,0.1622,0.2283,0.2632,0.2872,0.3214,0.3824,0.4105,0.4366,0.4671,0.4927,0.5163,0.0,0.0,0.0,0.0,0.0,0.0,0.0,0.0,0.0,0.0,0.0,0.0,0.0,0.0,0.0,0.0,0.0,0.0,0.0,0.0,0.0,0.0,0.0,0.0,0.0,0.0,0.0,1.9142,1.8343,1.7362,1.6303,1.5391,1.5018,1.4753,1.3286,1.2083,1.1134,1.0767,1.0432,1.0116,0.9899,0.0,1.0633,1.0743,1.23,1.3915,1.4042,1.4852,1.5832,0.0,0.0,1.6297,1.6655,1.7306,1.8054,1.8838,1.9614,2.0423,2.1327,2.1846,2.2231,2.26,2.266,2.2755,2.3054,2.2831,2.278,2.3078,2.3126,2.3141,2.3141,2.2864,2.2721,2.2738,2.2482,2.2341,2.2341,2.2341,2.2635,2.3266,2.3639,2.4409,2.5596,2.6165,2.6739,2.7367,2.7577,2.7265,2.6584,2.6599,2.6159,2.5484,2.6263,2.6118,2.5418,2.5379,2.5231,2.5007,2.4831,2.4639,2.4436,0.0,0.0224,0.0445,0.0579,0.1202,0.1843,0.2337,0.267,0.3105,0.3803,0.413,0.441,0.4671,0.5069,0.5566,0.6107,0.6266,0.0,0.0,0.0,0.0,0.0,0.0,0.0,0.0,0.0,0.0,0.0,0.0,0.0,0.0,0.0,0.0,0.0,0.0,0.0,0.0,0.0,0.0,0.0,0.0,0.0,1.941,1.9311,1.8953,1.835,1.7052,1.6294,0.0,0.0,1.3502,1.2572,1.1488,1.1249,1.127,1.0775,1.127,0.0,1.3964,1.4831,1.5591,0.0,1.7606,1.8028,1.8243,1.8529,1.877,1.8818,1.9491,2.0223,2.0824,2.1237,2.1699,0.0,2.2698,2.2857,2.2972,2.2996,2.3117,2.3446,2.3369,2.3268,2.3221,2.3189,2.3189,2.3189,2.2889,2.2797,2.2972,2.2704,2.2616,2.2824,2.3284,2.3667,2.3981,2.4594,2.5379,2.6249,2.6608,2.7146,2.7766,2.7962,2.7901,2.7608,2.7569,2.7345,2.704,2.7459,2.7383,2.7008,2.6984,2.69,2.6636,2.5377,2.4747,2.4469,-0.0224,0.0045,0.029,0.029,0.0781,0.1402,0.2007,0.2428,0.2995,0.3792,0.4126,0.4451,0.4868,0.5391,0.5999,0.6803,0.6991,0.6968,0.0,0.0,0.0,0.0,0.0,0.0,0.0,0.0,0.0,0.0,0.0,0.0,0.0,0.0,0.0,0.0,0.0,0.0,0.0,0.0,0.0,0.0,0.0,0.0,1.9805,2.0112,2.0144,1.9783,1.8132,1.7206,0.0,0.0,1.4243,1.3421,1.2224,1.206,1.2297,1.217,1.3146,1.4626,1.6264,1.6848,0.0,1.8724,1.9233,1.9332,1.905,1.9558,2.0074,2.0162,2.0815,2.1578,2.2292,2.2423,2.2597,2.3234,2.3268,2.3221,2.3314,2.3346,2.3468,2.3795,2.3846,2.3744,2.3491,2.3468,2.3468,2.3468,2.3174,2.3069,2.3314,2.3021,2.2947,2.3189,2.3983,2.4528,2.4813,2.5736,2.6559,2.7342,2.7605,2.8025,2.857,2.8531,2.8537,2.8584,2.8533,2.8382,2.8183,2.8466,2.8393,2.8121,2.8111,2.8057,2.7808,2.6262,2.5394,2.4957,-0.0819,-0.0401,0.0022,0.0022,0.0514,0.1115,0.1713,0.2328,0.2989,0.3795,0.4134,0.4611,0.5392,0.5901,0.6477,0.7226,0.7531,0.7663,0.7665,0.6444,0.0,0.0,0.0,0.0,0.0,0.0,0.0,0.0,0.0,0.0,0.0,0.0,0.0,0.0,0.0,0.0,0.0,0.0,0.0,0.0,0.0,0.0,2.0957,2.1035,2.074,2.0046,1.8237,0.0,0.0,0.0,1.3705,1.2934,1.2947,1.2779,0.0,1.4264,1.6222,0.0,0.0,0.0,1.9204,1.8429,1.8826,1.9332,1.905,1.9216,1.9675,2.0513,2.1117,2.1859,2.3033,2.3202,2.3287,2.364,2.3414,2.3314,2.364,2.3683,2.3816,2.4142,2.419,2.417,2.417,2.417,2.417,2.417,2.3867,2.3662,2.3683,2.3369,2.3189,2.3189,2.3983,2.4873,2.5836,2.7039,2.8224,2.9404,2.9883,3.0233,3.0498,2.9854,2.956,2.956,2.956,2.9072,2.8359,2.9209,2.9017,2.8197,2.813,2.8067,2.7952,2.7564,2.6921,2.6196,-0.0905,-0.0555,-0.0201,-0.0022,0.0492,0.0959,0.1181,0.1863,0.2665,0.3529,0.4175,0.0,0.0,0.0,0.0,0.0,0.7024,0.7022,0.6845,0.6466,0.0,0.0,0.0,0.0,0.0,0.0,0.0,0.0,0.0,0.0,0.0,0.0,0.0,0.0,0.0,0.0,0.0,0.0,0.0,0.0,0.0,0.0,2.1639,2.1397,2.1191,2.0753,0.0,0.0,0.0,0.0,1.4471,1.3737,1.358,0.0,0.0,1.5614,0.0,1.7726,1.8427,0.0,1.9235,1.9516,1.9821,2.0193,2.0678,2.1311,2.2,2.2738,2.3319,2.3812,2.422,2.4063,2.3939,2.4192,2.403,2.3896,2.4025,2.4025,2.4065,2.4199,2.4199,0.0,2.4199,2.3996,0.0,2.3867,2.3566,2.3369,2.3369,2.3268,2.3563,2.4293,2.512,2.6123,2.735,2.835,2.9177,2.9832,3.0261,3.0517,3.0595,3.0497,3.0459,3.0459,3.0374,3.0161,2.9916,3.0156,3.0075,2.9794,2.9718,2.9603,2.9436,2.9232,2.8531,2.7604,-0.1517,-0.1016,-0.0534,-0.0357,0.0267,0.0,0.0,0.0,0.0,0.0,0.0,0.0,0.0,0.0,0.0,0.0,0.0,0.6718,0.6626,0.0,0.0,0.0,0.0,0.0,0.0,0.0,0.0,0.0,0.0,0.0,0.0,0.0,0.0,0.0,0.0,0.0,0.0,0.0,0.0,0.0,0.0,0.0,2.1653,2.1468,2.124,0.0,0.0,0.0,0.0,0.0,0.0,0.0,0.0,0.0,0.0,0.0,1.7755,1.8569,1.9489,1.964,1.9661,2.0173,2.0327,2.0594,2.1444,2.2066,2.2761,2.3821,2.427,2.4555,2.4822,2.4616,2.4465,2.4591,2.4495,2.4418,2.4418,2.4418,2.4393,2.4321,2.4616,2.4783,0.0,0.0,0.0,2.3933,2.4216,2.4284,2.3997,2.4249,2.4753,2.5474,2.6352,2.7274,2.8221,2.9148,2.9817,3.0217,3.0482,3.0604,3.0644,3.0768,3.082,3.078,3.0625,3.0561,3.0556,3.0407,3.0343,3.0322,3.0399,3.0335,3.019,3.0128,2.9655,2.8896,-0.2559,-0.1712,-0.095,0.0,0.0,0.0,0.0,0.0,0.0,0.0,0.0,0.0,0.0,0.0,0.0,0.0,0.0,0.0,0.687,0.0,0.0,0.0,0.0,0.7116,0.8332,0.8418,0.0,0.0,0.0,0.0,0.0,0.0,0.0,0.0,0.0,0.0,0.0,0.0,0.0,0.0,0.0,0.0,2.1181,2.1344,0.0,0.0,0.0,0.0,0.0,0.0,0.0,0.0,0.0,0.0,0.0,0.0,0.0,2.0235,1.991,2.0153,2.0456,2.0334,2.0342,2.0585,2.1393,2.1596,2.2113,2.3813,2.401,2.4096,2.4817,0.0,2.4733,2.4752,2.4776,2.4804,2.4804,2.4804,2.4731,0.0,0.0,0.0,0.0,0.0,0.0,2.4448,0.0,2.6273,2.5504,2.6202,2.6633,2.6679,2.762,2.8277,2.8574,2.9549,3.0221,3.0587,3.0598,3.0625,3.0687,3.0679,3.0646,3.0568,3.0364,3.0271,3.025,2.9978,2.9848,2.9821,3.012,3.0209,3.0189,3.0241,3.0235,2.9987,0.0,0.0,0.0,0.0,0.0,0.0,0.0,0.0,0.0,0.0,0.0,0.0,0.0,0.0,0.0,0.0,0.0,0.0,0.0,0.0,0.0,0.0,0.0,0.0,0.0,0.8957,0.0,0.0,0.0,0.0,0.0,0.0,0.0,0.0,0.0,0.0,0.0,0.0,0.0,0.0,0.0,0.0,2.2158,0.0,0.0,0.0,0.0,0.0,0.0,0.0,0.0,0.0,0.0,0.0,1.8602,0.0,0.0,2.0224,2.0176,2.0303,2.0407,2.0322,2.0835,2.1572,2.2427,2.2995,2.3662,2.47,2.4262,2.3786,2.4178,2.4015,0.0,2.4103,2.4505,0.0,2.4804,2.4804,0.0,2.4731,0.0,2.5086,2.5588,2.6271,0.0,0.0,2.6374,2.6511,2.63,2.6632,2.7101,2.7705,2.8155,2.8792,2.9616,3.0115,3.04,3.0445,3.055,3.0583,3.0547,3.0453,3.0386,3.0357,3.0059,2.9933,2.9889,2.9485,2.9495,2.9765,2.9505,2.9615,2.9904,2.9867,2.9845,2.9779,0.0,0.0,0.0,0.0,0.0,0.0,0.0,0.0,0.0,0.0,0.0,0.0,0.0,0.0,0.0,0.0,0.0,0.0,0.0,0.0,0.0,0.0,0.0,0.0,0.0,0.0,0.0,0.0,0.0,0.0,0.0,0.0,0.0,0.0,0.0,0.0,0.0,0.0,0.0,0.0,0.0,0.0,0.0,0.0,0.0,0.0,0.0,0.0,0.0,0.0,0.0,1.7674,1.7622,1.8502,1.9616,1.9769,0.0,2.0173,2.0307,2.0375,2.0374,2.0235,2.0873,2.1636,2.2066,2.273,2.338,2.3827,2.3544,2.324,2.3358,2.3637,0.0,0.0,0.0,0.0,2.5107,2.5079,2.5031,0.0,2.5217,0.0,2.6171,2.7027,2.7643,0.0,2.7832,2.7657,2.7278,2.7802,2.8351,2.8783,2.9089,2.9565,3.0211,3.0382,3.0452,3.0443,3.0435,3.0399,3.0353,3.017,3.0065,3.0015,0.0,2.9358,2.9328,2.8796,2.8717,2.8943,2.8808,2.9021,2.9418,2.9532,2.9639,2.9744,0.0,0.0,0.0,0.0,0.0,0.0,0.0,0.0,0.0,0.306,0.3543,0.0,0.0,0.0,0.0,0.0,0.0,0.0,0.0,0.0,0.0,0.0,0.0,0.0,0.0,0.0,0.0,0.0,0.0,0.0,0.0,0.0,0.0,0.0,0.0,0.0,0.0,0.0,0.0,0.0,0.0,0.0,0.0,0.0,0.0,0.0,0.0,0.0,0.0,0.0,2.0554,1.946,1.947,2.0059,2.0801,2.1007,2.0599,2.0126,2.0329,2.0371,2.0311,2.0126,2.068,2.1242,2.1131,2.1696,2.2264,2.2262,0.0,2.2461,2.2411,2.3242,2.3954,2.4028,0.0,2.5369,2.5475,2.5435,2.5339,2.5168,2.589,2.6517,2.6814,2.7906,2.8808,2.9258,2.942,2.9148,2.8361,2.9231,2.9772,2.9795,3.0061,3.0279,3.0427,3.0361,3.0347,3.0392,3.0231,3.0142,3.013,2.9869,2.9692,2.9551,2.8993,2.8713,2.8651,2.8066,2.7888,2.7982,2.8165,2.854,2.8988,2.9289,2.956,2.979,0.0,0.0,0.0,0.0,0.0,0.0,0.0,0.0,0.0,0.0,0.2517,0.3075,0.0,0.0,0.0,0.0,0.0,0.0,0.0,0.0,0.0,0.0,0.0,0.0,0.0,0.0,0.0,0.0,0.0,0.0,0.0,0.0,0.0,0.0,0.0,0.0,0.0,0.0,0.0,0.0,0.0,0.0,0.0,0.0,0.0,0.0,0.0,0.0,0.0,0.0,2.1197,2.0971,2.1671,2.1532,2.1132,2.129,2.0715,2.006,2.026,2.0198,2.006,2.0022,2.0587,2.1131,2.1109,2.1589,0.0,0.0,2.1655,2.1311,2.1354,2.1697,2.2254,2.307,2.3889,2.4686,2.5399,2.5441,2.541,0.0,2.539,2.5659,2.6411,2.7189,0.0,0.0,2.9554,2.9902,2.9523,2.9897,3.0163,3.028,3.0233,3.0163,3.0087,2.9971,2.9875,2.9844,2.986,2.9842,2.9786,2.956,2.9284,2.894,2.8615,0.0,2.8029,2.7581,2.7747,2.8281,2.8056,2.8513,2.9332,2.9377,2.9532,2.972,0.0,0.0,0.0,0.0,0.0,0.0,0.0,-0.0714,-0.0131,0.0152,0.1192,0.2226,0.3056,0.3939,0.0,0.0,0.0,0.0,0.0,0.0,0.0,0.0,0.0,0.0,0.0,0.0,0.0,0.0,0.0,0.0,0.0,0.0,0.0,0.0,0.0,0.0,0.0,0.0,0.0,0.0,0.0,0.0,0.0,0.0,0.0,0.0,0.0,0.0,0.0,0.0,2.1625,2.1694,2.2374,2.2364,2.1995,2.1578,2.0841,2.0179,2.0267,2.0142,1.9983,1.9913,2.0422,2.081,2.028,0.0,0.0,0.0,2.042,2.0308,2.0448,2.1014,0.0,2.2827,2.37,2.454,2.5381,2.5444,0.0,2.5439,2.5304,2.5494,0.0,2.712,2.7885,2.8451,2.9551,3.0146,3.0023,3.0199,3.0321,3.0351,3.001,2.9776,2.9637,2.9341,2.9153,2.9132,2.9228,2.9254,2.9234,2.92,2.898,2.8558,2.8263,2.7927,2.7568,2.7138,2.7308,2.7796,2.7431,2.7939,2.886,2.8676,2.8911,2.9346,0.0,0.0,0.0,0.0,0.0,0.0,0.0,-0.2109,-0.1517,-0.1324,-0.0108,0.1109,0.2105,0.306,0.3549,0.0,0.0,0.0,0.0,0.0,0.0,0.0,0.0,0.0,0.0,0.0,0.0,0.0,0.0,0.0,0.0,0.0,0.0,0.0,0.0,0.0,0.0,0.0,0.0,0.0,0.0,0.0,0.0,0.0,0.0,0.0,0.0,0.0,0.0,0.0,2.1863,2.1971,2.2355,2.2698,2.2763,2.1795,2.107,2.0533,2.035,2.0125,1.9971,2.003,2.0268,2.0324,1.9703,1.9913,0.0,0.0,1.9462,1.9656,1.984,0.0,2.1505,0.0,2.3552,2.4347,2.5358,2.56,2.561,0.0,2.5525,0.0,2.6197,2.7223,0.0,2.8415,2.9405,3.0039,3.0107,3.0081,3.0049,3.004,2.9513,2.9128,2.89,2.8488,2.827,2.827,2.8388,2.8534,2.8708,2.8817,2.8667,2.8281,2.8001,2.7619,2.7147,2.6849,2.6995,2.7387,2.7083,2.7593,2.848,2.8138,2.836,2.8863,0.0,0.0,0.0,0.0,0.0,0.0,0.0,-0.2892,-0.2194,-0.1409,-0.115,-0.0723,0.0158,0.1722,0.2709,0.0,0.0,0.0,0.0,0.0,0.0,0.0,0.0,0.0,0.0,0.0,0.0,0.0,0.0,0.0,0.0,0.0,0.0,0.0,0.0,0.0,0.0,0.0,0.0,0.0,0.0,0.0,0.0,0.0,0.0,0.0,0.0,0.0,0.0,0.0,0.0,2.1891,2.1809,2.2387,2.2894,2.1881,0.0,0.0,2.0514,2.006,1.9981,2.0712,2.0159,1.9614,2.0244,0.0,0.0,1.9323,1.9462,1.964,1.9788,1.998,2.0747,0.0,0.0,2.3609,0.0,2.6121,2.6314,2.5581,0.0,0.0,2.6385,2.7185,0.0,2.8537,2.9083,2.9511,2.9812,2.9272,2.9041,2.9205,2.8695,2.8133,2.7583,2.7359,2.7251,2.7251,2.726,2.7664,2.8428,2.8446,2.8264,2.7945,2.7926,2.747,0.0,2.6733,2.7147,2.784,2.7803,2.8255,2.8905,2.8506,2.8394,2.842,0.0,0.0,0.0,0.0,0.0,0.0,-0.3812,-0.3084,-0.2279,-0.1409,-0.0835,-0.0378,-0.0045,0.0619,0.1032,0.0,0.0,0.0,0.0,0.0,0.0,0.0,0.0,0.0,0.0,0.0,0.0,0.0,0.0,0.0,0.0,0.0,0.0,0.0,0.0,0.0,0.0,0.0,0.0,0.0,0.0,0.0,0.0,0.0,0.0,0.0,0.0,0.0,0.0,0.0,0.0,0.0,2.0958,2.1557,0.0,0.0,2.1164,2.1358,2.0533,2.0784,2.1262,2.1051,2.0504,2.0115,2.042,0.0,1.9305,1.9305,1.9462,1.964,1.9786,1.9902,2.0623,0.0,2.2841,2.3428,2.5149,2.5658,2.5878,2.5922,2.6238,0.0,0.0,0.0,2.7977,2.8318,2.8205,2.8269,2.8645,2.8674,2.8519,2.8205,2.7732,2.712,2.6442,2.6124,2.6112,2.6421,2.6629,2.7094,2.7747,2.7983,2.7899,2.7538,2.7538,2.7201,0.0,2.6691,2.7027,2.7538,2.7538,2.788,2.8317,2.8165,2.8102,2.8075,0.0,0.0,0.0,0.0,0.0,-0.4552,-0.3982,-0.3167,-0.2279,-0.1409,-0.077,-0.029,-0.0022,0.0,0.0,0.0,0.0,0.0,0.0,0.0,0.0,0.0,0.0,0.0,0.0,0.0,0.0,0.0,0.0,0.0,0.0,0.0,0.0,0.0,0.0,0.0,0.0,0.0,0.0,0.0,0.0,0.0,0.0,0.0,0.0,0.0,0.0,0.0,0.0,0.0,0.0,0.0,0.0,0.0,0.0,0.0,2.1071,2.1734,2.0879,2.1491,2.2278,2.1856,2.1152,2.0636,0.0,2.006,1.9305,1.9305,1.9418,1.9564,1.9764,1.988,2.048,0.0,2.2584,2.3228,2.4726,2.5321,2.5659,0.0,0.0,2.6517,0.0,2.7473,2.7688,2.7602,2.7216,2.7152,2.7521,2.7714,2.765,2.7299,2.669,2.6143,2.564,2.5333,2.5457,2.6005,2.624,2.6664,2.7295,2.7589,2.7568,2.7295,2.7295,2.7051,0.0,2.6691,2.6939,2.7295,2.7295,2.7538,2.7897,2.7783,2.7716,2.7687,0.0,0.0,0.0,0.0,0.0,0.0,-0.3901,-0.3167,-0.2279,-0.1409,-0.1282,-0.0964,-0.009,0.0,0.0,0.0,0.0,0.0,0.0,0.0,0.0,0.0,0.0,0.0,0.0,0.0,0.0,0.6327,0.0,0.0,0.0,0.0,0.0,0.0,0.0,0.0,0.0,0.0,0.0,0.0,0.0,0.0,0.0,0.0,0.0,0.0,0.0,0.0,0.0,0.0,0.0,0.0,0.0,0.0,0.0,0.0,2.1532,2.2675,2.1735,2.2029,2.2745,2.3326,2.2121,2.0969,2.1642,2.0508,1.9305,1.9305,1.9305,1.9405,1.974,1.98,2.0175,2.1336,2.2067,2.2887,2.3957,2.5371,0.0,0.0,0.0,2.6461,2.686,2.7153,2.701,2.6274,2.6224,0.0,2.6682,2.6289,2.6169,2.6505,2.568,2.5213,2.5221,2.5221,2.5457,2.6005,2.6005,2.6471,2.7295,2.7295,2.7295,2.7295,2.7295,2.7051,0.0,2.6691,2.6939,2.7295,2.7295,2.7538,2.784,2.7439,2.7303,2.7192,0.0,0.0,0.0,0.0,0.0,0.0,0.0,-0.2785,-0.2071,-0.0597,-0.0422,-0.0312,-0.0022,-0.0532,-0.064,-0.0045,0.0,0.0,0.0,0.0,0.0,0.0,0.0,0.0,0.0,0.0,0.4182,0.8013,0.8129,0.9397,0.0,0.0,0.0,0.0,0.0,0.0,0.0,0.0,0.0,0.0,0.0,0.0,0.0,0.0,0.0,0.0,0.0,0.0,0.0,0.0,0.0,0.0,0.0,0.0,0.0,1.8377,2.0148,2.1763,2.0908,2.1521,2.2297,2.1894,2.1194,2.0661,2.0866,2.0079,1.9305,1.9305,1.9481,1.967,1.9788,1.9991,2.0594,2.1961,2.2359,0.0,0.0,0.0,0.0,2.566,2.6169,2.6362,0.0,0.0,2.6002,2.5794,2.5783,2.6043,2.6657,2.6254,2.5864,2.5615,2.5349,2.502,2.4672,2.502,2.5457,2.6005,2.6005,2.6315,2.6906,2.6906,2.6906,2.6906,2.6906,2.6816,2.6691,2.6691,2.6791,2.6906,2.7201,2.7201,2.7083,2.7241,2.6929,2.6368,0.0,0.0,0.0,0.0,0.0,0.0,0.0,-0.205,-0.1225,-0.0134,0.0,0.0,0.0,-0.0488,-0.0597,-0.0045,0.0,0.0,0.0,0.0,0.0,0.0,0.0,0.0,0.0,0.1887,0.4272,0.8833,0.9159,1.0503,1.2705,1.2705,1.1511,0.0,0.0,0.0,0.0,0.0,0.0,0.0,0.0,0.0,1.5962,0.0,0.0,0.0,0.0,0.0,0.0,0.0,0.0,0.0,0.0,0.0,0.0,0.0,1.8231,1.9793,0.0,2.1219,2.2158,2.1533,2.0984,2.0594,2.0526,1.9886,1.9305,1.9305,1.9541,1.9738,1.9788,2.0012,2.0611,2.1914,2.2266,0.0,0.0,0.0,0.0,2.5497,0.0,0.0,0.0,2.4812,2.4885,2.4769,2.5033,2.5507,2.6251,2.6112,2.5852,2.5494,2.5297,2.5144,2.502,2.5327,2.5762,2.6254,2.6254,2.6401,2.6691,2.6691,2.6691,2.6691,2.6691,2.6691,0.0,2.6513,2.6547,2.6691,2.6548,2.6488,2.6436,2.6505,2.6152,2.5689,0.0,0.0,0.0,0.0,0.0,0.0,0.0,-0.1408,-0.0311,-0.0156,-0.0134,-0.0112,0.0,-0.0134,-0.0201,-0.0156,0.0,0.0,0.0,0.0,0.0,0.0,0.0,0.0,0.0,0.1087,0.4076,0.8995,0.9821,1.1133,1.289,1.289,1.1476,0.903,0.0,0.0,0.0,0.0,0.0,0.0,0.0,1.4123,0.0,0.0,0.0,0.0,0.0,0.0,0.0,0.0,0.0,0.0,0.0,0.0,0.0,0.0,0.0,0.0,0.0,2.0761,2.1887,2.1779,2.1171,2.0573,2.0448,1.984,0.0,1.9305,1.9462,1.9658,1.9861,1.9997,2.0423,2.1471,0.0,0.0,0.0,2.4509,0.0,0.0,2.4809,0.0,2.3315,2.3622,2.3755,2.3422,2.4019,2.4729,2.549,2.5796,2.5966,2.5966,2.5545,2.5532,2.6013,2.6041,2.6262,2.6691,2.6691,2.6691,2.6691,2.6691,2.6691,0.0,2.6657,2.6657,2.6615,2.6148,2.6218,2.6505,2.5553,2.5494,2.5888,2.5373,2.5182,2.5059,0.0,0.0,0.0,0.0,0.0,0.0,0.0,0.0,0.0,0.0,-0.1523,-0.1137,-0.0112,-0.1516,-0.2255,0.0,0.0,0.0,0.0,0.0,0.0,0.0,0.0,0.0,0.0,0.3416,0.677,0.9963,1.018,1.1824,1.4776,1.4771,1.3031,1.0057,1.2626,0.0,0.0,0.0,0.0,0.0,1.4081,1.4491,0.0,0.0,0.0,0.0,1.4062,1.4245,0.0,0.0,0.0,0.0,0.0,0.0,0.0,0.0,1.4801,1.524,1.616,0.0,1.8341,1.9059,1.8985,1.8886,0.0,1.9436,1.9305,0.0,0.0,1.9836,2.0649,2.0779,2.1254,2.2786,0.0,0.0,2.4272,0.0,0.0,2.4568,2.4215,2.3782,2.3262,2.3072,2.3125,2.3371,2.3553,2.3968,2.4704,2.5351,2.5689,2.5689,2.6108,2.6245,2.6005,2.6367,2.6581,2.6691,2.6691,2.6691,2.6691,2.6691,2.6691,2.6691,2.6332,2.6148,2.6112,2.5606,2.5449,2.5524,2.5289,2.5297,2.5373,2.5259,2.4942,2.4592,0.0,0.0,0.0,0.0,0.0,0.0,0.0,0.0,0.0,0.0,0.0,0.0,0.0,0.0,0.0,0.0,0.0,0.0,0.0,0.0,0.0,0.0,0.0,0.0,-0.1962,0.0469,0.3954,0.8508,0.8691,0.9836,1.1882,1.1876,1.0451,0.7854,0.6466,0.0,0.0,0.0,0.0,0.0,1.4534,0.0,0.0,0.0,0.0,0.0,1.2833,1.2957,0.0,1.3213,1.3317,1.3538,0.0,0.0,0.0,0.0,1.3754,1.3869,1.4128,1.5657,1.7335,1.7969,1.8382,1.8757,1.9198,0.0,0.0,0.0,0.0,0.0,2.0799,2.0856,0.0,0.0,2.3207,0.0,0.0,0.0,2.4433,2.4291,2.3806,2.3346,0.0,2.2704,2.2626,2.2868,2.3207,2.3494,2.3656,2.4409,2.4828,2.4828,2.5531,2.6058,2.6332,2.6581,2.6691,2.6691,2.6691,2.659,2.6367,2.6367,2.6245,2.6008,2.5754,2.5644,2.5569,2.5059,2.4981,2.5136,2.4672,2.4624,2.4784,2.4544,2.4266,2.4032,0.0,0.0,0.0,0.0,0.0,0.0,0.0,0.0,0.0,0.0,0.0,0.0,0.0,0.0,0.0,0.0,0.0,0.0,0.0,0.0,0.0,0.0,0.0,-0.7402,-0.4266,-0.3203,0.0115,0.5856,0.6319,0.6738,0.7126,0.6788,0.5879,0.4291,-0.1373,0.1291,0.0,0.0,0.0,0.0,1.4623,0.0,0.0,0.0,0.0,0.0,0.0,0.0,0.0,1.2238,1.2399,1.2607,1.3206,0.0,0.0,0.0,0.0,0.0,1.3063,1.5062,1.7205,1.745,1.829,1.9087,1.9216,0.0,0.0,0.0,0.0,0.0,0.0,0.0,0.0,0.0,0.0,0.0,2.4298,2.4373,2.422,2.3987,2.3463,0.0,2.2721,2.2472,2.231,2.231,2.2811,2.2944,2.2541,2.3275,2.3696,2.363,2.4397,2.532,2.6328,2.6488,2.6539,2.647,2.647,2.6245,2.5888,2.5888,2.5615,2.5182,0.0,0.0,2.5028,2.4504,2.4552,2.4863,2.3948,2.3879,2.4225,2.3759,2.3602,2.3595,0.0,0.0,0.0,0.0,0.0,0.0,0.0,0.0,0.0,0.0,0.0,0.0,0.0,0.0,0.0,0.0,0.0,0.0,0.0,0.0,0.0,0.0,-0.6616,-0.4772,-0.4208,0.0117,0.2707,0.3343,0.41,0.4488,0.4538,0.2655,0.1842,0.1798,-0.2141,-0.1343,0.3075,0.0,0.0,0.8462,1.2692,0.0,0.0,0.0,0.0,0.0,0.0,0.0,0.0,1.2187,1.2025,1.1812,1.3028,0.0,0.0,0.0,0.0,0.0,1.3694,1.4719,1.5654,1.608,1.7077,1.814,0.0,0.0,0.0,0.0,0.0,0.0,0.0,0.0,0.0,0.0,0.0,2.3382,0.0,0.0,2.3486,2.3717,0.0,2.2772,2.2686,2.2472,2.231,2.231,2.2036,2.1845,2.1777,2.2491,2.2719,2.2392,2.3465,2.422,2.458,2.5612,2.588,2.5441,2.5441,2.5403,2.5335,2.5335,2.5297,2.5174,0.0,2.4504,2.4471,2.3956,2.3752,2.3837,2.3673,2.3638,2.3716,2.3638,2.3602,2.3508,0.0,0.0,0.0,0.0,0.0,0.0,0.0,0.0,0.0,0.0,0.0,0.0,0.0,0.0,0.0,0.0,0.0,0.0,0.0,0.0,0.0,-0.9668,-0.7309,-0.5931,-0.5818,-0.378,-0.2394,-0.1749,-0.2098,-0.1807,-0.0986,-0.4693,-0.5539,-0.4134,-0.827,-0.6617,-0.0723,0.0,0.2057,0.7205,0.0,0.0,0.0,0.0,0.0,0.0,0.0,0.0,0.0,0.0,1.0885,1.0993,1.2367,0.0,0.0,0.0,0.0,0.0,1.2991,1.4117,1.5242,1.5463,1.6865,1.8405,0.0,0.0,0.0,0.0,0.0,0.0,0.0,0.0,0.0,0.0,0.0,2.3227,2.3329,2.3264,2.3019,0.0,0.0,2.2298,2.213,2.1799,2.1683,2.1899,2.1507,2.1181,2.0902,2.123,2.1307,2.114,2.2073,2.2781,2.3164,2.4113,2.4798,2.5221,2.5221,2.5059,2.4784,2.4784,2.4624,2.4307,0.0,2.3772,2.3507,2.3587,2.3172,2.2599,2.2957,2.2898,2.2553,2.2553,2.2553,2.2553,0.0,0.0,0.0,0.0,0.0,0.0,0.0,0.0,0.0,0.0,0.0,0.0,0.0,0.0,0.0,0.0,0.0,0.0,0.0,0.0,-0.9314,-0.9342,-0.8188,-0.7503,-0.7405,-0.7471,-0.6987,-0.5901,-0.6657,-0.648,-0.5572,-0.9945,-1.0964,-0.9319,-1.3222,-1.1162,-0.4896,-0.679,-0.3465,0.3203,0.0,0.0,0.0,0.0,0.0,0.0,0.0,0.0,0.0,0.0,0.0,0.0,0.0,0.0,0.0,1.2087,1.2324,1.2396,1.2529,1.3843,1.5267,1.5496,0.0,1.8711,0.0,0.0,0.0,0.0,0.0,0.0,0.0,0.0,0.0,2.2427,2.2635,2.2626,2.247,2.2574,2.2381,2.1586,2.1699,2.174,2.1483,2.1181,2.1126,2.1438,2.1078,2.069,2.0314,2.0314,2.0246,2.0151,2.0856,2.144,2.1903,2.2478,2.3445,2.4831,2.4831,2.4624,2.4191,2.4059,2.3856,2.3595,2.3267,2.3002,2.274,2.3039,2.2599,2.1751,2.2253,2.2146,2.1697,2.1697,2.1609,2.1472,0.0,0.0,0.0,0.0,0.0,0.0,0.0,0.0,0.0,0.0,0.0,0.0,0.0,0.0,0.0,0.0,0.0,0.0,0.0,0.0,-0.8628,-0.7712,-0.7676,-0.7792,-0.8036,-0.6728,-0.6297,-0.6808,-0.5778,-0.5728,-0.6632,-0.9237,-1.0685,-1.1172,-1.2878,-1.284,0.0,0.0,-1.035,-0.8015,-0.0396,0.0,0.0,0.0,0.0,0.0,0.0,0.0,0.0,0.0,0.0,0.0,0.0,0.0,0.9892,1.099,1.1482,1.1958,1.3243,1.4369,1.5425,1.6362,0.0,0.0,1.9152,0.0,0.0,0.0,0.0,0.0,0.0,0.0,2.1279,2.2023,2.1584,2.134,2.1872,0.0,2.1235,2.1475,2.1258,2.1086,2.1063,2.1031,2.0999,2.1031,2.0616,2.0348,2.0314,2.0314,2.0124,1.9747,2.017,2.0538,2.0805,2.0865,2.1849,2.3716,2.3716,2.3673,2.3638,2.3098,2.3106,2.3551,2.2363,2.2146,2.2649,2.2093,2.1798,2.1697,2.1751,2.1751,2.1697,2.1697,2.1342,2.0845,0.0,0.0,0.0,0.0,0.0,0.0,0.0,0.0,0.0,0.0,0.0,0.0,0.0,0.0,0.0,0.0,0.0,0.0,0.0,0.0,-0.8643,-0.8268,-0.7538,-0.7265,-0.7537,-0.6461,-0.6019,-0.6288,-0.5943,-0.6348,-0.75,-0.9483,-1.0666,-1.1165,-1.2435,0.0,0.0,0.0,0.0,-0.9379,-0.3538,0.156,0.0,0.0,0.0,0.0,0.0,0.0,0.0,0.0,0.8729,0.8687,0.0,0.0,0.0,0.0,1.1062,1.1716,1.2255,1.3892,1.5535,1.5913,0.0,0.0,0.0,0.0,0.0,0.0,0.0,0.0,0.0,0.0,2.1078,2.1358,2.1165,2.0991,2.0918,2.0967,2.0854,2.0426,2.0501,2.055,2.055,2.0337,2.0303,2.0558,2.0166,1.9937,1.9937,1.9937,1.9874,1.9718,1.9522,1.9694,2.0209,1.9865,2.0282,2.1427,2.2091,2.2418,2.2389,2.2161,2.2186,2.2409,2.1892,2.1622,2.1513,2.167,2.1225,2.0514,2.0514,2.0244,1.9806,1.9806,1.9401,1.8791,0.0,0.0,0.0,0.0,0.0,0.0,0.0,0.0,0.0,0.0,0.0,0.0,0.0,0.0,0.0,0.0,0.0,0.0,0.0,-0.8529,-0.8176,-0.804,-0.7241,-0.6871,-0.7009,-0.6341,-0.6045,-0.6123,-0.6388,-0.6858,-0.7518,-0.9202,-1.0059,-1.0192,0.0,0.0,0.0,0.0,0.0,0.0,-0.498,-0.0353,0.0,0.0,0.0,0.0,0.0,0.0,0.0,0.0,0.8129,0.0,0.0,0.0,0.0,0.0,0.0,1.1719,1.2142,1.4068,1.5942,0.0,0.0,0.0,0.0,0.0,0.0,0.0,0.0,0.0,0.0,0.0,0.0,0.0,2.0665,2.0473,2.0166,2.0405,2.0371,1.9782,1.9937,2.0124,2.0124,1.9874,1.9811,2.0097,1.9846,1.9646,1.945,1.9442,1.9369,1.9207,1.8848,1.8871,1.9319,1.8978,1.8927,1.9172,1.9936,2.0608,2.1167,2.1165,2.1246,2.1441,2.1199,2.0848,2.0471,2.0674,2.0124,1.9097,1.9097,1.8827,1.8334,1.8334,1.8004,1.7578,0.0,0.0,0.0,0.0,0.0,0.0,0.0,0.0,0.0,0.0,0.0,0.0,0.0,0.0,0.0,0.0,0.0,0.0,-0.7814,-0.7428,-0.7025,-0.6627,-0.6743,-0.6743,-0.6616,-0.6347,-0.633,-0.6599,-0.6999,-0.6999,-0.6635,-0.8176,-0.8681,-0.8322,0.0,0.0,0.0,0.0,0.0,0.0,-0.4808,-0.1279,0.2002,0.0,0.0,0.0,0.0,0.0,0.0,0.0,0.787,0.8096,0.0,0.0,0.0,0.0,1.0749,1.2,1.3316,1.5139,1.669,0.0,0.0,0.0,0.0,0.0,0.0,0.0,0.0,0.0,0.0,0.0,0.0,2.0212,1.9929,1.9682,1.9682,1.9682,1.9682,1.9682,1.9682,1.9682,1.9682,1.9682,1.9682,1.9682,1.9682,1.9442,1.893,1.8893,1.865,1.8099,1.8059,1.8059,1.8059,1.8059,1.7786,1.7179,1.7199,1.8174,2.005,1.9979,2.0294,2.0836,2.0088,1.9761,1.9608,1.8961,1.828,1.7578,1.7578,1.7578,1.7578,1.7578,1.7578,1.7572,0.0,0.0,0.0,0.0,0.0,0.0,0.0,0.0,0.0,0.0,0.0,0.0,0.0,0.0,0.0,0.0,0.0,0.0,0.0,-0.7912,-0.7821,-0.7458,-0.757,-0.7577,-0.7443,-0.7087,-0.6795,-0.6599,-0.6717,-0.6904,-0.7175,-0.8066,-0.8342,-0.8093,0.0,0.0,0.0,0.0,0.0,0.0,-0.6481,-0.3094,0.1955,0.0,0.0,0.0,0.0,0.0,0.0,0.0,0.0,0.0,0.0,0.0,0.0,0.0,1.0693,1.2311,1.2239,1.4035,0.0,0.0,0.0,0.0,0.0,0.0,0.0,0.0,0.0,0.0,0.0,0.0,0.0,1.9361,1.9229,1.9125,1.9125,1.9125,1.9125,1.9125,1.9125,1.9125,1.9125,1.881,1.8574,1.8574,1.8574,1.8496,1.8334,1.7939,1.7639,1.7477,1.6703,1.6279,1.6279,1.5879,1.564,1.5463,1.5449,1.613,1.7411,1.7466,1.7729,1.816,1.7942,1.8002,1.8203,1.8004,1.7797,1.7578,1.7578,1.7302,1.6816,1.6816,1.6477,1.6026,0.0,0.0,0.0,0.0,0.0,0.0,0.0,0.0,0.0,0.0,0.0,0.0,0.0,0.0,0.0,0.0,0.0,0.0,0.0,0.0,-0.7842,-0.7809,-0.7729,-0.757,-0.7328,-0.7082,-0.6838,-0.6599,-0.6599,-0.6768,-0.7094,-0.7444,-0.7512,-0.7283,0.0,-0.6934,0.0,0.0,0.0,0.0,-0.6179,-0.3262,0.1934,0.0,0.0,0.0,0.0,0.0,0.0,0.0,0.0,0.0,0.0,0.0,0.0,0.9513,1.0828,1.2267,1.2898,0.0,0.0,0.0,0.0,0.0,0.0,0.0,0.0,0.0,0.0,0.0,0.0,0.0,0.0,1.8612,1.8574,1.8574,1.8574,1.8574,1.8574,1.8574,1.8574,1.8574,1.8574,1.8295,1.8099,1.8099,1.8099,1.7887,1.747,1.7075,1.6686,1.6213,1.5522,1.5184,1.5184,1.4863,1.4566,1.4329,1.4329,1.4559,1.496,1.5699,1.6153,1.6401,1.6528,1.6808,1.7141,1.6861,1.6749,1.6749,1.6749,1.6472,1.6036,1.6036,1.5753,1.541,0.0,0.0,-0.9986,-1.0253,0.0,0.0,0.0,0.0,0.0,0.0,0.0,-1.0156,0.0,0.0,0.0,-0.8638,0.0,0.0,0.0,0.0,-0.7352,-0.778,-0.7458,-0.7114,-0.675,-0.6706,-0.6678,-0.6661,-0.6593,-0.6558,-0.6558,0.0,-0.6401,-0.6177,0.0,-0.6028,0.0,0.0,0.0,0.0,-0.4264,-0.2072,0.1848,0.2993,0.0,0.0,0.0,0.0,0.0,0.0,0.0,0.0,0.0,0.0,0.0,1.0252,1.1208,1.2152,0.0,0.0,0.0,0.0,0.0,0.0,0.0,0.0,0.0,0.0,0.0,0.0,0.0,1.8059,1.8059,1.802,1.802,1.802,1.802,1.802,1.802,1.7933,1.794,1.7927,1.788,1.7887,1.7847,1.78,1.784,1.7389,1.6299,1.6207,1.569,1.4652,1.4566,1.4525,1.4525,1.4525,1.4242,1.3732,1.3732,1.342,1.2939,1.4559,1.527,1.5301,1.549,1.5872,1.6255,1.5575,1.5289,1.5289,1.5289,1.5235,1.5172,1.5172,1.5172,1.5167,0.0,0.0,-0.9986,-1.0253,0.0,0.0,0.0,0.0,0.0,-1.0303,-1.0119,-0.9909,-0.9691,-0.9125,0.0,-0.8033,-0.7311,0.0,0.0,0.0,-0.7161,-0.7773,-0.7858,-0.7866,-0.7781,-0.7464,-0.7225,-0.7066,-0.6543,-0.6289,0.0,0.0,0.0,-0.5954,0.0,-0.5633,0.0,0.0,0.0,-0.2657,-0.1535,-0.0223,0.1218,0.2422,0.3072,0.0,0.0,0.0,0.0,0.0,0.0,0.0,0.8792,0.985,1.0869,1.0827,1.2132,1.3612,0.0,1.4648,0.0,0.0,0.0,0.0,0.0,0.0,0.0,0.0,0.0,0.0,1.7666,1.782,1.794,1.7544,1.747,1.747,1.747,1.747,1.7292,1.6802,1.6767,1.6572,1.6114,1.6108,1.5953,1.5475,1.5872,1.5828,1.509,1.463,1.4267,1.4003,1.3515,1.3296,1.3296,1.3296,1.32,1.3109,1.3109,1.3017,1.2934,1.3305,1.3441,1.3443,1.3336,1.3834,1.4678,1.4506,1.4451,1.4451,1.4451,1.4085,1.355,1.355,1.355,1.361,0.0,0.0,0.0,0.0,0.0,0.0,0.0,0.0,-1.0068,-0.9979,-0.9844,-0.9605,-0.9208,-0.8715,0.0,0.0,-0.689,-0.6713,0.0,0.0,0.0,-0.7766,-0.7895,-0.7867,-0.7672,-0.7365,-0.7263,-0.7342,-0.6568,0.0,0.0,0.0,0.0,-0.5507,0.0,-0.5156,0.0,0.0,-0.4138,-0.3181,-0.0611,0.0618,0.1018,0.2124,0.2948,0.3522,0.3791,0.0,0.0,0.0,0.0,0.0,0.0,0.0,1.0392,1.1068,1.179,1.2622,0.0,0.0,0.0,0.0,0.0,0.0,0.0,0.0,0.0,0.0,0.0,1.786,1.707,1.7153,1.7229,1.6951,1.6915,1.6818,1.6538,1.6495,1.6268,1.5652,1.5614,1.5469,1.5145,1.5168,1.5056,1.4698,1.5011,1.492,1.4283,1.3962,1.3684,1.3377,1.306,1.2881,1.2881,1.2881,1.2881,1.2881,1.2881,1.272,1.2344,1.2344,1.2328,1.2273,1.2668,1.305,1.3477,1.4013,1.3965,1.361,1.361,1.3368,1.307,1.3425,1.3308,1.313,0.0,0.0,0.0,0.0,0.0,0.0,0.0,0.0,0.0,-0.9625,-0.951,-0.9255,-0.8756,-0.8204,-0.7669,0.0,0.0,0.0,-0.7094,0.0,0.0,0.0,-0.7665,-0.7494,-0.7162,-0.698,-0.7045,-0.7349,0.0,0.0,0.0,0.0,0.0,-0.5093,0.0,0.0,0.0,0.0,-0.4435,-0.4016,-0.0723,0.0773,0.1153,0.199,0.2869,0.3681,0.3746,0.4703,0.6024,0.6426,0.0,0.0,0.0,0.0,0.9042,1.1008,1.1116,1.1169,0.0,0.0,0.0,0.0,0.0,0.0,0.0,0.0,0.0,0.0,0.0,1.7153,1.6595,1.6515,1.6515,1.6515,1.6515,1.6337,1.582,1.5776,1.5505,1.4795,1.4703,1.4612,1.4433,1.4474,1.452,1.4387,1.4474,1.4283,1.3689,1.3637,1.342,1.2929,1.2881,1.2881,1.2881,1.2881,1.2827,1.272,1.2569,1.2147,1.1462,1.1462,1.1422,1.1329,1.2232,1.2483,1.2398,1.3399,1.3348,1.2639,1.2639,1.2554,1.2607,1.3267,1.3189,1.2883,0.0,0.0,0.0,0.0,0.0,0.0,0.0,0.0,0.0,0.0,-0.9147,-0.8785,-0.8708,-0.7673,-0.6949,-0.6858,-0.6288,-0.6195,0.0,0.0,0.0,0.0,-0.7119,-0.6993,-0.6944,-0.6917,-0.6834,-0.6723,0.0,0.0,0.0,0.0,0.0,-0.5083,0.0,0.0,0.0,0.0,-0.4209,-0.4091,-0.1633,0.0287,0.1705,0.182,0.2263,0.2815,0.3099,0.3791,0.4724,0.5691,0.6422,0.0,0.0,0.0,0.9104,1.0324,1.1001,1.1608,0.0,0.0,0.0,0.0,0.0,0.0,0.0,0.0,0.0,0.0,1.7347,1.7153,1.6595,1.6515,1.6515,1.6515,1.6515,1.6472,1.638,1.638,1.597,1.4835,1.4703,1.4299,1.3248,1.36,1.3689,1.3157,1.36,1.3642,1.306,1.3017,1.2973,1.2881,1.2881,1.2881,1.2881,1.2881,1.2564,1.1922,1.1371,1.072,1.0068,1.0068,1.0199,1.047,1.0628,1.0835,1.1202,1.1914,1.1817,1.1207,1.1207,1.0927,1.0471,1.0585,1.1171,1.2077,0.0,0.0,0.0,0.0,0.0,0.0,0.0,0.0,0.0,0.0,0.0,-0.8753,-0.8607,-0.7851,-0.7269,-0.7048,-0.6438,0.0,0.0,0.0,0.0,0.0,-0.7191,-0.7135,-0.7282,-0.7026,-0.7019,0.0,0.0,0.0,0.0,-0.6052,-0.5531,0.0,0.0,0.0,0.0,0.0,0.0,-0.2775,-0.1323,0.0364,0.2015,0.2026,0.2437,0.3031,0.3245,0.375,0.4398,0.5011,0.571,0.6462,0.7376,0.0,0.0,0.0,0.0,0.0,0.0,0.0,0.0,0.0,0.0,0.0,0.0,0.0,0.0,0.0,1.6595,1.6418,1.6502,1.6515,1.6515,1.6515,1.6515,1.638,1.6045,1.5694,1.5152,1.4283,1.3884,1.3478,1.2973,1.3152,1.32,1.2925,1.3152,1.3195,1.2929,1.2881,1.2881,1.2881,1.2505,1.229,1.229,1.1891,1.1579,1.1212,1.0564,1.0064,0.9766,0.9409,0.9337,0.9478,1.0124,1.0232,1.0044,1.0932,1.0903,1.024,1.024,1.0099,0.9988,1.0774,1.1267,1.1669,0.0,0.0,0.0,0.0,0.0,0.0,0.0,0.0,0.0,0.0,0.0,-0.8711,-0.8472,0.0,0.0,0.0,-0.6636,0.0,0.0,0.0,0.0,0.0,0.0,-0.7191,-0.7345,-0.7,0.0,0.0,0.0,0.0,-0.6372,-0.6165,-0.5545,0.0,-0.4462,0.0,0.0,0.0,0.0,-0.1701,-0.0564,0.0808,0.2198,0.2192,0.2631,0.3249,0.333,0.3694,0.4194,0.4414,0.4934,0.5615,0.6352,0.0,0.0,0.0,0.0,0.0,0.0,0.0,0.0,0.0,0.0,0.0,0.0,0.0,0.0,0.0,1.5889,1.5611,1.6026,1.6095,1.6095,1.6095,1.6214,1.6083,1.5491,1.511,1.4652,1.3915,1.342,1.306,1.2929,1.2881,1.2881,1.2881,1.2881,1.2827,1.2613,1.2613,1.2559,1.2363,1.1828,1.1566,1.1566,1.0864,1.0568,1.0513,0.9865,0.9566,0.9514,0.9008,0.8808,0.8871,0.987,0.9868,0.92,1.0173,1.0167,0.9462,0.9462,0.9552,0.9843,1.1029,1.1601,1.1921,0.0,0.0,0.0,0.0,0.0,0.0,0.0,0.0,0.0,0.0,0.0,-0.8472,-0.8325,-0.7431,-0.6919,-0.709,-0.6789,0.0,0.0,0.0,0.0,0.0,0.0,0.0,0.0,0.0,0.0,0.0,0.0,0.0,-0.5193,-0.5559,-0.5232,-0.4329,-0.4565,-0.4385,-0.3873,0.0,0.0,-0.162,0.0385,0.1611,0.2199,0.2196,0.2591,0.3103,0.2976,0.0,0.0,0.0,0.0,0.0,0.504,0.5407,0.5846,0.0,0.0,0.0,0.0,0.0,0.0,0.0,0.0,0.0,0.0,0.0,0.0,0.0,1.5318,1.496,1.4991,1.4991,1.4991,1.4991,1.5398,1.5525,1.4934,1.5247,1.5135,1.3956,1.3774,1.3552,1.2978,1.2881,1.2881,1.2881,1.2881,1.2608,1.1868,1.1868,1.1566,1.0918,1.0868,1.0864,1.0864,1.0167,0.9862,0.9865,0.9159,0.8857,0.8857,0.8804,0.8808,0.8857,0.9532,0.9435,0.8881,0.9553,0.946,0.8851,0.8851,0.9195,0.9762,1.0236,1.1451,1.2987,0.0,0.0,0.0,0.0,0.0,0.0,0.0,0.0,0.0,0.0,0.0,0.0,0.0,-0.8032,-0.7563,-0.7368,-0.7125,0.0,0.0,0.0,0.0,0.0,0.0,0.0,0.0,0.0,0.0,0.0,0.0,-0.6124,-0.5558,-0.5571,-0.503,-0.4046,-0.4147,-0.4117,-0.3997,-0.3644,0.0,-0.2648,0.017,0.1791,0.2529,0.2514,0.2707,0.2983,0.3008,0.0,0.0,0.0,0.0,0.4399,0.4538,0.4773,0.5195,0.6304,0.0,0.0,0.0,0.0,0.0,0.0,0.0,0.0,0.0,0.0,1.5319,1.4784,1.4519,1.4274,1.3885,1.44,1.4909,1.4909,1.5335,1.5482,1.4893,1.4929,1.4738,1.3909,1.3467,1.3157,1.2925,1.2881,1.2881,1.2881,1.2881,1.2564,1.1819,1.1814,1.1512,1.0813,1.0364,0.9965,0.9514,0.926,0.9159,0.9159,0.8906,0.8808,0.8808,0.8808,0.8808,0.8804,0.9057,0.9008,0.8808,0.9061,0.9008,0.8808,0.8808,0.8935,0.9268,1.0241,1.1198,1.2159,0.0,0.0,0.0,-0.9294,0.0,-0.922,-0.9294,-0.917,-0.9081,-0.9132,0.0,0.0,0.0,0.0,-0.7874,-0.7561,-0.7471,-0.7478,-0.7597,0.0,0.0,0.0,0.0,0.0,0.0,0.0,0.0,0.0,0.0,0.0,0.0,-0.5068,-0.4435,-0.3505,-0.3494,-0.3566,0.0,0.0,0.0,-0.3244,0.0,0.1611,0.2711,0.0,0.2743,0.2847,0.0,0.0,0.0,0.0,0.0,0.0,0.4094,0.4313,0.476,0.5721,0.64,0.0,0.8546,0.0,0.0,0.0,0.0,0.0,0.0,0.0,1.4292,1.4124,1.394,1.3665,1.3261,1.3829,1.4318,1.4318,1.4778,1.4918,1.4273,1.4328,1.4149,1.3552,1.3152,1.2881,1.2881,1.2881,1.2881,1.2881,1.2662,0.0,1.1512,1.1262,1.0704,0.9784,0.9332,0.8774,0.8049,0.8046,0.8046,0.8046,0.8046,0.8212,0.8427,0.8427,0.859,0.8808,0.8808,0.8808,0.8808,0.8808,0.8808,0.8808,0.8808,0.8868,0.9095,1.036,1.1175,1.1792,-0.9284,-0.9284,-0.9275,-0.9275,-0.9105,-0.9046,-0.9247,-0.9105,-0.8936,-0.8812,0.0,0.0,0.0,0.0,0.0,-0.7612,-0.7776,-0.7805,-0.7597,-0.7768,0.0,0.0,0.0,0.0,0.0,0.0,0.0,0.0,0.0,0.0,0.0,0.0,-0.3463,-0.2678,-0.2678,-0.2748,-0.2821,0.0,-0.2428,-0.3194,0.0,0.1059,0.263,0.0,0.0,0.0,0.2851,0.291,0.0,0.3071,0.0,0.0,0.0,0.3971,0.4437,0.516,0.595,0.0,0.0,0.0,0.0,0.0,0.0,0.0,0.0,0.0,1.3377,1.3944,1.359,1.3179,1.3198,1.3198,1.3198,1.3198,1.3647,1.3749,1.3109,1.3468,1.3579,1.2953,1.292,1.2881,1.2881,1.2881,1.2881,1.2876,1.2183,1.1512,1.0817,1.0111,0.9082,0.772,0.767,0.7343,0.6588,0.6588,0.6588,0.6588,0.6588,0.6966,0.767,0.767,0.8046,0.8752,0.8752,0.8752,0.8755,0.8808,0.8808,0.8808,0.8808,0.8981,0.9295,1.0387,1.1259,1.2032,-0.8928,-0.8782,-0.8647,-0.8647,-0.8611,-0.8579,-0.8635,-0.8599,-0.8599,0.0,0.0,0.0,-0.842,-0.8043,-0.7746,-0.7612,-0.7606,-0.7531,-0.7325,-0.7221,-0.7116,-0.6986,-0.6838,-0.6734,0.0,0.0,0.0,0.0,0.0,0.0,0.0,0.0,0.0,0.0,-0.2348,-0.2248,-0.2082,-0.1894,0.0,-0.0902,-0.0051,0.0467,0.0,0.0,0.0,0.0,0.0,0.2942,0.3179,0.0,0.3289,0.3529,0.0,0.0,0.4013,0.4745,0.5328,0.5828,0.6255,0.0,0.0,0.0,0.0,0.0,0.0,0.0,0.0,1.3185,1.3025,1.2722,1.3129,1.3198,1.3198,1.3198,1.3374,1.3418,1.3118,1.3193,1.3224,1.3017,1.291,1.2881,1.2881,1.2881,1.2666,0.0,1.1922,1.1316,1.0167,0.8922,0.7871,0.6912,0.6912,0.6802,0.6588,0.6588,0.6588,0.6588,0.6588,0.6696,0.6912,0.6912,0.702,0.7235,0.7235,0.7506,0.8049,0.859,0.8808,0.8808,0.8808,0.8858,0.9068,1.0348,1.0941,1.1309,-0.873,-0.8559,-0.842,-0.8517,-0.8314,-0.8208,-0.8382,-0.8261,-0.8227,0.0,0.0,0.0,-0.821,-0.7983,-0.7812,-0.7739,-0.7687,-0.7613,-0.7501,-0.7385,-0.7282,-0.7203,-0.697,-0.6811,-0.6729,0.0,0.0,0.0,0.0,0.0,0.0,0.0,0.0,0.0,-0.2042,-0.1938,-0.1792,-0.1791,0.0,0.0,-0.0026,0.0,0.0,0.1158,0.1794,0.0,0.0,0.0,0.3053,0.3024,0.3161,0.0,0.0,0.3515,0.3808,0.4387,0.4944,0.0,0.0,0.0,0.0,0.0,0.0,0.0,1.0816,1.1172,0.0,0.0,1.2941,1.2783,1.2888,1.3268,1.3501,1.3281,1.3276,1.3237,1.3112,1.3081,1.3036,1.2996,1.2924,1.2881,1.2881,1.2622,1.225,1.1814,1.1266,1.0356,0.8977,0.7871,0.6907,0.6147,0.6145,0.5984,0.5716,0.5716,0.5716,0.5716,0.5716,0.5878,0.6145,0.6145,0.631,0.6588,0.6588,0.6858,0.7292,0.7723,0.8265,0.8808,0.8808,0.8808,0.8959,1.0316,1.0813,1.1019,0.0,-0.8492,-0.8407,-0.8604,-0.8179,-0.7932,-0.8282,-0.8037,-0.7882,0.0,-0.811,-0.8057,-0.7927,-0.792,-0.7892,-0.7827,-0.7848,-0.7834,-0.7753,-0.7753,-0.7679,-0.7506,-0.727,-0.7048,-0.6868,-0.6638,0.0,0.0,0.0,0.0,0.0,0.0,0.0,0.0,-0.1804,-0.1804,-0.1804,-0.1794,-0.1784,-0.1682,-0.0634,-0.0112,0.0,0.0,0.0534,0.1406,0.2252,0.2628,0.2718,0.2861,0.3002,0.0,0.3016,0.3294,0.3731,0.4083,0.4679,0.0,0.5634,0.6029,0.0,0.0,0.7255,0.0,0.9817,1.0453,1.1092,0.0,1.2787,1.2696,1.2325,1.3083,1.3594,1.3105,1.3082,1.3179,1.3264,1.3153,1.3028,1.3076,1.306,1.292,1.2774,1.2157,1.1742,1.1566,1.0309,0.8977,0.7667,0.6858,0.6147,0.5433,0.5378,0.5111,0.4517,0.4517,0.4517,0.4517,0.4517,0.4787,0.5378,0.5378,0.5764,0.6372,0.6372,0.6423,0.6477,0.6477,0.7289,0.8586,0.8643,0.8695,0.8847,1.0214,1.0665,1.0868,-0.8446,-0.8218,-0.8046,-0.8185,-0.8031,-0.7906,-0.7992,-0.7935,-0.7926,-0.8083,-0.811,-0.8096,-0.8063,-0.8063,-0.7867,-0.738,-0.7479,-0.7379,-0.6884,-0.6851,-0.6841,-0.6791,-0.675,-0.6706,-0.6661,-0.6248,-0.6015,0.0,0.0,0.0,0.0,0.0,0.0,0.0,-0.1804,-0.1804,-0.1804,-0.1794,-0.1697,-0.1549,-0.1476,0.0,-0.0,-0.0,0.0548,0.1311,0.1509,0.2049,0.2718,0.2861,0.3001,0.3155,0.0,0.3439,0.3476,0.3908,0.4142,0.4314,0.4475,0.5004,0.5569,0.5766,0.6389,0.0,0.8197,0.8299,0.8549,0.0,1.0239,1.0493,1.0815,1.1222,1.1496,1.1389,1.1679,1.2541,1.4313,1.3738,1.3305,1.3658,1.3685,1.3203,1.212,1.1873,1.1371,1.0265,0.8922,0.7714,0.6858,0.6091,0.5382,0.4734,0.4679,0.4625,0.4517,0.4517,0.4517,0.4517,0.4517,0.4572,0.4679,0.4679,0.4789,0.4899,0.4899,0.5222,0.5706,0.5706,0.6251,0.7074,0.7667,0.794,0.8093,0.9496,1.0012,1.0115,-0.824,-0.806,-0.7941,-0.8077,-0.7897,-0.779,-0.7885,-0.7819,-0.7805,-0.7975,-0.8003,-0.8003,-0.8003,-0.8003,-0.7883,-0.7568,-0.7635,-0.7561,-0.7266,-0.7155,-0.7035,-0.6908,-0.6801,-0.6632,-0.6412,-0.6177,-0.5859,0.0,0.0,0.0,0.0,0.0,0.0,0.0,-0.1804,-0.1804,-0.1804,-0.1794,-0.1742,-0.1667,-0.1917,0.0,-0.0,-0.0,0.0262,0.0773,0.1682,0.2296,0.2696,0.2762,0.294,0.0,0.3204,0.3388,0.3565,0.0,0.3955,0.4101,0.4166,0.4464,0.477,0.4909,0.0,0.0,0.0,0.79,0.8447,0.9475,0.9686,0.9761,0.9933,1.0363,1.0685,1.0558,1.1383,1.2299,1.3224,1.3231,1.3173,1.341,1.3372,1.2924,1.1913,1.1512,1.0602,0.8869,0.7765,0.6853,0.6091,0.5384,0.4842,0.4519,0.4517,0.452,0.4525,0.4525,0.4473,0.4479,0.4473,0.4525,0.4525,0.452,0.4517,0.4517,0.4517,0.4679,0.5003,0.5003,0.5222,0.5662,0.6748,0.7399,0.7827,0.8859,0.9492,0.9913,-0.8125,-0.8025,-0.7956,-0.8125,-0.7854,-0.7665,-0.7819,-0.7709,-0.7679,-0.787,-0.8012,-0.8087,-0.8087,-0.8207,-0.8266,-0.8213,-0.8094,-0.7975,-0.7908,-0.7632,-0.7346,-0.7098,-0.6937,-0.6636,-0.6212,-0.6159,-0.583,-0.5175,0.0,0.0,0.0,-0.2928,-0.2459,-0.1869,0.0,0.0,0.0,0.0,0.0,-0.1892,0.0,-0.1494,-0.0389,-0.0097,-0.0,0.0199,0.1646,0.2393,0.2709,0.2687,0.2866,0.3063,0.2986,0.3299,0.0,0.0,0.0,0.4088,0.0,0.0,0.4234,0.4292,0.0,0.5968,0.0,0.0,0.0,0.8851,0.8971,0.0,0.0,0.0,0.0,0.0,0.0,0.0,0.0,1.1542,0.0,1.2645,1.281,1.2496,1.1516,1.0704,0.9529,0.7827,0.691,0.6147,0.554,0.484,0.4517,0.4517,0.4519,0.4525,0.4479,0.4195,0.4032,0.4039,0.4143,0.4307,0.4479,0.4522,0.4517,0.4517,0.4517,0.4517,0.4517,0.4517,0.4517,0.4627,0.5878,0.6745,0.7334,0.8056,0.8692,0.928,-0.8296,-0.8123,-0.8006,-0.8309,-0.7947,-0.7612,-0.7627,-0.7612,-0.7679,-0.787,-0.8424,-0.8785,-0.8785,0.0,0.0,0.0,-0.8778,-0.8277,-0.7928,-0.7314,-0.6884,-0.6672,-0.6644,-0.6494,-0.6212,-0.6016,-0.5776,-0.5444,0.0,0.0,0.0,0.0,-0.274,-0.2152,-0.2152,0.0,0.0,0.0,-0.194,0.0,-0.2199,-0.2093,0.0,-0.0506,-0.0,0.0031,0.0231,0.1349,0.2703,0.0,0.2843,0.3013,0.0,0.3336,0.3557,0.3258,0.0,0.0,0.0,0.0,0.0,0.0,0.4709,0.0,0.0,0.0,0.5273,0.5075,0.0,0.0,0.0,0.0,0.0,0.0,0.0,0.0,0.7463,0.8169,0.9453,1.1269,1.2268,1.2092,1.0214,0.8813,0.7928,0.772,0.6414,0.5594,0.5485,0.484,0.4517,0.4517,0.4472,0.4477,0.4479,0.3126,0.2454,0.2455,0.2953,0.3626,0.4479,0.4522,0.4517,0.4517,0.4517,0.4517,0.4517,0.4517,0.4517,0.4572,0.5328,0.5649,0.5812,0.6578,0.6904,0.6958,-0.8082,-0.7992,-0.7942,-0.8082,-0.7927,-0.7776,-0.7776,-0.8108,-0.8446,-0.8681,-0.8888,0.0,0.0,0.0,0.0,0.0,0.0,-0.9151,0.0,0.0,0.0,-0.7307,-0.6845,-0.643,-0.6034,-0.5797,-0.538,-0.4809,-0.4309,0.0,0.0,0.0,-0.2546,-0.1978,-0.1978,0.0,-0.1908,0.0,-0.1906,0.0,0.0,0.0,0.0,-0.1158,-0.0453,-0.0,-0.0,0.0504,0.1212,0.0,0.2302,0.0,0.0,0.0,0.0,0.3429,0.0,0.0,0.0,0.0,0.0,0.0,0.0,0.0,0.4444,0.0,0.5099,0.0,0.0,0.0,0.0,0.0,0.0,0.0,0.6475,0.0,0.0,0.0,0.8717,0.0,0.0,0.0,0.9657,0.841,0.7506,0.7077,0.6088,0.5326,0.495,0.4679,0.4517,0.4517,0.4522,0.4244,0.3626,0.301,0.2508,0.2231,0.3347,0.4079,0.4479,0.4522,0.4517,0.4517,0.4517,0.4517,0.4517,0.4517,0.4517,0.4517,0.4787,0.5164,0.554,0.5871,0.6256,0.6588,-0.7899,0.0,-0.7899,-0.787,-0.7848,-0.7879,-0.8042,-0.8489,-0.8999,-0.9484,-0.9679,0.0,-1.0792,-1.039,0.0,0.0,-1.045,-1.0058,0.0,-0.8706,-0.8111,-0.794,-0.7072,-0.6451,-0.6121,-0.5789,-0.5218,-0.441,-0.4064,0.0,0.0,0.0,-0.2415,-0.1913,-0.1913,-0.1936,-0.2003,0.0,-0.1955,-0.2132,-0.2132,-0.2269,-0.2373,-0.1348,-0.0562,-0.0,-0.0,-0.0,0.0101,0.0737,0.139,0.0,0.2478,0.2922,0.3333,0.0,0.0,0.0,0.3375,0.0,0.0,0.0,0.0,0.0,0.0,0.0,0.0,0.0,0.0,0.0,0.0,0.0,0.0,0.0,0.0,0.6016,0.0,0.0,0.0,0.0,0.0,0.0,0.0,0.7587,0.6852,0.6544,0.5687,0.5062,0.4785,0.4625,0.4517,0.4517,0.452,0.4128,0.34,0.3403,0.3238,0.2849,0.397,0.4479,0.4479,0.4522,0.4517,0.4517,0.4517,0.4517,0.4517,0.4517,0.4517,0.4517,0.4517,0.4787,0.5216,0.5216,0.5548,0.6043,-0.7899,-0.7899,0.0,0.0,-0.7702,-0.7807,-0.8397,-0.8555,-0.8985,-1.0027,-1.0954,0.0,0.0,0.0,0.0,0.0,0.0,-1.0825,-1.0024,-0.8869,-0.822,-0.827,-0.7213,-0.662,-0.6669,-0.6147,-0.5499,-0.4691,-0.4167,0.0,0.0,0.0,0.0,0.0,-0.2193,-0.2117,-0.2009,-0.2004,-0.2171,-0.2499,-0.2499,-0.2565,-0.2493,0.0,-0.0032,-0.0,-0.0,0.0,0.0,0.0034,0.0069,0.0,0.0,0.0,0.0,0.0,0.0,0.0,0.0,0.0,0.0,0.3578,0.0,0.0,0.0,0.0,0.3667,0.0,0.0,0.0,0.0,0.0,0.0,0.0,0.0,0.0,0.0,0.0,0.0,0.0,0.0,0.0,0.0,0.5641,0.5535,0.0,0.5082,0.4577,0.5425,0.484,0.4517,0.4517,0.4472,0.4479,0.4479,0.4433,0.444,0.4438,0.4484,0.4479,0.4479,0.4522,0.4517,0.4517,0.4517,0.4517,0.4517,0.4517,0.4517,0.4517,0.4517,0.4519,0.4517,0.4517,0.4572,0.4572,0.0,0.0,0.0,0.0,0.0,-0.786,-0.8639,-0.9505,-1.0318,0.0,-1.1364,0.0,0.0,-1.2395,-1.2223,0.0,0.0,-1.1493,-1.0641,-0.9841,-0.9231,-0.8853,-0.8123,-0.7413,-0.6709,-0.6341,-0.5588,-0.443,-0.4081,0.0,0.0,0.0,0.0,0.0,0.0,-0.2016,0.0,0.0,0.0,0.0,0.0,-0.2464,-0.2636,0.0,-0.1059,-0.0,-0.0,-0.0,0.0,-0.0,-0.0,0.0315,0.2221,0.2457,0.2233,0.3296,0.3588,0.3444,0.0,0.0,0.2944,0.3453,0.0,0.0,0.0,0.0,0.0,0.0,0.0,0.0,0.0,0.0,0.0,0.0,0.0,0.0,0.0,0.0,0.0,0.0,0.0,0.0,0.0,0.0,0.0,0.0,0.518,0.0,0.5483,0.484,0.4517,0.4517,0.452,0.4522,0.4522,0.4472,0.4473,0.4473,0.4524,0.4522,0.4522,0.4519,0.4517,0.4517,0.4517,0.4517,0.4517,0.4517,0.4517,0.4517,0.4517,0.4517,0.4517,0.4517,0.4517,0.4517,-0.7134,0.0,0.0,0.0,0.0,-0.8322,-0.9409,-1.0511,-1.1472,0.0,-1.2359,0.0,-1.3691,0.0,-1.2365,0.0,-1.224,-1.1688,-1.0944,-1.0249,0.0,-0.9408,-0.8549,-0.7884,-0.7428,-0.6804,-0.5913,-0.4733,-0.4316,-0.3683,0.0,0.0,0.0,0.0,0.0,-0.2003,-0.2207,-0.2164,-0.2289,0.0,0.0,-0.2519,0.0,0.0,-0.0471,-0.0,0.0,-0.0,-0.0,-0.0,-0.0,0.0274,0.1829,0.2392,0.2591,0.3383,0.3279,0.2681,0.1475,0.1339,0.0,0.3234,0.3276,0.0,0.3504,0.0,0.2858,0.0,0.0,0.0,0.0,0.0,0.0,0.0,0.0,0.0,0.0,0.18,0.0,0.0,0.0,0.0,0.0,0.0,0.5037,0.587,0.4923,0.0,0.0,0.484,0.4517,0.4517,0.4517,0.4517,0.4517,0.4517,0.4517,0.4517,0.4517,0.4517,0.4517,0.4517,0.4517,0.4517,0.4517,0.4517,0.4517,0.4517,0.4517,0.4517,0.4517,0.4517,0.4517,0.4517,0.4517,0.4517,-0.7442,0.0,0.0,0.0,-0.8106,0.0,0.0,0.0,-1.2361,0.0,-1.3865,-1.4128,-1.4449,-1.3647,-1.2936,-1.2638,-1.2082,-1.1512,-1.0944,-1.0113,0.0,0.0,-0.8543,-0.8062,-0.8621,-0.7438,-0.6379,-0.5502,-0.4833,0.0,0.0,0.0,0.0,0.0,-0.206,0.0,-0.2221,-0.2342,-0.2459,-0.2563,-0.2504,-0.2508,-0.213,0.1314,0.1584,0.0134,0.0034,-0.0,-0.0,-0.0,-0.0,-0.0,-0.0,0.1567,0.345,0.3579,0.2791,0.1608,0.0359,-0.0,0.0537,0.2835,0.2602,0.0,0.0,0.0,0.1515,0.0,0.0,0.0,0.0,0.0,0.0,0.0,0.0,0.0,0.0,0.0,0.0,0.0,0.0,0.0,0.0,0.3593,0.4035,0.5018,0.4424,0.0,0.0,0.484,0.4517,0.4517,0.4517,0.4517,0.4517,0.4517,0.4517,0.4517,0.4517,0.4517,0.4517,0.4517,0.4517,0.4517,0.4517,0.4517,0.4517,0.4517,0.4517,0.4517,0.4517,0.4517,0.4517,0.4517,0.4517,0.4517,-0.8409,-0.8669,-0.9201,0.0,-0.998,-1.0298,0.0,0.0,0.0,0.0,-1.373,-1.3955,-1.4456,-1.4139,-1.3545,-1.2675,-1.2507,0.0,0.0,0.0,0.0,-0.9555,-0.9159,-0.8618,-0.7891,-0.7271,-0.6453,-0.5425,-0.4763,0.0,-0.3392,0.0,0.0,0.0,0.0,0.0,-0.2221,-0.2342,-0.1748,-0.0635,-0.0,0.0268,0.0368,0.0,0.1818,0.1823,0.0471,-0.0,-0.0,-0.0,-0.0,-0.0,-0.0,0.043,0.1274,0.3078,0.3385,0.2697,0.0584,-0.0,0.0134,0.0763,0.1388,0.1653,0.0,0.0,0.0,0.0,0.0,0.0,0.0,0.0,0.0,0.0,0.0,0.0,0.0,0.0,0.0,0.0892,0.0,0.0,0.0,0.3401,0.4185,0.5037,0.4634,0.0,0.0,0.0,0.4517,0.4517,0.4517,0.4517,0.4517,0.4517,0.4517,0.4517,0.4517,0.4517,0.4517,0.4517,0.4517,0.4517,0.4517,0.4517,0.4517,0.4517,0.4517,0.4517,0.4517,0.4517,0.4517,0.4517,0.4517,0.4517,-0.946,-0.9843,0.0,-1.1675,0.0,0.0,-1.2551,-1.2836,0.0,-1.3884,-1.3951,0.0,-1.4529,-1.4355,-1.3959,-1.3349,-1.2942,0.0,-1.1406,0.0,0.0,-0.944,-0.892,-0.8404,-0.7865,-0.7138,0.0,-0.5647,-0.4984,0.0,-0.3713,0.0,0.0,0.0,0.0,-0.2104,-0.2111,-0.1569,-0.0356,0.1238,0.171,0.1913,0.0,0.1913,0.2224,0.2577,0.1551,0.0672,-0.0,-0.0,-0.0,-0.0,-0.0,-0.0,0.0286,0.1629,0.2792,0.3066,0.0674,-0.0,-0.0,-0.0,0.0493,0.0851,0.0135,0.1033,0.1662,0.0,-0.1484,-0.291,0.0,0.0,0.0,0.0,0.0,0.0,0.0,0.0,0.0,0.0,0.2114,0.0,0.0,0.3452,0.3973,0.4432,0.4352,0.4453,0.0,0.0,0.4517,0.4517,0.4517,0.4517,0.4517,0.4517,0.4517,0.4517,0.4517,0.4517,0.4517,0.4517,0.4517,0.4517,0.4517,0.4517,0.4517,0.4517,0.4517,0.4517,0.4517,0.4517,0.4517,0.4517,0.4517,0.4517,-1.0549,0.0,0.0,0.0,0.0,0.0,0.0,-1.3569,0.0,-1.418,0.0,-1.4285,-1.4693,-1.4466,-1.4271,-1.4215,-1.3344,-1.2561,-1.1939,-1.0783,-0.9855,-0.9292,-0.8145,-0.7685,-0.7957,-0.6909,-0.6226,-0.5976,-0.5258,-0.4617,0.0,0.0,0.0,0.0,0.0,0.0,0.0,-0.0448,0.1104,0.2698,0.2696,0.2696,0.2698,0.2698,0.2705,0.2717,0.2703,0.1527,-0.0,-0.0,-0.0,-0.0,-0.0,-0.0,-0.0,-0.0,0.1483,0.2658,0.0584,-0.0,-0.0,-0.0,-0.0,-0.0,-0.0,-0.0,-0.0,-0.0,-0.0853,-0.1546,-0.1546,0.0,0.0,0.0,0.0,0.0,0.0,0.0,0.0,0.0,0.0,0.0,0.0,0.3593,0.3655,0.3609,0.3863,0.4036,0.0,0.0,0.4498,0.4517,0.4517,0.4517,0.4517,0.4517,0.4517,0.4517,0.4517,0.4517,0.4517,0.4517,0.4517,0.4517,0.4517,0.4517,0.4517,0.4517,0.4517,0.4517,0.4517,0.4517,0.4517,0.4517,0.4517,0.4517,-1.1486,0.0,0.0,0.0,0.0,-1.3409,-1.4245,-1.4133,-1.3961,-1.4027,-1.3857,-1.4019,-1.4854,-1.4866,-1.462,-1.422,-1.3776,0.0,0.0,0.0,0.0,-0.8537,-0.7287,-0.6695,-0.6802,-0.5883,-0.5587,-0.5911,-0.4958,-0.4451,-0.4315,0.0,0.0,0.0,0.0,0.0,-0.0324,0.043,0.0,0.2698,0.2688,0.269,0.2698,0.2698,0.2705,0.2696,0.2713,0.1542,-0.0,-0.0,-0.0,-0.0,-0.0,-0.0,-0.0,-0.0,0.0315,0.0539,0.0135,-0.0,-0.0,-0.0,-0.0,-0.0,-0.0,-0.0,-0.0,-0.0,-0.018,-0.0315,-0.0317,0.0,0.0,0.0,0.0,0.0,0.0,0.0,0.0,0.0,0.0,0.2427,0.0,0.3672,0.3813,0.3754,0.3919,0.0,0.0,0.0,0.4339,0.0,0.4517,0.4517,0.0,0.0,0.4517,0.4517,0.4517,0.4517,0.4517,0.4517,0.4517,0.4517,0.4517,0.4517,0.4517,0.4517,0.4517,0.4517,0.4517,0.4517,0.4517,0.4517,0.4517,0.4517,-1.2918,0.0,0.0,0.0,0.0,0.0,0.0,-1.4083,-1.4162,-1.3782,-1.3422,-1.3534,-1.4421,-1.4415,-1.4434,-1.4648,-1.3618,-1.2469,-1.1288,-0.96,-0.8149,-0.7145,-0.6266,-0.5707,-0.5512,-0.5345,-0.5257,-0.5226,-0.4804,-0.4525,-0.4372,-0.3453,0.0,-0.289,0.0,-0.1517,0.0,0.0,0.0,0.2807,0.2838,0.2801,0.2701,0.2714,0.2039,0.0951,-0.015,-0.0743,-0.1026,-0.1664,-0.1454,-0.0834,-0.0213,-0.0,-0.0,-0.0,-0.0,-0.0,-0.0,-0.0,-0.0,-0.0,-0.0,-0.0,-0.0,-0.0,-0.0,-0.0,-0.0,-0.0,-0.0,-0.0,0.0,0.0,0.0,0.0,0.0,0.0,0.0873,0.0,0.0,0.0,0.0,0.0,0.0,0.0,0.0,0.0,0.0,0.0,0.4996,0.0,0.0,0.0,0.5001,0.0,0.4517,0.4517,0.4517,0.4517,0.4517,0.4517,0.4517,0.4517,0.4517,0.4517,0.4517,0.4517,0.4517,0.4517,0.4517,0.4517,0.4517,0.4517,0.4517,0.4517,0.0,-1.3974,0.0,0.0,-1.2902,-1.2902,-1.2902,-1.3482,-1.38,-1.3485,-1.3118,-1.3047,-1.3452,-1.376,-1.3927,-1.3927,-1.3228,-1.1808,-0.9492,-0.8405,-0.7166,-0.5593,-0.5084,-0.4728,-0.4485,-0.4778,-0.4846,-0.4716,-0.4701,-0.4665,0.0,-0.3694,-0.3145,-0.2861,0.0,0.0,0.0,0.0,0.1525,0.2924,0.2924,0.2849,0.2663,0.2226,0.0757,-0.1293,-0.2987,-0.2992,-0.2318,-0.3286,-0.297,-0.2024,-0.1058,-0.0581,-0.0313,-0.009,-0.0,-0.0,-0.0,-0.0,-0.0,-0.0,-0.0,-0.0,-0.0,-0.0,-0.0,-0.0,-0.0,-0.0,-0.0,-0.0,0.0,0.0,0.0,0.0,0.0,0.0,0.0,0.0,0.0,0.0,0.3581,0.0,0.0,0.0,0.0,0.0,0.5717,0.0,0.0,0.0,0.0,0.5271,0.5271,0.0,0.4517,0.4517,0.4517,0.4517,0.4517,0.4517,0.4517,0.4517,0.4517,0.4517,0.4517,0.4517,0.4517,0.4517,0.4517,0.4517,0.4517,0.4517,0.4517,0.4517,0.0,0.0,0.0,0.0,0.0,-1.192,-1.192,-1.1987,-1.233,-1.311,-1.3179,-1.2769,-1.1698,-1.3294,-1.3266,-1.0385,-1.2665,-1.1714,-0.5648,-0.719,-0.6997,-0.4026,-0.3749,-0.3791,-0.4058,-0.3878,-0.4179,0.0,0.0,-0.4702,0.0,-0.3909,-0.3093,-0.2722,-0.2879,0.0,0.0,-0.0506,0.1013,0.3053,0.2814,0.2735,0.2497,0.0621,-0.1443,-0.3335,-0.3515,-0.3518,-0.3453,-0.3557,-0.3519,-0.3395,-0.3279,-0.2506,-0.1428,-0.0313,-0.0,-0.0,-0.0,-0.0,-0.0,-0.0,-0.0,-0.0,-0.0,-0.0,-0.0,-0.0,-0.0,-0.0,-0.0,-0.0,0.0735,0.0,0.0,0.0,0.0,0.0,0.2143,0.3463,0.0,0.0,0.0,0.358,0.0,0.0,0.4351,0.4571,0.5171,0.5018,0.0,0.5584,0.495,0.457,0.457,0.4517,0.4517,0.4517,0.4517,0.4517,0.4517,0.4517,0.4517,0.4517,0.4517,0.4517,0.4517,0.4517,0.4517,0.4517,0.4517,0.4517,0.4517,0.4517,0.4517,0.4517,0.0,0.0,0.0,0.0,0.0,0.0,0.0,-0.9773,-0.9072,-0.9435,-1.0555,-1.0458,-0.814,-0.7859,-0.7491,-0.6673,-0.6709,-0.563,-0.2967,-0.338,-0.3199,-0.2077,-0.2384,-0.284,-0.3388,-0.3852,-0.4148,0.0,0.0,0.0,-0.4523,-0.3904,-0.3352,-0.2952,0.0,-0.2363,-0.1017,-0.1173,0.0125,0.2376,0.3,0.2293,0.0612,-0.1511,-0.2833,-0.3591,-0.3607,-0.3585,-0.3594,-0.3605,-0.3588,-0.3595,-0.3612,-0.3268,-0.2771,-0.2287,-0.1119,-0.0,-0.0,-0.0,-0.0,-0.0,-0.0,-0.0,-0.0,-0.0,-0.0,-0.0,-0.0,-0.0,-0.0,0.1205,0.2469,0.3428,0.0,0.0,0.0,0.0,0.0,0.3542,0.0,0.358,0.0,0.0,0.0,0.0,0.0,0.4426,0.5561,0.5242,0.0,0.6133,0.0,0.5111,0.5111,0.4679,0.4517,0.4517,0.4517,0.4517,0.4517,0.4517,0.4517,0.4517,0.4517,0.4517,0.4517,0.4517,0.4517,0.4517,0.4517,0.4517,0.4517,0.4517,0.4517,0.4517,-1.2545,0.0,-1.1207,0.0,-0.9341,-0.9341,-0.9341,-0.7998,-0.6979,-0.6979,-0.768,-0.736,-0.5261,-0.2207,-0.0951,-0.2422,-0.0439,0.0743,0.0251,0.0503,0.0377,-0.0167,-0.1127,0.0,-0.306,-0.3752,-0.4011,-0.3937,-0.4165,0.0,-0.4259,-0.3933,-0.3577,-0.3159,-0.3273,-0.2706,-0.1711,-0.2164,-0.1361,0.0299,0.1154,0.0555,-0.1025,-0.2876,-0.359,-0.358,-0.358,-0.358,-0.358,-0.358,-0.358,-0.358,-0.358,-0.358,-0.3583,-0.3598,-0.2151,-0.0447,-0.009,-0.0,-0.0,-0.0,-0.0,-0.0,-0.0,-0.0,-0.0,-0.0,-0.0,0.0225,0.0943,0.2443,0.3595,0.3577,0.0,0.0,0.0,0.3592,0.0,0.3581,0.358,0.358,0.358,0.358,0.0,0.0,0.0,0.4255,0.5663,0.5291,0.0,0.0,0.0,0.0,0.5218,0.4734,0.4517,0.4517,0.4517,0.4517,0.4517,0.4517,0.4517,0.4517,0.4517,0.4517,0.4517,0.4517,0.4517,0.4517,0.4517,0.4517,0.4517,0.4517,0.4517,0.4517,-1.1349,-0.9762,-0.8477,-0.7271,-0.7021,-0.7021,-0.7021,-0.7021,-0.6979,-0.6979,-0.5046,-0.3665,-0.3622,0.2675,0.5601,0.2499,0.5087,0.6157,0.4432,0.3818,0.2924,0.0,0.0,-0.1675,-0.3262,-0.3318,-0.3592,-0.4207,0.0,0.0,-0.4886,-0.4132,-0.3606,-0.3279,-0.3281,-0.3415,-0.3566,-0.3567,-0.3567,-0.3519,-0.3519,-0.2827,-0.1917,-0.3126,-0.3578,-0.358,-0.358,-0.358,-0.358,-0.358,-0.358,-0.358,-0.358,-0.358,-0.358,-0.358,-0.2725,-0.1518,-0.0313,-0.0,-0.0,-0.0,-0.0,-0.0,-0.0,-0.0,-0.0,-0.0,-0.0,0.0719,0.3111,0.3571,0.3609,0.3585,0.0,0.0,0.0,0.358,0.0,0.358,0.358,0.358,0.358,0.358,0.0,0.0,0.0,0.4184,0.5082,0.5001,0.0,0.5475,0.484,0.0,0.4519,0.4517,0.4517,0.4517,0.4517,0.4517,0.4517,0.4517,0.4517,0.4517,0.4517,0.4517,0.4517,0.4517,0.4517,0.4517,0.4517,0.4517,0.4517,0.4517,0.4517,0.4517,-1.2201,-1.0383,-0.8427,-0.7231,-0.7695,-0.824,-0.824,-0.7545,-0.6462,-0.4874,-0.4058,-0.2679,-0.0179,0.3541,0.5454,0.0,0.5978,0.6453,0.0,0.3751,0.2459,0.1349,-0.0521,-0.2124,-0.3483,-0.3485,-0.3594,-0.3806,0.0,0.0,0.0,-0.3755,-0.3591,-0.3468,-0.2933,-0.2733,-0.2772,-0.2505,-0.2373,-0.2463,-0.3282,-0.3366,-0.3083,-0.3445,-0.358,-0.358,-0.358,-0.358,-0.358,-0.358,-0.358,-0.358,-0.358,-0.358,-0.3581,-0.3588,-0.332,-0.2598,-0.0538,-0.0,-0.0,-0.0,-0.0,-0.0,-0.0,-0.0,-0.0,-0.0,0.1303,0.2702,0.3476,0.3602,0.3588,0.3581,0.358,0.0,0.358,0.0,0.358,0.358,0.358,0.3619,0.3714,0.3724,0.0,0.0,0.0,0.4065,0.4357,0.0,0.0,0.0,0.4625,0.0,0.5164,0.4734,0.4954,0.5934,0.4954,0.4517,0.4517,0.4517,0.4517,0.4517,0.4517,0.4517,0.4517,0.4517,0.4517,0.4517,0.4517,0.4517,0.4517,0.4517,0.4517,0.4517,-1.1086,-0.9976,-0.8571,-0.7822,-0.831,-0.8808,-0.8808,-0.7261,-0.5562,-0.41,-0.3961,-0.2634,0.0736,0.3243,0.0,0.5246,0.6099,0.6176,0.5145,0.348,0.1803,0.0177,-0.1325,-0.288,-0.4422,-0.4324,0.0,-0.4228,-0.4228,-0.4142,-0.388,-0.388,-0.3796,-0.358,-0.3078,-0.2854,-0.2814,-0.2593,-0.2458,-0.2545,-0.3315,-0.3587,-0.358,-0.358,-0.358,-0.358,-0.358,-0.358,-0.358,-0.358,-0.358,-0.358,-0.358,-0.358,-0.3581,-0.3588,-0.3597,-0.3286,-0.1752,-0.0674,-0.0,-0.0,-0.0,-0.0,-0.0,-0.0,0.027,0.1168,0.2565,0.361,0.3602,0.359,0.358,0.358,0.358,0.358,0.358,0.0,0.358,0.0,0.0,0.0,0.0,0.3744,0.3758,0.0,0.0,0.0,0.0,0.0,0.4314,0.4512,0.4517,0.4679,0.5109,0.4948,0.533,0.6202,0.5553,0.5171,0.4895,0.4895,0.4734,0.4517,0.4517,0.4517,0.4517,0.4517,0.4517,0.4517,0.4517,0.4517,0.4517,0.4517,0.4517,0.4517,-0.8265,-0.848,-0.848,0.0,-0.848,-0.848,-0.848,-0.6199,-0.4517,-0.4517,-0.4517,-0.3457,-0.0616,0.1899,0.3848,0.5061,0.0,0.0,0.4502,0.3002,0.0966,-0.172,-0.2506,-0.3832,-0.5886,-0.5499,-0.5305,-0.5305,-0.5305,-0.4998,-0.4476,-0.4432,-0.4134,-0.3667,-0.3622,-0.3585,-0.3595,-0.3595,-0.359,-0.358,-0.358,-0.358,-0.358,-0.358,-0.3585,-0.3593,-0.3583,-0.3587,-0.3593,-0.3593,-0.3593,-0.3595,-0.3609,-0.3604,-0.3595,-0.3491,-0.3551,-0.3569,-0.3387,-0.1708,-0.0,-0.0,-0.0,-0.0,-0.0,0.0135,0.0898,0.3157,0.3612,0.3605,0.3583,0.358,0.358,0.358,0.358,0.358,0.358,0.358,0.358,0.0,0.0,0.0,0.3793,0.3687,0.3724,0.0,0.0,0.0,0.0,0.0,0.4324,0.4513,0.4517,0.4513,0.4556,0.516,0.5431,0.5485,0.631,0.6256,0.5485,0.5485,0.5109,0.4517,0.4517,0.4517,0.4517,0.4517,0.4517,0.4517,0.4517,0.4517,0.4517,0.4517,0.4517,0.4517,0.0,0.0,-0.5496,-0.5496,-0.5496,-0.5496,-0.5496,-0.4954,-0.4517,-0.4517,-0.4517,-0.4237,-0.3512,-0.0868,0.1713,0.3819,0.4868,0.4482,0.2156,0.1092,-0.0521,-0.2962,-0.4127,-0.5105,-0.6016,-0.5556,-0.5305,-0.5305,-0.5305,-0.5219,-0.5087,-0.4607,-0.4347,-0.4178,-0.3794,-0.3581,-0.3583,-0.3583,-0.3581,-0.358,-0.358,-0.358,-0.358,-0.358,-0.3648,-0.3727,-0.3619,-0.3649,-0.3743,-0.3743,-0.3743,-0.3763,-0.3791,-0.3708,-0.3412,-0.2481,-0.2873,-0.3203,-0.1348,-0.0449,-0.0,-0.0,-0.0,-0.0,-0.0,0.1437,0.2929,0.3476,0.36,0.3587,0.3581,0.358,0.358,0.358,0.358,0.358,0.358,0.358,0.358,0.0,0.358,0.3682,0.3941,0.3936,0.3944,0.0,0.0,0.4275,0.4035,0.4289,0.4426,0.4515,0.4517,0.4678,0.5082,0.4835,0.5003,0.5542,0.6797,0.674,0.5485,0.5485,0.5109,0.4517,0.4517,0.4517,0.4517,0.4517,0.4517,0.4517,0.4517,0.4517,0.4517,0.4517,0.4517,0.4517,-0.4789,-0.4517,-0.4517,-0.4517,-0.4517,-0.4517,-0.4517,-0.4517,-0.4517,-0.4517,-0.4517,-0.4517,-0.4517,-0.3016,-0.1536,-0.0209,0.1609,0.1774,-0.0418,-0.2212,-0.4014,-0.5807,-0.6424,-0.6891,-0.7266,-0.7196,-0.7077,-0.6953,-0.6654,-0.6344,-0.6112,-0.5365,-0.487,-0.46,-0.3913,-0.358,-0.3583,-0.3649,-0.3676,-0.3682,-0.3753,-0.378,-0.378,-0.378,-0.3827,-0.3887,-0.3809,-0.3829,-0.3895,-0.3895,-0.3895,-0.3912,-0.3906,-0.3381,-0.2776,-0.2672,-0.2313,-0.1662,-0.0359,-0.0,-0.0,-0.0,-0.0,-0.0,-0.0,0.1033,0.225,0.3385,0.36,0.3587,0.3581,0.358,0.358,0.358,0.358,0.358,0.358,0.358,0.358,0.358,0.358,0.3668,0.3894,0.3856,0.3904,0.4058,0.4209,0.0,0.4222,0.4375,0.4517,0.4517,0.4517,0.4641,0.4927,0.4961,0.533,0.6036,0.6799,0.6578,0.5485,0.5485,0.5109,0.4517,0.4517,0.4517,0.4517,0.4517,0.4517,0.4517,0.4517,0.4517,0.4517,0.4517,0.4517,0.4517,-0.4844,-0.4517,-0.4517,-0.4517,-0.4517,-0.4517,-0.4517,-0.4517,-0.4517,-0.4517,-0.4517,-0.4517,-0.4517,-0.4479,-0.4496,-0.4506,-0.2542,-0.1821,-0.2989,-0.5612,-0.7657,-0.8701,-0.8645,-0.8754,-0.901,-0.9257,-0.9217,-0.8881,-0.8341,-0.7777,-0.7191,-0.634,-0.5592,-0.5025,-0.4195,-0.3779,-0.3654,-0.3775,-0.3826,-0.3838,-0.3966,-0.4019,-0.4019,-0.4019,-0.4034,-0.4051,-0.4029,-0.4034,-0.4055,-0.4055,-0.4055,-0.4009,-0.3991,-0.3007,-0.208,-0.3269,-0.1892,-0.0,-0.0,-0.0,-0.0,-0.0,-0.0,-0.0,-0.0,-0.0,0.0583,0.2654,0.3237,0.3455,0.3581,0.358,0.358,0.358,0.3598,0.3605,0.3583,0.0,0.3605,0.3581,0.358,0.3636,0.3777,0.3682,0.377,0.4098,0.403,0.4119,0.4403,0.4436,0.445,0.445,0.4494,0.4517,0.4517,0.514,0.5788,0.6423,0.6534,0.6202,0.5485,0.5485,0.5109,0.4517,0.4517,0.4517,0.4517,0.4517,0.4517,0.4517,0.4517,0.4517,0.4517,0.4517,0.4517,0.4517,-0.5007,-0.4517,-0.4517,-0.4517,-0.4517,-0.4517,-0.4517,-0.4517,-0.4517,-0.4517,-0.4517,-0.4517,-0.4517,-0.452,-0.4524,-0.4525,-0.52,-0.5468,-0.514,-0.6889,-0.8203,-0.8822,-0.9365,-0.9934,-1.0475,-1.0032,-0.9505,-0.8881,-0.8792,-0.8425,-0.7783,-0.7151,-0.6501,-0.5825,-0.5165,-0.4527,-0.3953,-0.3975,-0.3985,-0.3987,-0.4011,-0.4019,-0.4019,-0.4019,-0.405,-0.4143,-0.4065,-0.4051,-0.416,-0.416,-0.416,-0.4184,-0.4368,-0.3341,-0.2314,-0.3332,-0.19,-0.0,-0.0,-0.0,-0.0,-0.0,-0.0,-0.0,-0.0,-0.0,0.0089,0.0492,0.165,0.2808,0.3488,0.358,0.358,0.358,0.368,0.3717,0.3598,0.0,0.3714,0.3593,0.358,0.3636,0.3777,0.3771,0.3788,0.3856,0.396,0.3983,0.39,0.4019,0.4089,0.4089,0.4331,0.4517,0.4517,0.5028,0.5447,0.5651,0.631,0.6202,0.5485,0.5485,0.5109,0.4517,0.4517,0.4517,0.4517,0.4517,0.4517,0.4517,0.4517,0.4517,0.4517,0.4517,0.4517,0.4517,-0.6258,-0.5226,-0.4517,-0.4517,-0.4517,-0.4517,-0.4517,-0.4517,-0.4517,-0.4517,-0.4517,-0.4517,-0.4517,-0.5875,-0.647,-0.5716,-0.6225,-0.6638,-0.6734,-0.7781,-0.8792,-0.9546,-1.025,-1.0879,-1.1547,-1.0921,-1.036,-0.9934,-0.9551,-0.9026,-0.835,-0.7629,-0.7156,-0.6748,-0.5632,-0.4896,-0.4563,-0.4258,-0.4092,-0.4098,-0.4226,-0.4258,-0.4258,-0.4258,-0.4302,-0.4353,-0.4284,-0.4304,-0.4363,-0.4363,-0.4363,-0.4377,-0.4455,-0.4039,-0.3219,-0.202,-0.0896,-0.0,-0.0,-0.0,-0.0,-0.0,-0.0,-0.0,-0.0,-0.0,-0.0,-0.0,0.1116,0.2408,0.3406,0.3648,0.3695,0.3695,0.3817,0.3863,0.3714,0.3751,0.3739,0.3598,0.358,0.3607,0.3671,0.3676,0.3709,0.3787,0.3856,0.3902,0.3914,0.3982,0.4019,0.4019,0.4153,0.43,0.4515,0.4634,0.4792,0.4948,0.5279,0.5279,0.4948,0.4948,0.4787,0.4517,0.4517,0.4517,0.4517,0.4517,0.4517,0.4517,0.4517,0.4517,0.4517,0.4517,0.4517,0.4517,-0.675,-0.5498,-0.4572,-0.4789,-0.4625,-0.4572,-0.4789,-0.4625,-0.4517,-0.4517,-0.506,-0.5494,-0.5494,-0.7501,-0.8265,-0.6912,-0.6966,-0.734,-0.7871,-0.859,-0.9362,-1.0323,-1.1138,-1.1832,-1.2331,-1.1879,-1.1328,-1.0813,-1.0265,-0.9614,-0.8801,-0.8094,-0.7629,-0.7258,-0.6,-0.5275,-0.4932,-0.4454,-0.4246,-0.4307,-0.4418,-0.4517,-0.4517,-0.4517,-0.4517,-0.4517,-0.4517,-0.4517,-0.4517,-0.4517,-0.4517,-0.4519,-0.4472,-0.4477,-0.4027,-0.1728,-0.0539,-0.0,-0.0,-0.0,-0.0,-0.0,-0.0,-0.0,-0.0,-0.0,-0.0,-0.0,0.0716,0.1831,0.3326,0.3663,0.3787,0.3797,0.0,0.3909,0.3768,0.377,0.3739,0.3598,0.358,0.358,0.358,0.358,0.3626,0.3732,0.3743,0.3793,0.391,0.3917,0.3933,0.3965,0.4,0.4144,0.4411,0.4304,0.4319,0.4517,0.4517,0.4517,0.4517,0.4517,0.4517,0.4517,0.4517,0.4517,0.4517,0.4517,0.4517,0.4517,0.4517,0.4517,0.4517,0.4517,0.4517,0.4517,-0.5062,-0.4572,-0.4787,-0.5649,-0.5056,-0.4789,-0.5651,-0.5058,-0.4517,-0.4517,-0.6851,-0.848,-0.848,-0.8695,-0.8427,-0.7402,-0.8159,-0.8626,-0.8633,-0.9329,-1.0049,-1.073,-1.2056,-1.2783,-1.2832,-1.2783,-1.2124,-1.0813,-1.0762,-1.0068,-0.8808,-0.8732,-0.7966,-0.6671,-0.6548,-0.5781,-0.4539,-0.4496,-0.4501,-0.4503,-0.4513,-0.4517,-0.4517,-0.4517,-0.4517,-0.4517,-0.4517,-0.4517,-0.4517,-0.4517,-0.4517,-0.4517,-0.4519,-0.4525,-0.4479,-0.4252,-0.2169,-0.0,-0.0,-0.0,-0.0,-0.0,-0.0,-0.0,-0.0,-0.0,-0.0,-0.0,0.009,0.085,0.3154,0.3587,0.3676,0.3851,0.0,0.0,0.3636,0.3709,0.3739,0.3598,0.358,0.358,0.358,0.358,0.3583,0.3593,0.3595,0.3602,0.3612,0.3612,0.3673,0.3804,0.3946,0.4048,0.4209,0.42,0.4319,0.4517,0.4517,0.4517,0.4517,0.4517,0.4517,0.4517,0.4517,0.4517,0.4517,0.4517,0.4517,0.4517,0.4517,0.4517,0.4517,0.4517,0.4517,0.4517,-0.6315,-0.6041,-0.6041,-0.6691,-0.6258,-0.5934,-0.6256,-0.6039,-0.615,-0.7066,-0.8096,-0.8808,-0.8808,-0.8808,-0.8646,-0.8318,-0.859,-0.8801,-0.8781,-0.9047,-0.9666,-1.0762,-1.1329,-1.1588,-1.1588,-1.1588,-1.1128,-1.0163,-1.0163,-0.9714,-0.8808,-0.8808,-0.8265,-0.7235,-0.6802,-0.6041,-0.5111,-0.468,-0.4517,-0.4517,-0.4517,-0.4517,-0.4517,-0.4517,-0.4517,-0.4517,-0.4517,-0.4517,-0.4517,-0.4517,-0.4517,-0.4517,-0.4517,-0.452,-0.4525,-0.4477,-0.3014,-0.1168,-0.0275,-0.0,-0.0,-0.0,-0.0,-0.0,-0.0,-0.0,-0.0,-0.0,-0.0,0.0268,0.1209,0.1991,0.2601,0.2928,0.0,0.3862,0.3741,0.3758,0.3739,0.3598,0.358,0.358,0.358,0.358,0.358,0.358,0.358,0.358,0.358,0.358,0.3605,0.3659,0.3717,0.3863,0.4053,0.4055,0.4182,0.4329,0.4419,0.4517,0.4517,0.4517,0.4517,0.4517,0.4517,0.4517,0.4517,0.4517,0.4517,0.4517,0.4517,0.4517,0.4517,0.4517,0.4517,0.4517,-0.7292,-0.6969,-0.6858,-0.7673,-0.7128,-0.675,-0.7235,-0.7289,-0.7667,-0.8646,-0.8808,-0.8808,-0.8808,-0.8808,-0.8808,-0.8808,-0.8808,-0.891,-0.911,-0.911,-0.9514,-1.0466,-1.0868,-1.1015,-1.0813,-1.0813,-1.0462,-0.9814,-0.9814,-0.9462,-0.8808,-0.8808,-0.8427,-0.767,-0.6912,-0.6199,-0.5431,-0.4787,-0.4517,-0.4517,-0.4517,-0.4517,-0.4517,-0.4517,-0.4517,-0.4517,-0.4517,-0.4517,-0.4517,-0.4517,-0.4517,-0.4517,-0.4517,-0.4517,-0.4519,-0.4475,-0.3744,-0.2679,-0.1675,-0.0727,-0.0,-0.0,-0.0,-0.0,-0.0,-0.0,-0.0,-0.0,-0.0,-0.0,-0.0,0.0694,0.1324,0.1583,0.2844,0.3814,0.3749,0.3724,0.369,0.3592,0.358,0.358,0.358,0.358,0.358,0.358,0.358,0.358,0.358,0.358,0.358,0.358,0.358,0.3676,0.3878,0.3926,0.4024,0.4127,0.4326,0.4394,0.4395,0.4496,0.4517,0.4517,0.4517,0.4517,0.4517,0.4517,0.4517,0.4517,0.4517,0.4517,0.4517,0.4517,0.4517,0.4517,-0.7458,-0.6969,-0.7074,-0.8537,-0.7613,-0.7128,-0.859,-0.8808,-0.8808,-0.8808,-0.8808,-0.8808,-0.8808,-0.8808,-0.8808,-0.8808,-0.8808,-0.9057,-0.9766,-0.9814,-0.9814,-0.9814,-1.1065,-1.1466,-1.0813,-1.0767,-1.0466,-0.9814,-0.9814,-0.9462,-0.8808,-0.8808,-0.8427,-0.767,-0.6912,-0.6202,-0.5433,-0.4789,-0.4517,-0.4517,-0.4517,-0.4517,-0.4517,-0.4517,-0.4517,-0.4517,-0.4517,-0.4517,-0.4517,-0.4517,-0.4517,-0.4517,-0.4517,-0.4517,-0.4519,-0.4475,-0.4479,-0.448,-0.4494,-0.2292,-0.0055,-0.0,-0.0,-0.0,-0.0,-0.0,-0.0,-0.0,-0.0,-0.0,-0.0,-0.0,-0.0,-0.0,0.1992,0.3577,0.3602,0.358,0.358,0.358,0.358,0.358,0.358,0.358,0.358,0.358,0.358,0.358,0.358,0.358,0.358,0.358,0.358,0.358,0.358,0.3721,0.3866,0.4019,0.412,0.4194,0.42,0.4395,0.4515,0.4517,0.4517,0.4517,0.4517,0.4517,0.4517,0.4517,0.4517,0.4517,0.4517,0.4517,0.4517,0.4517,-0.7726,-0.7886,-0.8265,-0.8699,-0.8427,-0.8318,-0.8752,-0.8808,-0.8808,-0.8808,-0.8808,-0.8808,-0.8808,-0.8808,-0.8808,-0.8808,-0.8808,-0.891,-0.9061,-0.9562,-0.9614,-0.911,-0.9462,-0.9614,-0.9413,-0.9413,-0.9312,-0.911,-0.911,-0.9008,-0.8808,-0.8808,-0.8156,-0.6912,-0.6696,-0.5932,-0.4787,-0.457,-0.4517,-0.4517,-0.4517,-0.4517,-0.4517,-0.4517,-0.4517,-0.4517,-0.4517,-0.4517,-0.4517,-0.4517,-0.4517,-0.4517,-0.4517,-0.4517,-0.4517,-0.452,-0.4522,-0.4524,-0.448,-0.3859,-0.2657,-0.0535,-0.0,-0.0,-0.0,-0.0,-0.0,-0.0,-0.0,-0.0,-0.0,-0.0,-0.0,-0.0,0.0587,0.1677,0.336,0.358,0.358,0.358,0.358,0.358,0.358,0.358,0.358,0.358,0.358,0.358,0.358,0.358,0.358,0.358,0.358,0.358,0.358,0.3721,0.3814,0.3861,0.4014,0.4093,0.4197,0.4239,0.4368,0.4517,0.4517,0.4517,0.4517,0.4517,0.4517,0.4517,0.4517,0.4517,0.4517,0.4517,0.4517,0.4517,-0.9016,-0.9291,-0.9566,-0.9361,-0.9361,-0.9465,-0.9821,-0.9566,-0.9312,-0.9211,-0.8959,-0.8808,-0.8808,-0.8808,-0.8808,-0.8808,-0.8808,-0.8808,-0.8808,-0.9159,-0.9211,-0.8808,-0.8808,-0.8808,-0.8808,-0.8808,-0.8808,-0.8808,-0.8808,-0.8808,-0.8808,-0.8808,-0.8318,-0.7453,-0.6858,-0.6152,-0.5281,-0.4736,-0.4517,-0.4517,-0.4517,-0.4517,-0.4517,-0.4517,-0.4517,-0.4517,-0.4517,-0.4517,-0.4517,-0.4517,-0.4517,-0.4517,-0.4517,-0.4517,-0.4517,-0.4517,-0.4517,-0.4519,-0.4525,-0.4475,-0.4036,-0.2154,-0.0827,-0.0,-0.0,-0.0,-0.0,-0.0,-0.0,-0.0,-0.0,-0.0,-0.0,-0.0,-0.0,0.0491,0.1964,0.2997,0.3587,0.3587,0.3587,0.3585,0.358,0.358,0.358,0.358,0.358,0.358,0.358,0.358,0.358,0.358,0.358,0.358,0.358,0.3665,0.3709,0.371,0.3858,0.4009,0.4108,0.4167,0.4326,0.4517,0.4517,0.4517,0.4517,0.4517,0.4517,0.4517,0.4517,0.4517,0.4517,0.4517,0.4517,0.4517,-1.0813,-1.0813,-1.0665,-1.0316,-1.0265,-1.0521,-1.1329,-1.0771,-1.0167,-0.9913,-0.9312,-0.891,-0.891,-0.8857,-0.8808,-0.8808,-0.8808,-0.8808,-0.8808,-0.8808,-0.8808,-0.8808,-0.8808,-0.8808,-0.8808,-0.8808,-0.8808,-0.8808,-0.8808,-0.8808,-0.8808,-0.8808,-0.8755,-0.8643,-0.7238,-0.6588,-0.6423,-0.5062,-0.4517,-0.4517,-0.4517,-0.4517,-0.4517,-0.4517,-0.4517,-0.4517,-0.4517,-0.4517,-0.4517,-0.4517,-0.4517,-0.4517,-0.4517,-0.4517,-0.4517,-0.4517,-0.4517,-0.4517,-0.4517,-0.4524,-0.4465,-0.4233,-0.2273,-0.0311,-0.0048,-0.0,-0.0,-0.0,-0.0,-0.0,-0.0,-0.0,-0.0,-0.0,-0.0,-0.0,-0.0,0.1879,0.3323,0.3414,0.3458,0.3455,0.349,0.3578,0.358,0.358,0.358,0.358,0.358,0.358,0.358,0.358,0.358,0.358,0.358,0.358,0.358,0.3581,0.371,0.386,0.4024,0.4112,0.4314,0.4517,0.4517,0.4517,0.4517,0.4517,0.4517,0.4517,0.4517,0.4517,0.4517,0.4517,0.4517,0.4517,-1.0813,-1.0813,-1.0762,-1.0665,-1.0665,-1.0716,-1.0918,-1.0767,-1.0665,-1.0614,-1.0016,-0.9562,-0.9562,-0.911,-0.8808,-0.8808,-0.8808,-0.8808,-0.8808,-0.8808,-0.8808,-0.8808,-0.8808,-0.8808,-0.8808,-0.8808,-0.8808,-0.8808,-0.8808,-0.8808,-0.8808,-0.8808,-0.848,-0.7886,-0.702,-0.6258,-0.5706,-0.4842,-0.4517,-0.4517,-0.4517,-0.4517,-0.4517,-0.4517,-0.4517,-0.4517,-0.4517,-0.4517,-0.4517,-0.4517,-0.4517,-0.4517,-0.4517,-0.4517,-0.4517,-0.4517,-0.4517,-0.4517,-0.4517,-0.4519,-0.4477,-0.4248,-0.362,-0.2495,-0.0461,-0.0,-0.0,-0.0,-0.0,-0.0,-0.0,-0.0,-0.0,-0.0,-0.0,-0.0,-0.0,0.0447,0.1117,0.21,0.2189,0.232,0.2629,0.3216,0.358,0.358,0.358,0.358,0.358,0.358,0.358,0.358,0.358,0.358,0.358,0.358,0.358,0.358,0.3612,0.3765,0.4021,0.4055,0.4212,0.4517,0.4517,0.4517,0.4517,0.4517,0.4517,0.4517,0.4517,0.4517,0.4517,0.4517,0.4517,0.4517,-1.1792,-1.1792,-1.1792,-1.1792,-1.1792,-1.1792,-1.1792,-1.1475,-1.1266,-1.1266,-1.0415,-0.9814,-0.9814,-0.9211,-0.8808,-0.8808,-0.8808,-0.8808,-0.8808,-0.8808,-0.8808,-0.8808,-0.8808,-0.8808,-0.8808,-0.8808,-0.8808,-0.8808,-0.8808,-0.8808,-0.8808,-0.8808,-0.8427,-0.767,-0.6912,-0.6199,-0.5431,-0.4787,-0.4517,-0.4517,-0.4517,-0.4517,-0.4517,-0.4517,-0.4517,-0.4517,-0.4517,-0.4517,-0.4517,-0.4517,-0.4517,-0.4517,-0.4517,-0.4517,-0.4517,-0.4517,-0.4517,-0.4517,-0.4517,-0.4517,-0.4428,-0.4231,-0.4194,-0.365,-0.1591,-0.0544,-0.0,-0.0,-0.0,-0.0,-0.0,-0.0,-0.0,-0.0,-0.0,-0.0,-0.0,-0.0,0.0224,0.085,0.094,0.1476,0.2861,0.3355,0.358,0.358,0.358,0.358,0.358,0.358,0.358,0.358,0.358,0.358,0.358,0.358,0.3614,0.368,0.368,0.38,0.4021,0.4045,0.4251,0.4517,0.4517,0.4517,0.4517,0.4517,0.4517,0.4517,0.4517,0.4517,0.4517,0.4517,0.4517,0.4517,-1.2881,-1.2881,-1.2881,-1.2881,-1.2881,-1.2881,-1.2881,-1.2398,-1.1972,-1.1972,-1.0821,-0.9961,-0.9961,-0.926,-0.8808,-0.8808,-0.8808,-0.8808,-0.8808,-0.8808,-0.8808,-0.8808,-0.8808,-0.8808,-0.8808,-0.8808,-0.8808,-0.8808,-0.8808,-0.8752,-0.859,-0.859,-0.8212,-0.7506,-0.6748,-0.6091,-0.5431,-0.4787,-0.4517,-0.4517,-0.4517,-0.4517,-0.4517,-0.4517,-0.4517,-0.4517,-0.4517,-0.4517,-0.4517,-0.4517,-0.4517,-0.4517,-0.4517,-0.4517,-0.4517,-0.4517,-0.4517,-0.4517,-0.4517,-0.4517,-0.4434,-0.4314,-0.4376,-0.4133,-0.2991,-0.1633,-0.0496,-0.009,-0.0,-0.0,-0.0,-0.0,-0.0,-0.0,-0.0,-0.0,-0.0,-0.0,-0.0,-0.0,-0.0,0.0851,0.3096,0.3494,0.358,0.358,0.358,0.358,0.358,0.358,0.358,0.358,0.358,0.358,0.358,0.3605,0.3675,0.3792,0.3844,0.3936,0.4013,0.4138,0.4326,0.4517,0.4517,0.4517,0.4517,0.4517,0.4517,0.4517,0.4517,0.4517,0.4517,0.4517,0.4517,0.4517,-1.2881,-1.2881,-1.2881,-1.2881,-1.2881,-1.2881,-1.2881,-1.2827,-1.2769,-1.2769,-1.1538,-1.0665,-1.0665,-0.9566,-0.8808,-0.8808,-0.8808,-0.8808,-0.8808,-0.8808,-0.8808,-0.8808,-0.8808,-0.8808,-0.8808,-0.8808,-0.8808,-0.8808,-0.8808,-0.848,-0.7833,-0.7833,-0.7453,-0.6696,-0.598,-0.5594,-0.5431,-0.4787,-0.4517,-0.4517,-0.4517,-0.4517,-0.4517,-0.4517,-0.4517,-0.4517,-0.4517,-0.4517,-0.4517,-0.4517,-0.4517,-0.4517,-0.4517,-0.4517,-0.4517,-0.4517,-0.4517,-0.4517,-0.4517,-0.4517,-0.4512,-0.4493,-0.4339,-0.4185,-0.3984,-0.353,-0.2525,-0.045,-0.0,-0.0,-0.0,-0.0,-0.0,-0.0,-0.0,-0.0,-0.0,-0.0,-0.0,-0.0,-0.0,0.0536,0.192,0.2994,0.358,0.358,0.358,0.358,0.358,0.358,0.358,0.358,0.358,0.358,0.358,0.3702,0.3771,0.3795,0.406,0.4145,0.4165,0.4187,0.4326,0.4517,0.4517,0.4517,0.4517,0.4517,0.4517,0.4517,0.4517,0.4517,0.4517,0.4517,0.4517,0.4517,-1.2881,-1.2881,-1.2881,-1.2881,-1.2881,-1.2881,-1.2881,-1.2881,-1.2881,-1.2881,-1.199,-1.1362,-1.1362,-1.0167,-0.9211,-0.8857,-0.8808,-0.8808,-0.8808,-0.8808,-0.8808,-0.8808,-0.8808,-0.8808,-0.8808,-0.8808,-0.8808,-0.8808,-0.8808,-0.8646,-0.8318,-0.7886,-0.7292,-0.6588,-0.5817,-0.5271,-0.4948,-0.4625,-0.4517,-0.4517,-0.4517,-0.4517,-0.4517,-0.4517,-0.4517,-0.4517,-0.4517,-0.4517,-0.4517,-0.4517,-0.4517,-0.4517,-0.4517,-0.4517,-0.4517,-0.4517,-0.4517,-0.4517,-0.4517,-0.4517,-0.4517,-0.4517,-0.4414,-0.4346,-0.4214,-0.4052,-0.3571,-0.227,-0.0942,-0.0,-0.0,-0.0,-0.0,-0.0,-0.0,-0.0,-0.0,-0.0,-0.0,-0.0,-0.0,0.0492,0.1696,0.2908,0.3587,0.358,0.358,0.358,0.358,0.358,0.358,0.358,0.358,0.3619,0.3698,0.376,0.3877,0.4048,0.4132,0.4195,0.4199,0.4331,0.4402,0.4517,0.4517,0.4517,0.4517,0.4517,0.4517,0.4517,0.4517,0.4517,0.4517,0.4517,0.4517,0.4517]},{"header":{"parameterUnit":"m.s-1","parameterCategory":1,"la1":30.6,"la2":28.766,"lo1":-90.7593,"lo2":-88.6598,"dy":0.0162,"dx":0.0183,"nx":116,"ny":114,"refTime":"2024-07-10T06:00:00:Z","depth":0,"parameterNumber":3,"parameterNumberName":"V-component_of_WINDS"},"data":[0.0,0.0,0.0,0.0,0.0,0.0,0.0,0.0,0.0,0.0,0.0,0.0,0.0,0.0,0.0,0.0,0.0,0.0,0.0,0.0,0.0,0.0,0.0,0.0,0.0,0.0,0.0,0.0,0.0,0.0,0.0,0.0,0.0,0.0,0.0,0.0,0.0,0.0,0.0,0.0,0.0,0.0,0.0,0.0,0.0,0.0,0.0,0.0,0.0,0.0,0.0,0.0,0.0,0.0,0.0,0.0,0.0,0.0,0.0,0.0,0.0,0.0,0.0,0.0,0.0,0.0,0.0,0.0,0.0,0.0,0.0,0.0,0.0,0.0,0.0,0.0,0.0,0.0,0.0,0.0,0.0,0.0,0.0,0.0,0.0,0.0,0.0,0.0,0.0,0.0,0.0,0.0,0.0,0.0,0.0,0.0,0.0,0.0,0.0,0.0,0.0,0.0,0.0,0.0,0.0,0.0,0.0,0.0,0.0,0.0,0.0,0.0,0.0,0.0,0.0,0.0,0.0,0.0,0.0,0.0,0.0,0.0,0.0,0.0,0.0,0.0,0.0,0.0,0.0,0.0,0.0,0.0,0.0,0.0,0.0,0.0,0.0,0.0,0.0,0.0,0.0,0.0,0.0,0.0,0.0,0.0,0.0,0.0,0.0,0.0,0.0,0.0,0.0,0.0,0.0,0.0,0.0,0.0,0.0,0.0,0.0,0.0,0.0,0.0,0.0,0.0,0.0,0.0,0.0,0.0,0.0,0.0,0.0,0.0,0.0,0.0,0.0,0.0,0.0,0.0,0.0,0.0,0.0,0.0,0.0,0.0,0.0,0.0,0.0,0.0,0.0,0.0,0.0,0.0,0.0,0.0,0.0,0.0,0.0,0.0,0.0,0.0,0.0,0.0,0.0,0.0,0.0,0.0,0.0,0.0,0.0,0.0,0.0,0.0,0.0,0.0,0.0,0.0,0.0,0.0,0.0,0.0,0.0,0.0,0.0,0.0,0.0,0.0,0.0,0.0,0.0,0.0,0.0,0.0,0.0,0.0,0.0,0.0,0.0,0.0,0.0,0.0,0.0,0.0,0.0,0.0,0.0,0.0,0.0,0.0,0.0,0.0,0.0,0.0,0.0,0.0,0.0,0.0,0.0,0.0,0.0,0.0,0.0,0.0,0.0,0.0,0.0,0.0,0.0,0.0,0.0,0.0,0.0,0.0,0.0,0.0,0.0,0.0,0.0,0.0,0.0,0.0,0.0,0.0,0.0,0.0,0.0,0.0,0.0,0.0,0.0,0.0,0.0,0.0,0.0,0.0,0.0,0.0,0.0,0.0,0.0,0.0,0.0,0.0,0.0,0.0,0.0,0.0,0.0,0.0,0.0,0.0,0.0,0.0,0.0,0.0,0.0,0.0,0.0,0.0,0.0,0.0,0.0,0.0,0.0,0.0,0.0,0.0,0.0,0.0,0.0,0.0,0.0,0.0,0.0,0.0,0.0,0.0,0.0,0.0,0.0,0.0,0.0,0.0,0.0,0.0,0.0,0.0,0.0,0.0,0.0,0.0,0.0,0.0,0.0,0.0,0.0,0.0,0.0,0.0,0.0,0.0,0.0,0.0,0.0,0.0,0.0,0.0,0.0,0.0,0.0,0.0,0.0,0.0,0.0,0.0,0.0,0.0,0.0,0.0,0.0,0.0,0.0,0.0,0.0,0.0,0.0,0.0,0.0,0.0,0.0,0.0,0.0,0.0,0.0,0.0,0.0,0.0,0.0,0.0,0.0,0.0,0.0,0.0,0.0,0.0,0.0,0.0,0.0,0.0,0.0,0.0,0.0,0.0,0.0,0.0,0.0,0.0,0.0,0.0,0.0,0.0,0.0,0.0,0.0,0.0,0.0,0.0,0.0,0.0,0.0,0.0,0.0,0.0,0.0,0.0,0.0,0.0,0.0,0.0,0.0,0.0,0.0,0.0,0.0,0.0,0.0,0.0,0.0,0.0,0.0,0.0,0.0,0.0,0.0,0.0,0.0,0.0,0.0,0.0,0.0,0.0,0.0,0.0,0.0,0.0,0.0,0.0,0.0,0.0,0.0,0.0,0.0,0.0,0.0,0.0,0.0,0.0,0.0,0.0,0.0,0.0,0.0,0.0,0.0,0.0,0.0,0.0,0.0,0.0,0.0,0.0,0.0,0.0,0.0,0.0,0.0,0.0,0.0,0.0,0.0,0.0,0.0,0.0,0.0,0.0,0.0,0.0,0.0,0.0,0.0,0.0,0.0,0.0,0.0,0.0,0.0,0.0,0.0,0.0,0.0,0.0,0.0,0.0,0.0,0.0,0.0,0.0,0.0,0.0,0.0,0.0,0.0,0.0,0.0,0.0,0.0,0.0,0.0,0.0,0.0,0.0,0.0,0.0,0.0,0.0,0.0,0.0,0.0,0.0,0.0,0.0,0.0,0.0,0.0,0.0,0.0,0.0,0.0,0.0,0.0,0.0,0.0,0.0,0.0,0.0,0.0,0.0,0.0,0.0,0.0,0.0,0.0,0.0,0.0,0.0,0.0,0.0,0.0,0.0,0.0,0.0,0.0,0.0,0.0,0.0,0.0,0.0,0.0,0.0,0.0,0.0,0.0,0.0,0.0,0.0,0.0,0.0,0.0,0.0,0.0,0.0,0.0,0.0,0.0,0.0,0.0,0.0,0.0,0.0,0.0,0.0,0.0,0.0,0.0,0.0,0.0,0.0,0.0,0.0,0.0,0.0,0.0,0.0,0.0,0.0,0.0,0.0,0.0,0.0,0.0,0.0,0.0,0.0,0.0,0.0,0.0,0.0,0.0,0.0,0.0,0.0,0.0,0.0,0.0,0.0,0.0,0.0,0.0,0.0,0.0,0.0,0.0,0.0,0.0,0.0,0.0,0.0,0.0,0.0,0.0,0.0,0.0,0.0,0.0,0.0,0.0,0.0,0.0,0.0,0.0,0.0,0.0,0.0,0.0,0.0,0.0,0.0,0.0,0.0,0.0,0.0,0.0,0.0,0.0,0.0,0.0,0.0,0.0,0.0,0.0,0.0,0.0,0.0,0.0,0.0,0.0,0.0,0.0,0.0,0.0,0.0,0.0,0.0,0.0,0.0,0.0,0.0,0.0,0.0,0.0,0.0,0.0,0.0,0.0,0.0,0.0,0.0,0.0,0.0,0.0,0.0,0.0,0.0,0.0,0.0,0.0,0.0,0.0,0.0,0.0,0.0,0.0,0.0,0.0,0.0,0.0,0.0,0.0,0.0,0.0,0.0,0.0,0.0,0.0,0.0,0.0,0.0,0.0,0.0,0.0,0.0,0.0,0.0,0.0,0.0,0.0,0.0,0.0,0.0,0.0,0.0,0.0,0.0,0.0,0.0,0.0,0.0,0.0,0.0,0.0,0.0,0.0,0.0,0.0,0.0,0.0,0.0,0.0,0.0,0.0,0.0,0.0,0.0,0.0,0.0,0.0,0.0,0.0,0.0,0.0,0.0,0.0,0.0,0.0,0.0,0.0,0.0,0.0,0.0,0.0,0.0,0.0,0.0,0.0,0.0,0.0,0.0,0.0,0.0,0.0,0.0,0.0,0.0,0.0,0.0,0.0,0.0,0.0,0.0,0.0,0.0,0.0,0.0,0.0,0.0,0.0,0.0,0.0,0.0,0.0,0.0,0.0,0.0,0.0,0.0,0.0,0.0,0.0,0.0,0.0,0.0,0.0,0.0,0.0,0.0,0.0,0.0,0.0,0.0,0.0,0.0,0.0,0.0,0.0,0.0,0.0,0.0,0.0,0.0,0.0,0.0,0.0,0.0,0.0,0.0,0.0,0.0,0.0,0.0,0.0,0.0,0.0,0.0,0.0,0.0,0.0,0.0,0.0,0.0,0.0,0.0,0.0,0.0,0.0,0.0,0.0,0.0,0.0,0.0,0.0,0.0,0.0,0.0,0.0,0.0,0.0,0.0,0.0,0.0,0.0,0.0,0.0,0.0,0.0,0.0,0.0,0.0,0.0,0.0,0.0,0.0,0.0,0.0,0.0,0.0,0.0,0.0,0.0,0.0,0.0,0.0,0.0,0.0,0.0,0.0,0.0,0.0,0.0,0.0,0.0,0.0,0.0,0.0,0.0,0.0,0.0,0.0,0.0,0.0,0.0,0.0,0.0,0.0,0.0,0.0,0.0,0.0,0.0,0.0,0.0,0.0,0.0,0.0,0.0,0.0,0.0,0.0,0.0,0.0,0.0,0.0,0.0,0.0,0.0,0.0,0.0,0.0,0.0,0.0,0.0,0.0,0.0,0.0,0.0,0.0,0.0,0.0,0.0,0.0,0.0,0.0,0.0,0.0,0.0,0.0,0.0,0.0,0.0,0.0,0.0,0.0,0.0,0.0,0.0,0.0,0.0,0.0,0.0,0.0,0.0,0.0,0.0,0.0,0.0,0.0,0.0,0.0,0.0,0.0,0.0,0.0,0.0,0.0,0.0,0.0,0.0,0.0,0.0,0.0,0.0,0.0,0.0,0.0,0.0,0.0,0.0,0.0,0.0,0.0,0.0,0.0,0.0,0.0,0.0,0.0,0.0,0.0,0.0,0.0,0.0,0.0,0.0,0.0,0.0,0.0,0.0,0.0,0.0,0.0,0.0,0.0,0.0,0.0,0.0,0.0,0.0,0.0,0.0,0.0,0.0,0.0,0.0,0.0,0.0,0.0,0.0,0.0,0.0,0.0,0.0,0.0,0.0,0.0,0.0,0.0,0.0,0.0,0.0,0.0,0.0,0.0,0.0,0.0,0.0,0.0,0.0,0.0,0.0,0.0,0.0,0.0,0.0,0.0,0.0,0.0,0.0,0.0,0.0,0.0,0.0,0.0,0.0,0.0,0.0,0.0,0.0,0.0,0.0,0.0,0.0,0.0,0.0,0.0,0.0,0.0,0.0,0.0,0.0,0.0,0.0,0.0,0.0,0.0,0.0,0.0,0.0,0.0,0.0,0.0,0.0,0.0,0.0,0.0,0.0,0.0,0.0,0.0,0.0,0.0,0.0,0.0,0.0,0.0,0.0,0.0,0.0,0.0,0.0,0.0,0.0,0.0,0.0,0.0,0.0,0.0,0.0,0.0,0.0,0.0,0.0,0.0,0.0,0.0,0.0,0.0,0.0,0.0,0.0,0.0,0.0,0.0,0.0,0.0,0.0,0.0,0.0,0.0,0.0,0.0,0.0,0.0,0.0,0.0,0.0,0.0,0.0,0.0,0.0,0.0,0.0,0.0,0.0,0.0,0.0,0.0,0.0,0.0,0.0,0.0,0.0,0.0,0.0,0.0,0.0,0.0,0.0,0.0,0.0,0.0,0.0,0.0,0.0,0.0,0.0,0.0,0.0,0.0,0.0,0.0,0.0,0.0,0.0,0.0,0.0,0.0,0.0,0.0,0.0,0.0,0.0,0.0,0.0,0.0,0.0,0.0,0.0,0.0,0.0,0.0,0.0,0.0,0.0,0.0,0.0,0.0,0.0,0.0,0.0,0.0,0.0,0.0,0.0,0.0,0.0,0.0,0.0,0.0,0.0,0.0,0.0,0.0,0.0,0.0,0.0,0.0,0.0,0.0,0.0,0.0,0.0,0.0,0.0,0.0,0.0,0.0,0.0,0.0,0.0,0.0,0.0,0.0,0.0,0.0,0.0,0.0,0.0,0.0,0.0,0.0,0.0,0.0,0.0,0.0,0.0,0.0,0.0,0.0,0.0,0.0,0.0,0.0,0.0,0.0,0.0,0.0,0.0,0.0,0.0,0.0,0.0,0.0,0.0,0.0,0.0,0.0,0.0,0.0,0.0,0.0,0.0,0.0,0.0,0.0,0.0,0.0,0.0,0.0,0.0,0.0,0.0,0.0,0.0,0.0,0.0,0.0,0.0,0.0,0.0,0.0,0.0,0.0,0.0,0.0,0.0,0.0,0.0,0.0,0.0,0.0,0.0,0.0,0.0,0.0,0.0,0.0,0.0,0.0,0.0,0.0,0.0,0.0,0.0,0.0,0.0,0.0,0.0,0.0,0.0,0.0,0.0,0.0,0.0,0.0,0.0,0.0,0.0,0.0,0.0,0.0,0.843,0.0,0.0,0.0,0.0,0.0,0.0,0.0,0.0,0.0,0.0,0.0,0.0,0.0,0.0,0.0,0.0,0.0,0.0,0.0,0.0,0.0,0.0,0.0,0.0,0.9633,0.9568,0.9508,0.9439,0.9394,0.9394,0.0,0.0,0.0,0.0,0.0,0.9394,0.9394,0.9331,0.9207,0.9138,0.8932,0.8607,0.8477,0.8404,0.8407,0.0,0.0,0.0,0.0,0.0,0.0,0.0,0.0,0.0,0.0,0.0,0.0,0.0,0.0,0.0,0.0,0.0,0.0,0.0,0.0,0.0,0.0,0.0,0.0,0.0,0.0,0.0,0.0,0.0,0.0,0.0,0.0,0.0,0.0,0.0,0.0,0.0,0.0,0.0,0.0,0.0,0.0,0.0,0.0,0.0,0.0,0.0,0.0,0.0,0.0,0.0,0.0,0.0,0.0,0.0,0.0,0.0,0.0,0.0,0.0,0.0,0.0,0.0,0.0,0.0,0.0,0.0,0.0,0.0,0.0,0.0,0.8901,0.0,0.0,0.0,0.0,0.0,0.0,0.0,0.0,0.0,0.0,0.0,0.0,0.0,0.0,0.0,0.0,0.0,0.0,0.0,0.0,0.0,0.88,0.9606,0.9698,0.9658,0.9542,0.9534,0.9534,0.9534,0.9534,0.0,0.0,0.0,0.965,0.9534,0.9517,0.9368,0.912,0.9009,0.8747,0.8348,0.8152,0.8139,0.0,0.8322,0.0,0.0,0.0,0.0,0.0,0.0,0.0,0.0,0.0,0.0,0.0,0.0,0.0,0.0,0.0,0.0,0.0,0.0,0.0,0.0,0.0,0.0,0.0,0.0,0.0,0.0,0.0,0.0,0.0,0.0,0.0,0.0,0.0,0.0,0.0,0.0,0.0,0.0,0.0,0.0,0.0,0.0,0.0,0.0,0.0,0.0,0.0,0.0,0.0,0.0,0.0,0.0,0.0,0.0,0.0,0.0,0.0,0.0,0.0,0.0,0.0,0.0,0.0,1.5216,1.5403,1.5794,1.375,1.2946,1.3031,1.0698,0.9742,0.9857,1.0536,0.0,0.0,0.0,0.0,0.0,0.0,0.0,0.0,0.0,0.0,0.0,0.0,0.0,0.0,0.0,0.0,0.0,0.0,0.0,0.88,0.9606,0.9698,0.9698,0.9674,0.9674,0.9674,0.9674,0.9674,0.0,0.0,0.9698,0.9691,0.9674,0.9559,0.9403,0.9185,0.8661,0.8319,0.8137,0.0,0.0,0.0,0.8008,0.8079,0.0,0.0,0.0,0.0,0.0,0.0,0.0,0.0,0.0,0.0,0.0,0.0,0.0,0.0,0.0,0.0,0.0,0.0,0.0,0.0,0.0,0.0,0.0,0.0,0.0,0.0,0.0,0.0,0.0,0.0,0.0,0.0,0.0,0.0,0.0,0.0,0.0,0.0,0.0,0.0,0.0,0.0,0.7327,0.7889,0.0,0.0,0.0,0.0,0.0,0.0,0.0,0.0,0.0,0.0,0.0,0.0,0.0,1.5442,1.5634,1.6441,1.6518,1.5913,1.6373,1.644,1.602,1.4425,1.3748,1.3678,1.2041,0.0,1.0639,1.0745,0.0,0.0,0.0,0.0,0.0,0.0,0.0,0.0,0.0,0.0,0.0,0.0,0.0,0.0,0.0,0.0,0.0,0.0,0.0,0.0,0.0,0.9633,0.9584,0.9584,0.9517,0.9508,0.9584,0.0,0.0,0.9698,0.9698,0.9666,0.9584,0.9525,0.9332,0.8978,0.8441,0.8153,0.0,0.0,0.0,0.0,0.8123,0.7987,0.0,0.0,0.0,0.0,0.0,0.0,0.0,0.0,0.0,0.0,0.0,0.0,0.0,0.0,0.0,0.0,0.0,0.0,0.0,0.0,0.0,0.0,0.0,0.0,0.0,0.0,0.0,0.0,0.0,0.0,0.0,0.0,0.0,0.0,0.0,0.0,0.0,0.0,0.0,0.0,0.0,0.7209,0.7581,0.8264,0.882,0.9211,0.0,0.0,0.0,0.0,0.0,0.0,0.0,0.0,0.0,1.608,1.6327,1.6573,1.6862,1.7314,1.7385,1.7067,1.7425,1.7462,1.7153,1.5539,1.4796,1.4712,1.3069,1.1979,1.139,1.1581,1.1585,1.1522,0.0,0.0,0.0,0.0,0.9948,0.9232,0.0,0.0,0.0,0.0,0.0,0.0,0.0,0.0,0.0,0.0,0.0,0.0,0.9593,0.9525,0.9448,0.9448,0.9358,0.0,0.0,0.0,0.9559,0.9698,0.9698,0.9633,0.9508,0.9591,0.9401,0.8956,0.8737,0.0,0.0,0.0,0.0,0.0,0.0,0.0,0.0,0.0,0.0,0.0,0.0,0.0,0.0,0.0,0.0,0.0,0.0,0.0,0.0,0.0,0.0,0.0,0.0,0.0,0.0,0.0,0.0,0.0,0.0,0.0,0.0,0.0,0.0,0.0,0.0,0.0,0.0,0.0,0.0,0.0,0.0,0.0,0.0,0.0,0.0,0.0,0.0,0.78,0.8227,0.8746,0.9461,0.9946,0.0,0.0,0.0,0.0,0.0,0.0,1.5553,1.6251,1.6897,1.7494,1.7517,1.7687,1.7992,1.8114,1.8041,1.7738,1.7846,1.7726,1.743,1.5793,1.4959,1.4733,1.3077,1.2053,1.1589,1.1901,1.1744,1.1387,1.1634,1.1327,1.082,1.0982,1.0611,1.0033,0.0,0.0,0.0,0.0,0.0,0.0,0.0,0.0,0.0,0.0,0.0,0.954,0.9516,0.0,0.9303,0.0,0.0,0.0,0.0,0.0,0.9559,0.9698,0.9698,0.9633,0.9508,0.9813,0.9776,0.0,0.0,0.0,0.0,0.0,0.0,0.0,0.0,0.0,0.0,0.0,0.0,0.0,0.0,0.0,0.0,0.0,0.0,0.0,0.0,0.0,0.0,0.0,0.0,0.0,0.0,0.0,0.0,0.0,0.0,0.0,0.0,0.0,0.0,0.0,0.0,0.0,0.0,0.0,0.0,0.0,0.0,0.0,0.0,0.0,0.0,0.0,0.0,0.0,0.0,0.0,0.0,0.9377,1.0852,0.0,0.0,0.0,0.0,1.4606,1.6179,1.6981,1.6637,1.7548,1.8251,1.8616,1.8605,1.8688,1.8829,1.8865,1.8331,1.7348,1.7333,1.6786,1.5664,1.4391,1.3465,1.286,1.1503,1.0864,1.0885,1.1129,1.1118,1.0889,1.0525,1.1016,1.1814,1.0899,1.0918,1.1248,0.0,0.0,0.0,1.0104,1.0082,1.006,1.006,1.0038,0.9991,0.9878,0.9825,0.9713,0.0,0.9385,0.9265,0.0,0.0,0.0,0.0,0.0,0.9439,0.9568,1.0032,1.0406,1.0653,1.0449,1.0338,0.0,0.0,0.0,0.0,0.0,0.0,0.0,0.0,0.0,0.0,0.0,0.0,0.0,0.0,0.0,0.0,0.0,0.0,0.0,0.0,0.0,0.0,0.0,0.0,0.0,0.0,0.0,0.0,0.0,0.0,0.0,0.0,0.0,0.0,0.0,0.0,0.0,0.0,0.0,0.0,0.0,0.0,0.0,0.0,0.0,0.0,0.0,0.0,0.0,0.0,0.0,0.0,1.0844,1.1937,0.0,1.3519,1.4635,1.5516,1.5988,1.7384,1.813,1.7999,1.8748,1.9208,1.9323,1.9022,1.9016,1.9398,1.8018,1.7287,1.7205,1.612,1.5196,1.4356,1.3517,1.2744,1.2059,1.1199,1.0564,1.0155,1.0284,1.052,1.0837,1.0662,1.0889,1.1168,1.0845,1.0849,1.1042,1.0104,1.0104,0.0,1.0104,1.0104,1.0104,1.0104,1.0104,1.0052,0.9916,0.9816,0.9678,0.0,0.0,0.0,0.0,0.0,0.0,0.0,0.0,0.9376,0.9559,1.0193,1.0771,1.1291,1.1172,0.0,0.0,0.0,0.0,0.0,0.0,0.0,0.0,0.0,0.0,0.0,0.0,0.0,0.0,0.0,0.0,0.7064,0.0,0.0,0.0,0.0,0.0,0.0,0.0,0.0,0.0,0.0,0.0,0.0,0.0,0.0,0.0,0.0,0.0,0.0,0.0,0.0,0.0,0.0,0.0,0.0,0.0,0.0,0.0,0.0,0.0,0.0,0.0,0.0,0.0,0.0,0.0,1.1444,1.1877,1.2766,1.3647,1.4499,1.5699,1.663,1.7056,1.8123,1.8771,1.8771,1.9016,1.9169,1.9169,1.881,1.8605,1.8584,1.7116,1.6372,1.6335,1.5252,1.4256,1.3375,1.2701,1.1921,1.1027,1.0403,0.9862,0.9462,0.9462,0.9714,1.0167,1.0364,1.0614,1.0817,1.1061,1.1271,1.1584,1.0104,1.0104,1.0104,1.0104,1.0104,1.0104,1.0104,1.0104,1.0052,0.9916,0.9671,0.9449,0.0,0.0,0.0,0.0,0.0,0.0,0.0,0.9294,0.9439,0.9739,1.0226,1.075,1.1347,0.0,0.0,0.0,0.0,0.0,0.0,0.0,0.0,0.0,0.0,0.0,0.0,0.0,0.0,0.0,0.0,0.0,0.7395,0.0,0.0,0.0,0.0,0.0,0.0,0.0,0.0,0.0,0.0,0.0,0.0,0.0,0.0,0.0,0.0,0.0,0.0,0.0,0.0,0.0,0.0,0.0,0.0,0.0,0.0,0.0,0.0,0.0,0.0,0.0,0.0,0.0,1.0833,1.1649,1.2359,1.2397,1.336,1.4201,1.468,1.6284,1.7446,1.782,1.8466,1.8848,1.8803,1.8334,1.8052,1.8052,1.8013,1.7511,1.6421,1.6336,1.5778,1.4698,1.4652,1.3924,1.272,1.1957,1.0981,0.971,0.9057,0.8808,0.8808,0.8808,0.8808,0.8857,0.951,1.0163,1.0868,1.1512,1.2187,1.2827,1.0104,1.0104,1.0104,1.0104,1.0104,1.0104,1.0104,1.0104,1.0052,0.9916,0.9753,0.0,0.0,0.0,0.0,0.0,0.0,0.0,0.9148,0.9246,0.9809,1.0966,1.1694,0.0,0.0,0.0,0.0,0.0,0.0,0.0,0.0,0.0,0.0,0.0,0.0,0.0,0.0,0.0,0.0,0.0,0.0,0.0,0.7405,0.0,0.0,0.0,0.0,0.0,0.0,0.0,0.0,0.0,0.0,0.0,0.0,0.0,0.0,0.0,0.0,0.0,0.0,0.0,0.0,0.0,0.0,0.0,0.0,0.0,0.0,0.0,0.0,0.0,0.0,0.0,1.2151,1.2259,1.1451,1.2174,1.2848,1.2913,1.351,1.43,1.5192,1.6125,1.6663,1.6754,1.731,1.7484,1.7024,1.6859,1.6776,1.6776,1.6431,1.6267,1.6327,1.5116,1.455,1.4614,1.3228,1.2141,1.1353,1.0649,0.9854,0.9061,0.8857,0.8808,0.8808,0.8808,0.8808,0.8808,0.9008,0.9462,1.0115,1.0265,1.0771,1.1379,1.0108,1.0104,1.0104,1.0104,1.0104,1.0086,1.0056,1.0082,1.0034,0.9884,0.971,0.0,0.0,0.0,0.0,0.0,0.0,0.9066,0.9256,0.9623,1.0492,1.1945,0.0,0.0,0.0,0.0,0.0,0.0,0.0,0.0,0.0,0.0,0.0,0.0,0.0,0.0,0.0,0.0,0.0,0.0,0.0,0.0,0.7527,0.7527,0.7685,0.7964,0.8323,0.8419,0.8475,0.8924,0.0,0.0,0.0,0.0,0.0,0.0,0.0,0.0,0.0,0.0,0.0,0.0,0.0,0.0,0.0,0.0,0.0,0.0,0.0,0.0,0.0,0.0,0.0,0.0,1.2576,1.2714,1.2251,1.2672,1.3114,1.34,1.3705,1.4188,1.5066,1.571,1.5991,1.5979,1.6297,1.6346,1.5973,1.5737,1.5618,1.5618,1.5345,1.5206,1.5248,1.428,1.369,1.3423,1.2322,1.1316,1.0364,0.964,0.9138,0.8804,0.848,0.8537,0.8808,0.8808,0.8808,0.0,0.0,0.0,0.0,0.0,1.0466,1.0813,1.0124,1.011,1.0115,1.0115,1.0104,1.007,1.0011,1.0043,1.0006,0.9825,0.0,0.0,0.0,0.0,0.0,0.0,0.0,0.0,0.0,0.0,0.0,1.2635,0.0,0.0,0.0,0.0,0.0,0.0,0.0,0.0,0.0,0.0,0.0,0.0,0.0,0.0,0.0,0.0,0.0,0.0,0.0,0.0,0.7705,0.7754,0.782,0.794,0.856,0.88,0.8914,0.9638,0.0,0.0,0.0,0.0,0.0,0.0,0.0,0.0,0.0,0.0,0.0,0.0,0.0,0.0,0.0,0.0,0.0,0.0,0.0,0.0,0.0,0.0,0.0,0.0,1.2543,1.3,1.3097,1.3035,1.317,1.3701,1.3712,1.392,1.4433,1.501,1.5283,1.5194,1.5289,1.5283,1.5194,0.0,0.0,0.0,0.0,1.4242,1.3684,1.3684,1.3044,1.1814,1.1657,1.0902,0.9651,0.8846,0.8495,0.8537,0.7886,0.794,0.8537,0.8537,0.8537,0.8639,0.9302,0.961,0.9762,1.0257,1.0509,1.0564,1.0185,1.0177,1.0177,1.0177,1.0094,1.0006,0.9997,0.9961,0.9904,0.9811,0.9574,0.0,0.0,0.0,0.0,0.0,0.0,0.0,0.0,0.0,0.0,0.0,0.0,0.0,0.0,0.0,0.0,0.0,0.0,0.0,0.0,0.0,0.0,0.0,0.0,0.0,0.0,0.0,0.0,0.0,0.0,0.0,0.7734,0.812,0.8243,0.8249,0.8582,0.8798,0.8972,0.9608,0.9789,0.9746,0.9805,0.0,0.0,0.0,0.0,0.0,0.0,0.0,0.0,0.0,0.0,0.0,0.0,0.0,0.0,0.0,0.0,0.0,0.0,0.0,0.0,1.2678,1.2875,1.3152,1.3574,1.3245,1.2979,1.3075,1.3102,1.3104,1.3253,1.3768,1.3946,1.3462,1.3852,1.3899,1.3409,1.3286,1.3248,1.3248,1.3248,1.3205,1.306,1.3055,1.2642,1.1765,0.0,0.0,0.8842,0.7587,0.7012,0.702,0.6858,0.6912,0.702,0.702,0.702,0.7074,0.7821,0.8468,0.8956,0.8455,0.8672,0.9211,1.0245,1.0223,1.0201,1.0201,1.0123,1.0025,0.9956,0.9945,0.9883,0.9673,0.9504,0.0,0.0,0.0,0.0,0.0,0.0,0.0,0.0,0.0,0.0,0.0,0.0,0.0,0.0,0.0,0.0,0.0,0.0,0.0,0.0,0.0,0.0,0.0,0.0,0.0,0.0,0.0,0.0,0.0,0.0,0.0,0.7549,0.7637,0.7625,0.7647,0.7987,0.8025,0.8107,0.9519,0.9852,0.9814,1.0758,1.104,1.0879,0.0,0.0,0.0,0.0,0.0,0.0,0.0,0.0,0.0,0.0,0.0,0.0,0.0,0.0,1.1217,1.1412,0.0,1.2576,1.2901,1.2984,1.3072,1.3311,1.3109,1.2881,1.2881,1.2881,1.2881,1.2881,1.2827,1.2657,1.2388,1.2614,1.2507,1.1891,1.2197,1.2344,1.2344,1.2344,1.251,1.2881,1.2881,1.2358,1.1312,1.0203,0.9367,0.8675,0.7036,0.6265,0.6242,0.5751,0.5975,0.6642,0.6879,0.6995,0.6993,0.6877,0.7408,0.8209,0.783,0.8156,0.886,1.0303,1.0246,1.02,1.0202,1.0131,1.0044,0.9916,0.9929,0.9853,0.954,0.9429,0.9305,0.9119,0.8981,0.9017,0.0,0.0,0.0,0.0,0.0,0.0,0.0,0.0,0.0,0.0,0.0,0.0,0.0,0.0,0.0,0.0,0.0,0.0,0.0,0.0,0.0,0.0,0.0,0.0,0.0,0.0,0.0,0.714,0.6784,0.6742,0.6859,0.716,0.713,0.7221,0.9047,0.9741,1.0088,1.149,1.1832,1.1583,1.1084,1.0683,0.0,0.0,0.0,0.0,0.0,0.0,0.0,0.0,0.0,1.0059,1.0212,1.0747,1.1302,1.1584,1.1981,1.2368,1.2621,1.2848,1.2909,1.2711,1.2666,1.2618,1.2515,1.2618,1.2618,1.2515,1.1931,1.1616,1.1616,1.1715,1.1562,1.1015,1.162,1.2026,1.2026,1.2026,1.2332,1.2998,1.285,1.21,1.0753,0.9881,0.9042,0.8251,0.6481,0.5477,0.5183,0.47,0.5136,0.622,0.6671,0.6663,0.6337,0.5622,0.6046,0.7114,0.7393,0.794,0.8692,1.0303,1.025,1.0197,1.0195,1.0095,0.9987,0.991,0.9854,0.9747,0.9525,0.9386,0.9257,0.9117,0.8981,0.9219,0.0,0.0,0.0,0.0,0.0,0.0,0.0,0.0,0.0,0.0,0.0,0.0,0.0,0.0,0.0,0.0,0.0,0.0,0.0,0.0,0.0,0.0,0.0,0.0,0.0,0.0,0.0,0.6312,0.596,0.6148,0.6546,0.6454,0.6726,0.7156,0.7632,0.923,1.099,1.0956,1.1089,1.1088,1.0207,0.0,0.8962,0.866,0.8414,0.8279,0.8313,0.8275,0.8641,0.0,0.0,0.9889,1.0662,1.1185,1.1227,1.0228,1.1611,1.2576,1.1579,1.2235,1.2706,1.2016,1.1922,1.172,1.112,1.157,1.167,1.107,1.0969,1.0914,1.0914,1.1462,1.1765,1.1711,1.2398,1.2769,1.2769,1.2769,1.3002,1.3433,1.2702,1.1773,1.0602,0.9137,0.7794,0.6444,0.5423,0.4075,0.2677,0.3975,0.4613,0.4723,0.4808,0.402,0.284,0.3172,0.394,0.5031,0.6249,0.7182,0.794,1.0303,1.0251,1.0195,1.0198,1.0154,1.0067,0.9924,0.988,0.9773,0.9533,0.9385,0.9246,0.9117,0.8913,0.9039,0.968,1.0225,0.0,0.0,0.0,0.0,0.0,0.0,0.0,0.0,0.0,0.0,0.0,0.0,0.0,0.0,0.0,0.0,0.0,0.0,0.0,0.0,0.0,0.0,0.0,0.0,0.0,0.6589,0.6042,0.5976,0.6095,0.5541,0.4788,0.0,0.0,0.4848,0.7149,0.8194,0.9565,1.0695,1.0181,0.9884,0.0,0.8557,0.7886,0.7395,0.0,0.7024,0.7284,0.8362,0.8395,0.8406,0.9178,0.9559,0.9863,0.9988,1.0763,1.1296,0.0,1.1379,1.1584,1.1266,1.1216,1.0965,1.0316,1.0466,1.0665,1.0767,1.0813,1.0813,1.0813,1.1412,1.1616,1.1266,1.1882,1.2089,1.1692,1.1864,1.2059,1.2219,1.2062,1.1233,0.9879,0.8838,0.772,0.6666,0.4366,0.2441,0.1024,0.2533,0.3176,0.326,0.4104,0.4215,0.3736,0.3074,0.3661,0.4937,0.5684,0.6689,0.7774,1.0251,1.0244,1.023,1.023,1.0214,1.0138,0.9976,0.9922,0.9796,0.9506,0.9377,0.9227,0.9013,0.8711,0.8852,0.9626,1.0315,1.126,0.0,0.0,0.0,0.0,0.0,0.0,0.0,0.0,0.0,0.0,0.0,0.0,0.0,0.0,0.0,0.0,0.0,0.0,0.0,0.0,0.0,0.0,0.0,0.0,0.6579,0.6197,0.5303,0.425,0.3937,0.261,0.0,0.0,0.1121,0.2945,0.5315,0.7175,0.8691,0.9768,1.0042,0.968,0.8198,0.7195,0.0,0.6084,0.6064,0.6235,0.6793,0.6878,0.7059,0.7588,0.8042,0.8609,0.9291,0.9925,1.0417,1.0527,1.0665,1.0767,1.0564,1.0517,1.0265,0.9614,0.9514,0.9714,1.0214,1.0265,1.0265,1.0265,1.0868,1.1065,1.0564,1.1166,1.1316,1.0813,1.112,1.1243,1.1112,1.1124,1.0462,0.895,0.8308,0.7509,0.653,0.3125,0.0997,0.0062,0.1121,0.1612,0.1662,0.2804,0.399,0.4958,0.3888,0.4131,0.5154,0.5522,0.6332,0.7274,1.0123,1.0207,1.0303,1.0303,1.0241,1.0183,1.01,0.9986,0.9778,0.9452,0.9341,0.9148,0.8756,0.835,0.8753,1.0319,1.0317,1.1098,1.3143,1.3664,0.0,0.0,0.0,0.0,0.0,0.0,0.0,0.0,0.0,0.0,0.0,0.0,0.0,0.0,0.0,0.0,0.0,0.0,0.0,0.0,0.0,0.0,0.5812,0.6281,0.3844,0.0306,0.1275,0.0,0.0,0.0,-0.0419,-0.0367,0.2959,0.3725,0.0,0.8571,0.946,0.0,0.0,0.0,0.5826,0.5722,0.5891,0.6235,0.6793,0.6523,0.6156,0.632,0.7271,0.7956,0.7484,0.9257,1.0551,0.9913,1.0364,1.0564,0.9913,0.981,0.9562,0.8906,0.8804,0.8857,0.8857,0.8857,0.8857,0.8857,0.9462,0.9862,0.981,1.0466,1.0813,1.0813,1.112,1.1074,1.0636,1.0109,0.9239,0.7948,0.7381,0.6564,0.5309,0.1695,0.0064,0.0,0.0064,0.0063,0.0062,0.0127,0.222,0.5353,0.5341,0.5202,0.5181,0.5922,0.603,0.6048,1.0096,1.017,1.0252,1.0293,1.0242,1.0189,1.0166,1.0053,0.9861,0.9565,0.9323,0.0,0.0,0.0,0.0,0.0,1.0316,1.1238,1.2607,1.3405,0.0,0.0,0.0,0.0,0.0,0.0,0.0,0.0,0.0,0.0,0.0,0.0,0.0,0.0,0.0,0.0,0.0,0.0,0.0,0.0,0.0,0.0,0.6307,0.5038,0.3025,0.0589,0.0,0.0,0.0,0.0,-0.4667,-0.4364,-0.1308,0.0,0.0,0.4811,0.0,0.8455,0.5987,0.0,0.4796,0.4416,0.4394,0.4477,0.4679,0.4578,0.4476,0.4523,0.5652,0.6772,0.7289,0.8521,0.9249,0.8508,0.8984,0.9413,0.9162,0.9162,0.9057,0.8808,0.8808,0.0,0.8808,0.9211,0.0,0.9462,1.0064,1.0466,1.0466,1.0665,1.0676,1.05,1.0727,1.0422,0.9417,0.9417,0.8642,0.7093,0.5132,0.395,0.3553,0.1132,0.0,-0.0133,-0.2524,-0.357,-0.3475,-0.2307,-0.0394,0.1888,0.2731,0.4424,0.6459,0.648,0.6784,0.7075,1.0003,1.0086,1.0181,1.0218,1.0211,0.0,0.0,0.0,0.0,0.0,0.0,0.0,0.0,0.0,0.0,0.0,0.0,1.091,1.2204,0.0,0.0,0.0,0.0,0.0,0.0,0.0,0.0,0.0,0.0,0.0,0.0,0.0,0.0,0.0,0.0,0.0,0.0,0.0,0.0,0.0,0.0,0.0,0.6568,0.5204,0.3032,0.0,0.0,0.0,0.0,0.0,0.0,0.0,0.0,0.0,0.0,0.0,0.4058,0.5633,0.4949,0.4444,0.3822,0.2611,0.2316,0.2301,0.2254,0.2222,0.2242,0.2241,0.3573,0.4996,0.5788,0.6942,0.7655,0.7343,0.7723,0.7993,0.7993,0.7993,0.8103,0.8374,0.8236,0.8352,0.0,0.0,0.0,0.9427,1.003,1.0371,1.0248,1.0355,1.0316,1.0099,1.005,0.9458,0.836,0.8358,0.7642,0.6216,0.4488,0.2341,-0.0201,-0.1411,-0.1548,-0.1142,-0.41,-0.5733,-0.6217,-0.5088,-0.3524,-0.1722,-0.0332,0.1988,0.4782,0.6541,0.7325,0.754,0.9808,0.9961,1.0092,0.0,0.0,0.0,0.0,0.0,0.0,0.0,0.0,0.0,0.0,0.0,0.0,0.0,0.0,0.0,1.1899,0.0,0.0,0.0,0.0,1.3965,1.4359,1.4434,0.0,0.0,0.0,0.0,0.0,0.0,0.0,0.0,0.0,0.0,0.0,0.0,0.0,0.0,0.0,0.0,0.6476,0.6475,0.0,0.0,0.0,0.0,0.0,0.0,0.0,0.0,0.0,0.0,0.0,0.0,0.0,0.0618,0.387,0.4054,0.2784,0.0577,-0.0089,-0.0225,-0.0373,-0.0471,-0.0531,-0.052,0.1048,0.2533,0.2937,0.0,0.5995,0.6401,0.6581,0.6588,0.6588,0.6588,0.6858,0.0,0.0,0.0,0.0,0.0,0.0,0.8838,0.0,0.9563,0.922,0.9472,0.9628,0.9645,0.9041,0.8309,0.7456,0.689,0.6148,0.5256,0.5189,0.1538,-0.5135,-0.541,-0.458,-0.3078,-0.4741,-0.6434,-0.8035,-0.8032,-0.7028,-0.5325,-0.3498,-0.1649,0.0593,0.5741,0.7259,0.6992,0.0,0.0,0.0,0.0,0.0,0.0,0.0,0.0,0.0,0.0,0.0,0.0,0.0,0.0,0.0,0.0,0.0,0.0,0.0,0.0,0.0,0.0,0.0,0.0,0.0,1.4059,0.0,0.0,0.0,0.0,0.0,0.0,0.0,0.0,0.0,0.0,0.0,0.0,0.0,0.0,0.0,0.0,0.5782,0.0,0.0,0.0,0.0,0.0,0.0,0.0,0.0,0.0,0.0,0.0,-0.6909,0.0,0.0,-0.1104,0.0088,0.0,-0.0356,-0.0089,-0.1503,-0.2984,-0.3002,-0.4055,-0.4976,-0.4969,-0.2443,-0.0363,-0.0739,0.2365,0.0,0.5013,0.594,0.0,0.6588,0.6588,0.0,0.6858,0.0,0.7729,0.8376,0.8982,0.0,0.0,0.9599,0.9649,0.9573,0.904,0.8806,0.9002,0.8273,0.7513,0.6905,0.6127,0.4951,0.3402,0.2002,0.04,-0.1534,-0.5507,-0.7085,-0.673,-0.7564,-0.8161,-0.8641,-0.8804,-0.8527,-0.7767,-0.6137,-0.3767,-0.1044,0.1239,0.2742,0.3788,0.0,0.0,0.0,0.0,0.0,0.0,0.0,0.0,0.0,0.0,0.0,0.0,0.0,0.0,0.0,0.0,0.0,0.0,0.0,0.0,0.0,0.0,0.0,0.0,0.0,0.0,0.0,0.0,0.0,0.0,0.0,0.0,0.0,0.0,0.0,0.0,0.0,0.0,0.0,0.0,0.0,0.0,0.0,0.0,0.0,0.0,0.0,0.0,0.0,0.0,0.0,-0.7548,-0.817,-0.8045,-0.7432,-0.6376,0.0,-0.297,-0.2404,-0.2412,-0.2502,-0.2171,-0.3306,-0.4599,-0.464,-0.551,-0.6319,-0.6273,-0.4576,-0.2957,-0.2352,0.0516,0.0,0.0,0.0,0.0,0.5681,0.5675,0.5664,0.0,0.6112,0.0,0.8252,0.8328,0.8583,0.0,0.9516,0.9456,0.9326,0.8633,0.8264,0.8458,0.7726,0.6419,0.4582,0.3529,0.253,0.1462,-0.0531,-0.2059,-0.3257,-0.6758,-0.8197,-0.8043,0.0,-0.9539,-0.96,-1.0481,-1.0808,-1.0534,-0.943,-0.7641,-0.5519,-0.4019,-0.2398,-0.0844,0.0,0.0,0.0,0.0,0.0,0.0,0.0,0.0,0.0,0.9705,0.9539,0.0,0.0,0.0,0.0,0.0,0.0,0.0,0.0,0.0,0.0,0.0,0.0,0.0,0.0,0.0,0.0,0.0,0.0,0.0,0.0,0.0,0.0,0.0,0.0,0.0,0.0,0.0,0.0,0.0,0.0,0.0,0.0,0.0,0.0,0.0,0.0,0.0,0.0,0.0,-0.5316,-0.6653,-0.7038,-0.6712,-0.6211,-0.6573,-0.5713,-0.4508,-0.3814,-0.3638,-0.3856,-0.4508,-0.5013,-0.5345,-0.5465,-0.5813,-0.607,-0.5965,0.0,-0.5031,-0.305,-0.1167,0.0993,0.3537,0.0,0.4132,0.4206,0.4028,0.407,0.4438,0.4449,0.5395,0.7816,0.7347,0.745,0.9015,0.8784,0.8634,0.8806,0.8244,0.77,0.7291,0.639,0.4458,0.1395,0.0132,-0.053,-0.0729,-0.3111,-0.5247,-0.7234,-0.8354,-0.8654,-0.8404,-0.9983,-1.0735,-1.0927,-1.2496,-1.3005,-1.2826,-1.2466,-1.1531,-1.0265,-0.8745,-0.7097,-0.5656,0.0,0.0,0.0,0.0,0.0,0.0,0.0,0.0,0.0,0.0,0.9819,0.9679,0.0,0.0,0.0,0.0,0.0,0.0,0.0,0.0,0.0,0.0,0.0,0.0,0.0,0.0,0.0,0.0,0.0,0.0,0.0,0.0,0.0,0.0,0.0,0.0,0.0,0.0,0.0,0.0,0.0,0.0,0.0,0.0,0.0,0.0,0.0,0.0,0.0,0.0,-0.4361,-0.6814,-0.6265,-0.5669,-0.522,-0.5111,-0.4782,-0.431,-0.3755,-0.3926,-0.431,-0.4439,-0.4942,-0.5465,-0.5508,-0.6089,0.0,0.0,-0.6107,-0.5511,-0.4881,-0.2857,-0.0729,0.0856,0.1775,0.2323,0.2558,0.1556,0.1721,0.0,0.3738,0.372,0.5074,0.7604,0.0,0.0,0.5946,0.5745,0.8675,0.7802,0.6137,0.3718,0.1122,-0.0395,-0.0788,-0.2161,-0.3404,-0.4394,-0.6757,-0.7857,-0.7842,-0.8826,-0.9515,-1.0106,-1.1128,0.0,-1.2626,-1.3601,-1.3235,-1.2077,-1.2638,-1.152,-0.946,-0.9192,-0.8398,-0.7548,0.0,0.0,0.0,0.0,0.0,0.0,0.0,0.9906,0.998,0.995,0.9889,0.9939,1.0155,0.9509,0.0,0.0,0.0,0.0,0.0,0.0,0.0,0.0,0.0,0.0,0.0,0.0,0.0,0.0,0.0,0.0,0.0,0.0,0.0,0.0,0.0,0.0,0.0,0.0,0.0,0.0,0.0,0.0,0.0,0.0,0.0,0.0,0.0,0.0,0.0,0.0,-0.3425,-0.4315,-0.4552,-0.4246,-0.3878,-0.4146,-0.4098,-0.3922,-0.3665,-0.4007,-0.4476,-0.4781,-0.5472,-0.6115,-0.6249,0.0,0.0,0.0,-0.6389,-0.5775,-0.5098,-0.3705,0.0,-0.1947,-0.0983,-0.0214,-0.0111,-0.05,0.0,0.1222,0.1381,0.1783,0.0,0.3993,0.4479,0.3998,0.2002,0.2042,0.4957,0.4043,0.232,0.0,-0.2296,-0.4317,-0.603,-0.6706,-0.7404,-0.7942,-0.9145,-0.9576,-0.9288,-0.977,-1.0405,-1.1249,-1.207,-1.2875,-1.367,-1.4506,-1.414,-1.3109,-1.3901,-1.2732,-1.0647,-1.108,-1.0451,-0.9323,0.0,0.0,0.0,0.0,0.0,0.0,0.0,0.9715,0.9855,0.9892,0.9902,1.0125,1.0703,0.993,0.962,0.0,0.0,0.0,0.0,0.0,0.0,0.0,0.0,0.0,0.0,0.0,0.0,0.0,0.0,0.0,0.0,0.0,0.0,0.0,0.0,0.0,0.0,0.0,0.0,0.0,0.0,0.0,0.0,0.0,0.0,0.0,0.0,0.0,0.0,0.0,-0.2636,-0.1633,-0.2794,-0.3039,-0.2997,-0.3598,-0.3668,-0.362,-0.3588,-0.4094,-0.4703,-0.5274,-0.6052,-0.6751,-0.7026,-0.7248,0.0,0.0,-0.6559,-0.5916,-0.4993,0.0,-0.384,0.0,-0.3205,-0.2666,-0.2665,-0.2409,-0.2184,0.0,-0.1449,0.0,-0.0457,-0.1129,0.0,-0.1551,-0.2831,-0.243,0.0066,-0.0985,-0.2167,-0.3423,-0.5804,-0.8284,-1.0877,-1.1078,-1.1207,-1.1207,-1.1254,-1.1096,-1.0805,-1.0846,-1.1292,-1.2077,-1.2761,-1.3545,-1.451,-1.5113,-1.481,-1.403,-1.4628,-1.3532,-1.1652,-1.2455,-1.1965,-1.0863,0.0,0.0,0.0,0.0,0.0,0.0,0.0,0.9532,0.9696,0.9871,0.9904,1.0023,1.0321,0.989,0.9606,0.0,0.0,0.0,0.0,0.0,0.0,0.0,0.0,0.0,0.0,0.0,0.0,0.0,0.0,0.0,0.0,0.0,0.0,0.0,0.0,0.0,0.0,0.0,0.0,0.0,0.0,0.0,0.0,0.0,0.0,0.0,0.0,0.0,0.0,0.0,0.0,-0.0382,-0.1573,-0.2699,-0.3524,-0.3613,0.0,0.0,-0.3617,-0.4401,-0.5307,-0.5598,-0.6308,-0.7042,-0.7368,0.0,0.0,-0.6985,-0.6559,-0.6004,-0.5348,-0.4751,-0.4221,0.0,0.0,-0.4057,0.0,-0.443,-0.4403,-0.4224,0.0,0.0,-0.6517,-0.6778,0.0,-0.7248,-0.8684,-0.8184,-0.4855,-0.6155,-0.6705,-0.6141,-1.0586,-1.2895,-1.257,-1.3344,-1.3736,-1.3736,-1.374,-1.3047,-1.1703,-1.171,-1.2143,-1.2883,-1.2948,-1.3846,0.0,-1.5357,-1.451,-1.313,-1.3187,-1.2212,-1.0807,-1.1589,-1.1834,-1.1772,0.0,0.0,0.0,0.0,0.0,0.0,0.9319,0.9492,0.9677,0.9871,1.0043,1.0179,1.0293,1.0128,1.0025,0.0,0.0,0.0,0.0,0.0,0.0,0.0,0.0,0.0,0.0,0.0,0.0,0.0,0.0,0.0,0.0,0.0,0.0,0.0,0.0,0.0,0.0,0.0,0.0,0.0,0.0,0.0,0.0,0.0,0.0,0.0,0.0,0.0,0.0,0.0,0.0,0.0,-0.142,-0.2647,0.0,0.0,-0.3637,-0.3718,-0.362,-0.4655,-0.5697,-0.569,-0.6514,-0.7321,-0.7483,0.0,-0.6979,-0.6979,-0.6559,-0.6004,-0.5394,-0.4824,-0.429,0.0,-0.4027,-0.4184,-0.4434,-0.4582,-0.4796,-0.5333,-0.5398,0.0,0.0,0.0,-0.8888,-1.0167,-1.1755,-1.1854,-1.0003,-0.9525,-1.0099,-1.1755,-1.3153,-1.4269,-1.496,-1.5775,-1.6001,-1.5563,-1.5066,-1.4255,-1.3235,-1.2753,-1.2935,-1.373,-1.373,-1.4387,0.0,-1.541,-1.4751,-1.373,-1.373,-1.3,-1.2093,-1.2393,-1.2512,-1.2573,0.0,0.0,0.0,0.0,0.0,0.9079,0.9269,0.9465,0.9677,0.9871,1.0058,1.0211,1.0293,1.0303,1.0303,1.0303,0.0,0.0,0.0,0.0,0.0,0.0,0.0,0.0,0.0,0.0,0.0,0.0,0.0,0.0,0.0,0.0,0.0,0.0,0.0,0.0,0.0,0.0,0.0,0.0,0.0,0.0,0.0,0.0,0.0,0.0,0.0,0.0,0.0,0.0,0.0,0.0,0.0,0.0,0.0,0.0,-0.3715,-0.3783,-0.3682,-0.4666,-0.571,-0.5856,-0.6568,-0.7257,0.0,-0.7301,-0.6979,-0.6979,-0.6686,-0.6215,-0.5435,-0.4957,-0.4493,0.0,-0.4135,-0.4357,-0.4415,-0.4693,-0.5104,0.0,0.0,-0.6427,0.0,-0.8926,-1.0352,-1.2145,-1.3348,-1.3909,-1.3721,-1.2776,-1.3189,-1.521,-1.5177,-1.5631,-1.673,-1.733,-1.7252,-1.6487,-1.5923,-1.5163,-1.4209,-1.3606,-1.367,-1.4209,-1.4209,-1.4688,0.0,-1.541,-1.4932,-1.4209,-1.4209,-1.373,-1.3009,-1.3252,-1.3368,-1.3429,0.0,0.0,0.0,0.0,0.0,0.0,0.9303,0.9465,0.9677,0.9871,0.9908,1.0012,1.0273,1.0303,1.0303,1.0303,0.0,0.0,0.0,0.0,0.0,0.0,0.0,0.0,0.0,0.0,0.0,1.3492,0.0,0.0,0.0,0.0,0.0,0.0,0.0,0.0,0.0,0.0,0.0,0.0,0.0,0.0,0.0,0.0,0.0,0.0,0.0,0.0,0.0,0.0,0.0,0.0,0.0,0.0,0.0,0.0,-0.3748,-0.3896,-0.3832,-0.4332,-0.5147,-0.6141,-0.6395,-0.6662,-0.7664,-0.7414,-0.6979,-0.6979,-0.6979,-0.6634,-0.5521,-0.5305,-0.4983,-0.3954,-0.454,-0.4865,-0.4278,-0.5104,0.0,0.0,0.0,-0.6536,-0.8405,-1.0084,-1.1744,-1.346,-1.3579,0.0,-1.5328,-1.6031,-1.6115,-1.5303,-1.6757,-1.7572,-1.7578,-1.7578,-1.7252,-1.6487,-1.6487,-1.5671,-1.4209,-1.4209,-1.4209,-1.4209,-1.4209,-1.4688,0.0,-1.541,-1.4932,-1.4209,-1.4209,-1.373,-1.313,-1.3906,-1.4213,-1.4382,0.0,0.0,0.0,0.0,0.0,0.0,0.0,0.9554,0.9743,1.0119,1.0167,1.021,1.0293,1.0142,1.0097,1.0283,0.0,0.0,0.0,0.0,0.0,0.0,0.0,0.0,0.0,0.0,1.2059,1.1993,1.2699,1.2642,0.0,0.0,0.0,0.0,0.0,0.0,0.0,0.0,0.0,0.0,0.0,0.0,0.0,0.0,0.0,0.0,0.0,0.0,0.0,0.0,0.0,0.0,0.0,0.0,0.0,-0.3572,-0.3553,-0.3788,-0.3687,-0.4623,-0.5714,-0.5866,-0.653,-0.7215,-0.7543,-0.7308,-0.6979,-0.6979,-0.6377,-0.5733,-0.5348,-0.4661,-0.4237,-0.4618,-0.4906,0.0,0.0,0.0,0.0,-0.6517,-0.769,-0.9077,0.0,0.0,-1.2402,-1.4298,-1.4439,-1.4734,-1.5391,-1.6088,-1.6636,-1.6874,-1.7341,-1.7846,-1.834,-1.7846,-1.7252,-1.6487,-1.6487,-1.5968,-1.4991,-1.4991,-1.4991,-1.4991,-1.4991,-1.5172,-1.541,-1.541,-1.5235,-1.4991,-1.4387,-1.4387,-1.4628,-1.4332,-1.485,-1.5843,0.0,0.0,0.0,0.0,0.0,0.0,0.0,0.9748,0.9974,1.0263,1.0303,1.0303,1.0303,1.0154,1.0119,1.0293,0.0,0.0,0.0,0.0,0.0,0.0,0.0,0.0,0.0,1.0436,1.1425,1.2853,1.1619,1.0503,0.9574,0.9574,1.0274,0.0,0.0,0.0,0.0,0.0,0.0,0.0,0.0,0.0,0.9169,0.0,0.0,0.0,0.0,0.0,0.0,0.0,0.0,0.0,0.0,0.0,0.0,0.0,-0.4209,-0.4388,0.0,-0.4899,-0.5937,-0.6073,-0.6616,-0.7141,-0.742,-0.7238,-0.6979,-0.6979,-0.6255,-0.5567,-0.5348,-0.4528,-0.4053,-0.4508,-0.514,0.0,0.0,0.0,0.0,-0.6832,0.0,0.0,0.0,-1.1835,-1.268,-1.4228,-1.4453,-1.4727,-1.5156,-1.6001,-1.6708,-1.7196,-1.7468,-1.7688,-1.7846,-1.7407,-1.681,-1.6088,-1.6088,-1.5864,-1.541,-1.541,-1.541,-1.541,-1.541,-1.541,0.0,-1.5695,-1.5637,-1.541,-1.5482,-1.5603,-1.5806,-1.5535,-1.6104,-1.6922,0.0,0.0,0.0,0.0,0.0,0.0,0.0,0.9861,1.0171,1.0233,1.0243,1.0253,1.0303,1.0243,1.0223,1.0233,0.0,0.0,0.0,0.0,0.0,0.0,0.0,0.0,0.0,0.8397,1.0549,1.5045,0.9735,0.6203,0.4407,0.5372,0.6896,0.8951,0.0,0.0,0.0,0.0,0.0,0.0,0.0,0.5528,0.0,0.0,0.0,0.0,0.0,0.0,0.0,0.0,0.0,0.0,0.0,0.0,0.0,0.0,0.0,0.0,0.0,-0.5176,-0.5967,-0.6555,-0.6574,-0.6586,-0.7291,-0.7221,0.0,-0.6979,-0.6559,-0.601,-0.5415,-0.4847,-0.4388,-0.4028,0.0,0.0,0.0,-0.5715,0.0,0.0,-0.8785,0.0,-1.0749,-1.1713,-1.2631,-1.3455,-1.3867,-1.4277,-1.4717,-1.5808,-1.6384,-1.6384,-1.7069,-1.7141,-1.6492,-1.643,-1.6093,-1.541,-1.541,-1.541,-1.541,-1.541,-1.541,0.0,-1.5468,-1.5468,-1.5522,-1.626,-1.6145,-1.569,-1.7074,-1.7196,-1.6652,-1.7357,-1.7633,-1.7792,0.0,0.0,0.0,0.0,0.0,0.0,0.0,0.0,0.0,0.0,0.9616,0.9788,1.0253,0.9707,0.9391,0.0,0.0,0.0,0.0,0.0,0.0,0.0,0.0,0.0,0.0,0.639,0.7753,1.1512,0.4992,-0.2379,-1.0155,0.0355,0.5565,0.6315,1.23,0.0,0.0,0.0,0.0,0.0,1.0325,0.6681,0.0,0.0,0.0,0.0,-0.5049,-0.529,0.0,0.0,0.0,0.0,0.0,0.0,0.0,0.0,-0.6321,-0.7269,-0.6163,0.0,-0.5871,-0.5964,-0.626,-0.6641,0.0,-0.7074,-0.6979,0.0,0.0,-0.6064,-0.5533,-0.5422,-0.5497,-0.5734,0.0,0.0,-0.6903,0.0,0.0,-0.7453,-0.8933,-1.0156,-1.0724,-1.1504,-1.236,-1.3426,-1.3599,-1.3838,-1.4263,-1.4859,-1.5208,-1.5208,-1.5687,-1.6083,-1.6487,-1.5921,-1.558,-1.541,-1.541,-1.541,-1.541,-1.541,-1.541,-1.541,-1.5979,-1.626,-1.6317,-1.7029,-1.7246,-1.7135,-1.7462,-1.7468,-1.7357,-1.7523,-1.7955,-1.8447,0.0,0.0,0.0,0.0,0.0,0.0,0.0,0.0,0.0,0.0,0.0,0.0,0.0,0.0,0.0,0.0,0.0,0.0,0.0,0.0,0.0,0.0,0.0,0.0,0.2569,0.1511,0.1323,0.2043,-0.1709,-0.7212,-1.4098,-0.7421,-0.1492,0.3746,0.8542,0.0,0.0,0.0,0.0,0.0,0.6395,0.0,0.0,0.0,0.0,0.0,-0.4991,-0.5104,0.0,-0.648,-0.6423,-0.6063,0.0,0.0,0.0,0.0,-0.7352,-0.8048,-0.7355,-0.6971,-0.6698,-0.6451,-0.66,-0.6827,-0.6987,0.0,0.0,0.0,0.0,0.0,-0.6013,-0.6129,0.0,0.0,-0.7261,0.0,0.0,0.0,-0.7821,-0.8128,-0.9377,-1.0517,0.0,-1.1882,-1.2542,-1.3203,-1.3398,-1.3701,-1.4214,-1.4666,-1.4918,-1.4918,-1.534,-1.5657,-1.5979,-1.558,-1.541,-1.541,-1.541,-1.5584,-1.5921,-1.5921,-1.6083,-1.641,-1.6805,-1.6973,-1.7085,-1.7792,-1.7901,-1.7682,-1.834,-1.8388,-1.8172,-1.8495,-1.8874,-1.9202,0.0,0.0,0.0,0.0,0.0,0.0,0.0,0.0,0.0,0.0,0.0,0.0,0.0,0.0,0.0,0.0,0.0,0.0,0.0,0.0,0.0,0.0,0.0,-0.0097,-0.2551,-0.3903,-0.5858,-0.8441,-0.831,-0.9849,-1.2921,-1.4312,-0.9096,0.1573,0.4563,0.3364,0.0,0.0,0.0,0.0,-0.0862,0.0,0.0,0.0,0.0,0.0,0.0,0.0,0.0,-0.6542,-0.6593,-0.6252,-0.7358,0.0,0.0,0.0,0.0,0.0,-0.8322,-0.8178,-0.7932,-0.7452,-0.7205,-0.7089,-0.7137,0.0,0.0,0.0,0.0,0.0,0.0,0.0,0.0,0.0,0.0,0.0,-0.7953,-0.8037,-0.8339,-0.879,-1.0081,0.0,-1.1765,-1.2456,-1.2881,-1.2881,-1.3303,-1.3786,-1.4291,-1.4756,-1.5023,-1.5126,-1.5468,-1.5592,-1.5586,-1.5603,-1.5633,-1.5748,-1.5748,-1.6083,-1.6652,-1.6652,-1.7034,-1.7633,0.0,0.0,-1.7852,-1.8549,-1.8501,-1.8064,-1.9307,-1.9423,-1.8927,-1.9585,-1.9805,-1.9798,0.0,0.0,0.0,0.0,0.0,0.0,0.0,0.0,0.0,0.0,0.0,0.0,0.0,0.0,0.0,0.0,0.0,0.0,0.0,0.0,0.0,0.0,-0.1757,-0.215,-0.2591,-0.5956,-0.9067,-1.1852,-1.1114,-1.1467,-1.2814,-1.2904,-0.8224,0.0533,0.6738,0.4102,-0.5068,0.0,0.0,-0.6377,-0.484,0.0,0.0,0.0,0.0,0.0,0.0,0.0,0.0,-0.6514,-0.636,-0.6051,-0.7296,0.0,0.0,0.0,0.0,0.0,-0.8766,-0.8932,-0.8902,-0.8149,-0.7648,-0.7421,0.0,0.0,0.0,0.0,0.0,0.0,0.0,0.0,0.0,0.0,0.0,-1.0046,0.0,0.0,-1.0151,-0.9703,0.0,-1.1665,-1.181,-1.2456,-1.2881,-1.2881,-1.3438,-1.3783,-1.3873,-1.426,-1.4754,-1.5246,-1.5238,-1.5653,-1.6579,-1.6395,-1.6647,-1.7241,-1.7241,-1.7296,-1.7413,-1.7413,-1.7468,-1.7627,0.0,-1.8549,-1.8608,-1.9313,-1.9579,-1.9475,-1.9689,-1.9747,-1.9637,-1.9747,-1.9805,-1.9901,0.0,0.0,0.0,0.0,0.0,0.0,0.0,0.0,0.0,0.0,0.0,0.0,0.0,0.0,0.0,0.0,0.0,0.0,0.0,0.0,0.0,-0.1574,-0.3389,-0.4429,-0.4545,-0.6647,-0.8933,-1.136,-1.1321,-1.141,-1.156,-0.926,-0.5837,-0.1433,0.2827,0.2198,-0.2311,0.0,-0.9377,-1.1642,0.0,0.0,0.0,0.0,0.0,0.0,0.0,0.0,0.0,0.0,-0.6065,-0.5784,-0.6997,0.0,0.0,0.0,0.0,0.0,-0.9097,-0.9299,-0.9386,-0.9018,-0.8501,-0.8194,0.0,0.0,0.0,0.0,0.0,0.0,0.0,0.0,0.0,0.0,0.0,-1.0708,-1.0387,-1.0602,-1.1103,0.0,0.0,-1.2487,-1.2841,-1.3489,-1.3747,-1.342,-1.3967,-1.4422,-1.4772,-1.4935,-1.5198,-1.543,-1.5672,-1.6175,-1.7062,-1.72,-1.7364,-1.7578,-1.7578,-1.7792,-1.8172,-1.8172,-1.8388,-1.8821,0.0,-1.9509,-1.9812,-1.9792,-2.0232,-2.0799,-2.049,-2.0527,-2.0848,-2.0848,-2.0848,-2.0848,0.0,0.0,0.0,0.0,0.0,0.0,0.0,0.0,0.0,0.0,0.0,0.0,0.0,0.0,0.0,0.0,0.0,0.0,0.0,0.0,-0.2322,-0.2373,-0.4586,-0.5862,-0.597,-0.6966,-0.8326,-1.0068,-1.0499,-1.0575,-1.0209,-0.6489,-0.4458,-0.3836,-0.1976,-0.105,-0.1232,-0.6221,-1.0908,-1.4754,0.0,0.0,0.0,0.0,0.0,0.0,0.0,0.0,0.0,0.0,0.0,0.0,0.0,0.0,0.0,-0.8464,-0.867,-0.872,-0.9271,-0.9514,-0.9586,-0.9589,0.0,-0.8975,0.0,0.0,0.0,0.0,0.0,0.0,0.0,0.0,0.0,-1.205,-1.1846,-1.1778,-1.1885,-1.1814,-1.2215,-1.3554,-1.3428,-1.3453,-1.3951,-1.4422,-1.452,-1.4055,-1.4555,-1.5101,-1.5588,-1.5588,-1.5676,-1.5814,-1.6004,-1.6526,-1.7345,-1.7641,-1.7909,-1.8124,-1.8124,-1.8388,-1.8986,-1.9137,-1.9405,-1.9798,-2.0137,-2.044,-2.0746,-2.0383,-2.0799,-2.1656,-2.121,-2.1293,-2.1697,-2.1697,-2.1798,-2.1946,0.0,0.0,0.0,0.0,0.0,0.0,0.0,0.0,0.0,0.0,0.0,0.0,0.0,0.0,0.0,0.0,0.0,0.0,0.0,0.0,-0.3909,-0.5501,-0.5551,-0.5456,-0.5269,-0.7279,-0.8667,-0.937,-0.9114,-0.9122,-0.934,-0.6742,-0.5923,-0.6548,-0.517,-0.5516,0.0,0.0,-1.1245,-1.3606,-1.2083,0.0,0.0,0.0,0.0,0.0,0.0,0.0,0.0,0.0,0.0,0.0,0.0,0.0,-0.6831,-0.8132,-0.8304,-0.8257,-0.923,-0.9555,-0.9592,-0.959,0.0,0.0,-0.997,0.0,0.0,0.0,0.0,0.0,0.0,0.0,-1.4084,-1.2908,-1.3684,-1.3991,-1.2819,0.0,-1.4256,-1.3747,-1.4204,-1.456,-1.4612,-1.4658,-1.4703,-1.4658,-1.5186,-1.5543,-1.5588,-1.5588,-1.5864,-1.6423,-1.5901,-1.6191,-1.738,-1.743,-1.8172,-1.9637,-1.9637,-1.9689,-1.9747,-2.0346,-2.0352,-1.985,-2.1037,-2.1293,-2.0845,-2.1335,-2.1609,-2.1697,-2.1656,-2.1656,-2.1697,-2.1697,-2.21,-2.2649,0.0,0.0,0.0,0.0,0.0,0.0,0.0,0.0,0.0,0.0,0.0,0.0,0.0,0.0,0.0,0.0,0.0,0.0,0.0,0.0,-0.4333,-0.4992,-0.6131,-0.6657,-0.6437,-0.7734,-0.8517,-0.8734,-0.8487,-0.8859,-0.973,-0.7049,-0.6252,-0.7011,-0.5119,0.0,0.0,0.0,0.0,-1.2909,-1.204,-1.1654,0.0,0.0,0.0,0.0,0.0,0.0,0.0,0.0,-0.5832,-0.5859,0.0,0.0,0.0,0.0,-0.8001,-0.809,-0.8462,-0.8893,-0.9242,-0.9234,0.0,0.0,0.0,0.0,0.0,0.0,0.0,0.0,0.0,0.0,-1.4555,-1.407,-1.4411,-1.463,-1.4512,-1.4613,-1.4875,-1.5392,-1.5309,-1.5276,-1.5276,-1.5605,-1.565,-1.5281,-1.5826,-1.6145,-1.6145,-1.6145,-1.6238,-1.6472,-1.66,-1.7044,-1.7879,-1.8203,-1.8831,-1.9807,-1.9891,-1.9921,-1.9983,-2.0938,-2.1238,-2.0988,-2.1513,-2.1812,-2.1988,-2.1765,-2.2172,-2.2883,-2.2883,-2.3084,-2.3396,-2.3396,-2.3746,-2.4269,0.0,0.0,0.0,0.0,0.0,0.0,0.0,0.0,0.0,0.0,0.0,0.0,0.0,0.0,0.0,0.0,0.0,0.0,0.0,-0.4776,-0.5412,-0.5577,-0.6812,-0.7466,-0.7418,-0.8008,-0.8282,-0.8237,-0.7959,-0.8357,-0.9368,-0.7287,-0.6689,-0.7337,0.0,0.0,0.0,0.0,0.0,0.0,-1.1805,-1.1557,0.0,0.0,0.0,0.0,0.0,0.0,0.0,0.0,-0.6153,0.0,0.0,0.0,0.0,0.0,0.0,-0.8017,-0.8384,-0.8833,-0.9204,0.0,0.0,0.0,0.0,0.0,0.0,0.0,0.0,0.0,0.0,0.0,0.0,0.0,-1.5152,-1.5427,-1.5826,-1.5517,-1.5561,-1.638,-1.6145,-1.5864,-1.5864,-1.6238,-1.6331,-1.5914,-1.6287,-1.6558,-1.6759,-1.6752,-1.6837,-1.6993,-1.7347,-1.7752,-1.8173,-1.8487,-1.8927,-1.951,-1.9936,-2.0075,-1.9999,-2.1165,-2.162,-2.1441,-2.2048,-2.2553,-2.2935,-2.266,-2.315,-2.4116,-2.4116,-2.4315,-2.4664,-2.4664,-2.4894,-2.5221,0.0,0.0,0.0,0.0,0.0,0.0,0.0,0.0,0.0,0.0,0.0,0.0,0.0,0.0,0.0,0.0,0.0,0.0,-0.6442,-0.6927,-0.7402,-0.7863,-0.7621,-0.7621,-0.7885,-0.8016,-0.803,-0.7899,-0.744,-0.744,-0.7907,-0.7426,-0.7414,-0.7829,0.0,0.0,0.0,0.0,0.0,0.0,-1.1326,-1.1226,-1.107,0.0,0.0,0.0,0.0,0.0,0.0,0.0,-0.6373,-0.6212,0.0,0.0,0.0,0.0,-0.8063,-0.8056,-0.9194,-0.9552,-0.9588,0.0,0.0,0.0,0.0,0.0,0.0,0.0,0.0,0.0,0.0,0.0,0.0,-1.572,-1.6139,-1.6515,-1.6515,-1.6515,-1.6515,-1.6515,-1.6515,-1.6515,-1.6515,-1.6515,-1.6515,-1.6515,-1.6515,-1.6752,-1.7271,-1.7312,-1.7544,-1.8099,-1.8138,-1.8138,-1.8138,-1.8138,-1.8338,-1.8829,-1.996,-2.0273,-1.9876,-2.1146,-2.1386,-2.0927,-2.2805,-2.355,-2.3576,-2.4161,-2.4704,-2.5221,-2.5221,-2.5221,-2.5221,-2.5221,-2.5221,-2.5213,0.0,0.0,0.0,0.0,0.0,0.0,0.0,0.0,0.0,0.0,0.0,0.0,0.0,0.0,0.0,0.0,0.0,0.0,0.0,-0.6321,-0.6418,-0.6894,-0.6668,-0.6645,-0.691,-0.7275,-0.7614,-0.7899,-0.7761,-0.8012,-0.8589,-0.7926,-0.7779,-0.8093,0.0,0.0,0.0,0.0,0.0,0.0,-1.1693,-1.1647,-1.1089,0.0,0.0,0.0,0.0,0.0,0.0,0.0,0.0,0.0,0.0,0.0,0.0,0.0,-0.8057,-0.8501,-0.8451,-0.8813,0.0,0.0,0.0,0.0,0.0,0.0,0.0,0.0,0.0,0.0,0.0,0.0,0.0,-1.6756,-1.6938,-1.707,-1.707,-1.707,-1.707,-1.707,-1.707,-1.707,-1.707,-1.7388,-1.7626,-1.7626,-1.7626,-1.7706,-1.786,-1.8175,-1.8426,-1.8579,-1.9214,-1.9574,-1.9574,-1.9963,-2.02,-2.0335,-2.0689,-2.0833,-2.0842,-2.2057,-2.2794,-2.3139,-2.3702,-2.4218,-2.4713,-2.4894,-2.5067,-2.5221,-2.5221,-2.5411,-2.577,-2.577,-2.5988,-2.628,0.0,0.0,0.0,0.0,0.0,0.0,0.0,0.0,0.0,0.0,0.0,0.0,0.0,0.0,0.0,0.0,0.0,0.0,0.0,0.0,-0.6407,-0.6494,-0.6514,-0.6697,-0.7046,-0.7334,-0.7628,-0.7899,-0.7899,-0.8102,-0.8491,-0.8053,-0.795,-0.816,0.0,-0.8012,0.0,0.0,0.0,0.0,-1.138,-1.1377,-1.0696,0.0,0.0,0.0,0.0,0.0,0.0,0.0,0.0,0.0,0.0,0.0,0.0,-0.8018,-0.8347,-0.875,-0.9328,0.0,0.0,0.0,0.0,0.0,0.0,0.0,0.0,0.0,0.0,0.0,0.0,0.0,0.0,-1.7585,-1.7626,-1.7626,-1.7626,-1.7626,-1.7626,-1.7626,-1.7626,-1.7626,-1.7626,-1.79,-1.8099,-1.8099,-1.8099,-1.8281,-1.8653,-1.8963,-1.928,-1.9667,-2.0229,-2.052,-2.052,-2.0838,-2.1095,-2.1244,-2.1244,-2.1383,-2.1665,-2.2316,-2.2856,-2.3315,-2.4048,-2.4802,-2.5532,-2.5717,-2.5791,-2.5791,-2.5791,-2.598,-2.6297,-2.6297,-2.6479,-2.6691,0.0,0.0,-0.1028,-0.0157,0.0,0.0,0.0,0.0,0.0,0.0,0.0,-0.0443,0.0,0.0,0.0,-0.4617,0.0,0.0,0.0,0.0,-0.7007,-0.6528,-0.6894,-0.7303,-0.7731,-0.7783,-0.7819,-0.7834,-0.7892,-0.792,-0.792,0.0,-0.8011,-0.8123,0.0,-0.8259,0.0,0.0,0.0,0.0,-1.0621,-1.066,-1.0096,-1.0885,0.0,0.0,0.0,0.0,0.0,0.0,0.0,0.0,0.0,0.0,0.0,-0.8717,-0.8876,-0.9074,0.0,0.0,0.0,0.0,0.0,0.0,0.0,0.0,0.0,0.0,0.0,0.0,0.0,-1.8138,-1.8138,-1.8178,-1.8178,-1.8178,-1.8178,-1.8178,-1.8178,-1.8249,-1.8256,-1.8242,-1.8274,-1.8281,-1.832,-1.8352,-1.8313,-1.8729,-1.9685,-1.9748,-2.0173,-2.1023,-2.1095,-2.1134,-2.1134,-2.1134,-2.1314,-2.1658,-2.1658,-2.1899,-2.2299,-2.21,-2.2115,-2.2367,-2.4197,-2.54,-2.6139,-2.6573,-2.675,-2.675,-2.675,-2.6791,-2.6816,-2.6816,-2.6816,-2.6808,0.0,0.0,-0.1028,-0.0157,0.0,0.0,0.0,0.0,0.0,0.0,-0.0597,-0.1349,-0.2215,-0.348,0.0,-0.5972,-0.6908,0.0,0.0,0.0,-0.7161,-0.6522,-0.6449,-0.6455,-0.6558,-0.693,-0.7193,-0.7349,-0.7832,-0.8049,0.0,0.0,0.0,-0.8348,0.0,-0.8592,0.0,0.0,0.0,-0.958,-1.0119,-1.0232,-1.0103,-1.0285,-1.0049,0.0,0.0,0.0,0.0,0.0,0.0,0.0,-0.8678,-0.9025,-0.9242,-0.9126,-0.9737,-1.0445,0.0,-1.079,0.0,0.0,0.0,0.0,0.0,0.0,0.0,0.0,0.0,0.0,-1.8535,-1.8373,-1.8256,-1.865,-1.8734,-1.8734,-1.8734,-1.8734,-1.8871,-1.9244,-1.9288,-1.9404,-1.9723,-1.9803,-1.9966,-2.0351,-2.0043,-2.0078,-2.0674,-2.0991,-2.1251,-2.146,-2.184,-2.202,-2.202,-2.202,-2.2077,-2.2143,-2.2143,-2.2209,-2.2291,-2.2253,-2.3047,-2.4504,-2.5756,-2.6576,-2.7034,-2.7138,-2.7178,-2.7178,-2.7178,-2.7348,-2.7628,-2.7628,-2.7628,-2.7598,0.0,0.0,0.0,0.0,0.0,0.0,0.0,0.0,-0.077,-0.1181,-0.1647,-0.2328,-0.3397,-0.4298,0.0,0.0,-0.7421,-0.7621,0.0,0.0,0.0,-0.6575,-0.6451,-0.6485,-0.6669,-0.705,-0.7169,-0.7059,-0.7759,0.0,0.0,0.0,0.0,-0.8603,0.0,-0.8841,0.0,0.0,-0.9574,-0.9717,-0.9991,-1.0098,-1.0105,-1.0101,-0.9872,-0.9547,-0.9443,0.0,0.0,0.0,0.0,0.0,0.0,0.0,-0.969,-0.9536,-0.9893,-1.0451,0.0,0.0,0.0,0.0,0.0,0.0,0.0,0.0,0.0,0.0,0.0,-1.8334,-1.9125,-1.905,-1.8968,-1.9244,-1.9288,-1.9347,-1.9535,-1.9571,-1.9735,-2.0215,-2.0257,-2.0343,-2.0561,-2.0593,-2.0723,-2.0991,-2.0756,-2.0821,-2.1275,-2.1499,-2.1688,-2.1936,-2.2172,-2.231,-2.231,-2.231,-2.231,-2.231,-2.231,-2.2369,-2.25,-2.25,-2.3308,-2.4751,-2.5547,-2.6317,-2.7031,-2.7209,-2.7409,-2.7598,-2.7598,-2.7716,-2.7869,-2.7678,-2.7745,-2.784,0.0,0.0,0.0,0.0,0.0,0.0,0.0,0.0,0.0,-0.2489,-0.2794,-0.3323,-0.439,-0.5151,-0.6046,0.0,0.0,0.0,-0.7282,0.0,0.0,0.0,-0.6752,-0.6927,-0.7256,-0.7485,-0.7424,-0.7066,0.0,0.0,0.0,0.0,0.0,-0.8821,0.0,0.0,0.0,0.0,-0.9676,-0.9816,-1.0023,-1.0107,-1.012,-1.0119,-0.9844,-0.9466,-0.945,-0.9484,-0.9501,-0.9483,0.0,0.0,0.0,0.0,-0.9487,-0.9739,-0.9749,-1.0057,0.0,0.0,0.0,0.0,0.0,0.0,0.0,0.0,0.0,0.0,0.0,-1.905,-1.9603,-1.9682,-1.9682,-1.9682,-1.9682,-1.9818,-2.0158,-2.0193,-2.039,-2.0934,-2.0999,-2.1063,-2.1197,-2.1158,-2.1126,-2.1229,-2.1158,-2.1275,-2.1697,-2.1718,-2.1899,-2.2282,-2.231,-2.231,-2.231,-2.231,-2.233,-2.2369,-2.2443,-2.2607,-2.2864,-2.2864,-2.3418,-2.4435,-2.4804,-2.5595,-2.6587,-2.6874,-2.7216,-2.7573,-2.7573,-2.7708,-2.7824,-2.7505,-2.765,-2.7945,0.0,0.0,0.0,0.0,0.0,0.0,0.0,0.0,0.0,0.0,-0.3557,-0.4309,-0.4485,-0.6104,-0.7259,-0.7451,-0.8013,-0.811,0.0,0.0,0.0,0.0,-0.7339,-0.7499,-0.7545,-0.7582,-0.7657,-0.7768,0.0,0.0,0.0,0.0,0.0,-0.8894,0.0,0.0,0.0,0.0,-0.9681,-0.9816,-1.0024,-1.0133,-1.019,-1.019,-1.0001,-0.9738,-0.9682,-0.9443,-0.9222,-0.9614,-0.9521,0.0,0.0,0.0,-0.9264,-0.9419,-0.9776,-1.0225,0.0,0.0,0.0,0.0,0.0,0.0,0.0,0.0,0.0,0.0,-1.8848,-1.905,-1.9603,-1.9682,-1.9682,-1.9682,-1.9682,-1.9718,-1.9782,-1.9782,-2.0077,-2.0894,-2.0999,-2.13,-2.2049,-2.1764,-2.1697,-2.2115,-2.1764,-2.1726,-2.2172,-2.2209,-2.2245,-2.231,-2.231,-2.231,-2.231,-2.231,-2.2434,-2.266,-2.2931,-2.3253,-2.3575,-2.3575,-2.4028,-2.4815,-2.4886,-2.5371,-2.6074,-2.5843,-2.593,-2.6242,-2.6242,-2.6877,-2.7821,-2.7757,-2.8,-2.8281,0.0,0.0,0.0,0.0,0.0,0.0,0.0,0.0,0.0,0.0,0.0,-0.4877,-0.4994,-0.6162,-0.7051,-0.7299,-0.788,0.0,0.0,0.0,0.0,0.0,-0.7254,-0.7324,-0.7219,-0.7469,-0.7462,0.0,0.0,0.0,0.0,-0.8217,-0.8599,0.0,0.0,0.0,0.0,0.0,0.0,-0.9922,-1.005,-1.0433,-1.087,-1.0301,-1.0251,-1.0397,-0.984,-0.946,-0.922,-0.9325,-0.9409,-0.9446,-0.9232,0.0,0.0,0.0,0.0,0.0,0.0,0.0,0.0,0.0,0.0,0.0,0.0,0.0,0.0,0.0,-1.8593,-1.897,-1.9579,-1.9682,-1.9682,-1.9682,-1.9682,-1.9782,-1.9992,-2.0269,-2.0665,-2.1275,-2.1584,-2.1886,-2.2245,-2.2106,-2.2077,-2.2274,-2.2106,-2.2069,-2.2282,-2.231,-2.231,-2.231,-2.2445,-2.2519,-2.2519,-2.2721,-2.2849,-2.2988,-2.3314,-2.3566,-2.3723,-2.3887,-2.4167,-2.4531,-2.4747,-2.5167,-2.5663,-2.5754,-2.6,-2.6331,-2.6331,-2.6657,-2.7074,-2.6666,-2.7033,-2.7659,0.0,0.0,0.0,0.0,0.0,0.0,0.0,0.0,0.0,0.0,0.0,-0.526,-0.5476,0.0,0.0,0.0,-0.7701,0.0,0.0,0.0,0.0,0.0,0.0,-0.7254,-0.7155,-0.7506,0.0,0.0,0.0,0.0,-0.7833,-0.8034,-0.8497,0.0,-0.92,0.0,0.0,0.0,0.0,-1.0033,-1.0326,-1.0878,-1.1441,-1.0895,-1.0958,-1.1239,-1.0326,-0.9879,-0.9645,-0.9255,-0.9377,-0.9579,-0.8988,0.0,0.0,0.0,0.0,0.0,0.0,0.0,0.0,0.0,0.0,0.0,0.0,0.0,0.0,0.0,-1.8278,-1.8605,-1.9099,-1.9181,-1.9181,-1.9181,-1.9323,-1.9597,-2.0007,-2.0514,-2.1023,-2.1529,-2.1899,-2.2172,-2.2282,-2.231,-2.231,-2.231,-2.231,-2.233,-2.2407,-2.2407,-2.2426,-2.2535,-2.2721,-2.2822,-2.2822,-2.3165,-2.3323,-2.3337,-2.3671,-2.3825,-2.3846,-2.4094,-2.4199,-2.4207,-2.4429,-2.4735,-2.5106,-2.5339,-2.5646,-2.5997,-2.5997,-2.6245,-2.6503,-2.567,-2.6209,-2.7253,0.0,0.0,0.0,0.0,0.0,0.0,0.0,0.0,0.0,0.0,0.0,-0.5476,-0.5749,-0.6779,-0.7355,-0.7121,-0.754,0.0,0.0,0.0,0.0,0.0,0.0,0.0,0.0,0.0,0.0,0.0,0.0,0.0,-0.8728,-0.8359,-0.8579,-0.9284,-0.9105,-0.9193,-0.9526,0.0,0.0,-1.0086,-1.1038,-1.146,-1.158,-1.2296,-1.2458,-1.2219,-1.1405,0.0,0.0,0.0,0.0,0.0,-0.8908,-0.8781,-0.879,0.0,0.0,0.0,0.0,0.0,0.0,0.0,0.0,0.0,0.0,0.0,0.0,0.0,-1.8175,-1.7749,-1.7787,-1.7787,-1.7787,-1.7787,-1.8351,-1.8918,-1.9375,-1.996,-2.0641,-2.1491,-2.162,-2.1794,-2.2254,-2.231,-2.231,-2.231,-2.231,-2.2398,-2.2678,-2.2678,-2.2822,-2.315,-2.3174,-2.3165,-2.3165,-2.3522,-2.3662,-2.3671,-2.4016,-2.417,-2.417,-2.419,-2.4199,-2.417,-2.3891,-2.3951,-2.4235,-2.3946,-2.4015,-2.4318,-2.4318,-2.5263,-2.646,-2.5335,-2.6179,-2.7692,0.0,0.0,0.0,0.0,0.0,0.0,0.0,0.0,0.0,0.0,0.0,0.0,0.0,-0.6135,-0.675,-0.6962,-0.7251,0.0,0.0,0.0,0.0,0.0,0.0,0.0,0.0,0.0,0.0,0.0,0.0,-0.809,-0.8477,-0.8457,-0.8756,-0.9305,-0.9314,-0.9412,-0.9591,-0.9877,0.0,-1.0148,-1.1112,-1.1808,-1.2291,-1.2494,-1.2873,-1.3182,-1.2294,0.0,0.0,0.0,0.0,-1.0057,-0.9304,-0.8976,-0.8953,-0.9259,0.0,0.0,0.0,0.0,0.0,0.0,0.0,0.0,0.0,0.0,-1.77,-1.7463,-1.7227,-1.6936,-1.6548,-1.7161,-1.769,-1.769,-1.8276,-1.8865,-1.9321,-2.0175,-2.0951,-2.1521,-2.1869,-2.2115,-2.2274,-2.231,-2.231,-2.231,-2.231,-2.2434,-2.2704,-2.2695,-2.2839,-2.3189,-2.3414,-2.3619,-2.3846,-2.3967,-2.4016,-2.4016,-2.4142,-2.4199,-2.4199,-2.4199,-2.4199,-2.419,-2.4065,-2.4094,-2.4199,-2.4074,-2.4094,-2.4199,-2.4199,-2.4548,-2.4955,-2.4127,-2.4571,-2.5491,0.0,0.0,0.0,-0.4309,0.0,-0.4398,-0.4309,-0.4522,-0.4677,-0.4578,0.0,0.0,0.0,0.0,-0.6491,-0.6868,-0.6966,-0.6973,-0.6901,0.0,0.0,0.0,0.0,0.0,0.0,0.0,0.0,0.0,0.0,0.0,0.0,-0.8779,-0.9093,-0.9501,-0.9599,-0.9666,0.0,0.0,0.0,-1.021,0.0,-1.2238,-1.2752,0.0,-1.3792,-1.415,0.0,0.0,0.0,0.0,0.0,0.0,-1.0069,-0.9464,-0.9192,-0.9664,-1.0292,0.0,-1.1656,0.0,0.0,0.0,0.0,0.0,0.0,0.0,-1.7415,-1.6832,-1.654,-1.6286,-1.5873,-1.648,-1.7064,-1.7064,-1.7927,-1.8755,-1.9202,-2.0368,-2.1376,-2.1794,-2.2106,-2.231,-2.231,-2.231,-2.231,-2.231,-2.2379,0.0,-2.2839,-2.2963,-2.3218,-2.362,-2.3844,-2.4107,-2.441,-2.4401,-2.4401,-2.4401,-2.4401,-2.4366,-2.4303,-2.4303,-2.4256,-2.4199,-2.4199,-2.4199,-2.4199,-2.4199,-2.4199,-2.4199,-2.4199,-2.4364,-2.4489,-2.3544,-2.3828,-2.4584,-0.4329,-0.4329,-0.435,-0.435,-0.4565,-0.4659,-0.4386,-0.4565,-0.4827,-0.5088,0.0,0.0,0.0,0.0,0.0,-0.6884,-0.6729,-0.6695,-0.6901,-0.6723,0.0,0.0,0.0,0.0,0.0,0.0,0.0,0.0,0.0,0.0,0.0,0.0,-0.9579,-0.9908,-0.9908,-0.9909,-0.9919,0.0,-1.0113,-1.0287,0.0,-1.2749,-1.2928,0.0,0.0,0.0,-1.4169,-1.3838,0.0,-1.2791,0.0,0.0,0.0,-1.0212,-0.9461,-1.0073,-1.0569,0.0,0.0,0.0,0.0,0.0,0.0,0.0,0.0,0.0,-1.7122,-1.6766,-1.6196,-1.5776,-1.5799,-1.5799,-1.5799,-1.5799,-1.7233,-1.8496,-1.8896,-2.0445,-2.1731,-2.2212,-2.2265,-2.231,-2.231,-2.231,-2.231,-2.2302,-2.2555,-2.2839,-2.3198,-2.3535,-2.3972,-2.4486,-2.4512,-2.4591,-2.4804,-2.4804,-2.4804,-2.4804,-2.4804,-2.47,-2.4512,-2.4512,-2.4401,-2.4209,-2.4209,-2.4209,-2.4218,-2.4199,-2.4199,-2.4199,-2.4199,-2.4676,-2.5196,-2.3746,-2.4145,-2.5226,-0.4923,-0.5199,-0.5456,-0.5456,-0.5512,-0.5545,-0.5475,-0.5531,-0.5531,0.0,0.0,0.0,-0.5869,-0.6312,-0.6674,-0.6884,-0.6848,-0.6901,-0.7105,-0.7253,-0.7369,-0.7492,-0.7628,-0.7746,0.0,0.0,0.0,0.0,0.0,0.0,0.0,0.0,0.0,0.0,-0.9971,-1.0035,-1.012,-1.0097,0.0,-1.1155,-1.166,-1.2599,0.0,0.0,0.0,0.0,0.0,-1.4788,-1.4639,0.0,-1.3833,-1.3057,0.0,0.0,-1.0593,-1.1247,-1.1426,-1.1563,-1.2343,0.0,0.0,0.0,0.0,0.0,0.0,0.0,0.0,-1.5924,-1.5523,-1.5229,-1.5716,-1.5799,-1.5799,-1.5799,-1.6814,-1.7646,-1.7809,-1.956,-2.0858,-2.1035,-2.1807,-2.231,-2.231,-2.231,-2.2388,0.0,-2.266,-2.2947,-2.3522,-2.4022,-2.4407,-2.4716,-2.4716,-2.4736,-2.4804,-2.4804,-2.4804,-2.4804,-2.4804,-2.4775,-2.4716,-2.4716,-2.4685,-2.4623,-2.4623,-2.4552,-2.441,-2.4256,-2.4199,-2.4199,-2.4199,-2.4337,-2.4415,-2.3517,-2.3463,-2.371,-0.5323,-0.5611,-0.5869,-0.5745,-0.5985,-0.6129,-0.5924,-0.6057,-0.6088,0.0,0.0,0.0,-0.6159,-0.6436,-0.6642,-0.6757,-0.6771,-0.6825,-0.6934,-0.71,-0.7219,-0.7298,-0.7507,-0.7665,-0.7776,0.0,0.0,0.0,0.0,0.0,0.0,0.0,0.0,0.0,-1.0038,-1.0089,-1.0165,-1.0156,0.0,0.0,-1.1777,0.0,0.0,-1.4318,-1.4882,0.0,0.0,0.0,-1.5174,-1.5558,-1.5033,0.0,0.0,-1.226,-1.1547,-1.1892,-1.2084,0.0,0.0,0.0,0.0,0.0,0.0,0.0,-1.5376,-1.5167,0.0,0.0,-1.5491,-1.5369,-1.5915,-1.6096,-1.6233,-1.64,-1.6916,-1.7329,-1.74,-1.9212,-2.0561,-2.0598,-2.1616,-2.231,-2.231,-2.2424,-2.2563,-2.2695,-2.2972,-2.3397,-2.4011,-2.4407,-2.4697,-2.4887,-2.4877,-2.4926,-2.5009,-2.5009,-2.5009,-2.5009,-2.5009,-2.4962,-2.4877,-2.4877,-2.4846,-2.4804,-2.4804,-2.4731,-2.4617,-2.4495,-2.4348,-2.4199,-2.4199,-2.4199,-2.4122,-2.3446,-2.3189,-2.3102,0.0,-0.5782,-0.5887,-0.5614,-0.6135,-0.6452,-0.6045,-0.6336,-0.6497,0.0,-0.6195,-0.6295,-0.6535,-0.6558,-0.6593,-0.6655,-0.6644,-0.6661,-0.674,-0.674,-0.6824,-0.7,-0.7176,-0.7394,-0.7627,-0.7841,0.0,0.0,0.0,0.0,0.0,0.0,0.0,0.0,-1.0104,-1.0104,-1.0104,-1.0175,-1.0246,-1.0471,-1.2093,-1.2822,0.0,0.0,-1.5284,-1.5307,-1.5294,-1.5293,-1.5416,-1.6224,-1.6,0.0,-1.4344,-1.346,-1.2696,-1.2474,-1.2857,0.0,-1.3193,-1.3703,0.0,0.0,-1.5041,0.0,-1.571,-1.5718,-1.5623,0.0,-1.572,-1.5819,-1.6208,-1.6521,-1.6863,-1.7234,-1.7361,-1.741,-1.7444,-1.9138,-2.0451,-2.0525,-2.1523,-2.2265,-2.2349,-2.2624,-2.2798,-2.2822,-2.3428,-2.4011,-2.4502,-2.4731,-2.4887,-2.5022,-2.5034,-2.512,-2.5293,-2.5293,-2.5293,-2.5293,-2.5293,-2.5214,-2.5034,-2.5034,-2.4968,-2.4861,-2.4861,-2.4837,-2.4823,-2.4823,-2.4607,-2.4247,-2.4238,-2.4219,-2.4143,-2.3491,-2.3268,-2.3174,-0.5832,-0.6165,-0.6372,-0.6112,-0.636,-0.6575,-0.6471,-0.6541,-0.6505,-0.623,-0.6195,-0.6212,-0.6271,-0.6271,-0.6485,-0.7034,-0.6944,-0.7064,-0.7612,-0.7642,-0.7665,-0.7709,-0.7731,-0.7783,-0.7834,-0.8143,-0.8317,0.0,0.0,0.0,0.0,0.0,0.0,0.0,-1.0104,-1.0104,-1.0104,-1.0175,-1.0568,-1.1202,-1.1606,0.0,-1.3877,-1.4219,-1.4775,-1.5374,-1.5316,-1.5303,-1.5416,-1.6224,-1.6804,-1.7024,0.0,-1.5672,-1.5364,-1.4583,-1.4934,-1.5555,-1.5479,-1.5993,-1.6405,-1.5735,-1.5914,0.0,-1.5018,-1.4895,-1.5034,0.0,-1.518,-1.5338,-1.5958,-1.6637,-1.7124,-1.7207,-1.7729,-1.7994,-1.7675,-1.8566,-1.9449,-2.0059,-2.1073,-2.1973,-2.2556,-2.2686,-2.2931,-2.3468,-2.4022,-2.4467,-2.4731,-2.4891,-2.5053,-2.5234,-2.5244,-2.5264,-2.5293,-2.5293,-2.5293,-2.5293,-2.5293,-2.5283,-2.5244,-2.5244,-2.5223,-2.5202,-2.5202,-2.5107,-2.4962,-2.4962,-2.4841,-2.467,-2.4502,-2.4436,-2.4365,-2.3801,-2.3588,-2.3544,-0.607,-0.6354,-0.6517,-0.6254,-0.651,-0.6712,-0.6616,-0.6678,-0.6666,-0.6429,-0.6395,-0.6395,-0.6395,-0.6395,-0.6527,-0.6875,-0.6815,-0.6898,-0.7235,-0.7345,-0.7446,-0.7538,-0.7687,-0.7834,-0.7989,-0.816,-0.8367,0.0,0.0,0.0,0.0,0.0,0.0,0.0,-1.0104,-1.0104,-1.0104,-1.0175,-1.0412,-1.0829,-1.1769,0.0,-1.415,-1.458,-1.5017,-1.54,-1.5357,-1.5594,-1.5896,-1.5865,-1.6676,0.0,-1.6677,-1.6651,-1.6774,0.0,-1.5862,-1.6148,-1.6111,-1.6375,-1.6634,-1.6573,0.0,0.0,0.0,-1.5932,-1.597,-1.6247,-1.5963,-1.5929,-1.6862,-1.7163,-1.7436,-1.8013,-1.8485,-1.8759,-1.8625,-1.9251,-1.9902,-2.0261,-2.1296,-2.2161,-2.2643,-2.2839,-2.3264,-2.4041,-2.4441,-2.4712,-2.4891,-2.5063,-2.5203,-2.5303,-2.5293,-2.5312,-2.5341,-2.5341,-2.537,-2.5399,-2.537,-2.5341,-2.5341,-2.5312,-2.5293,-2.5293,-2.5293,-2.5244,-2.5152,-2.5152,-2.5107,-2.5022,-2.4751,-2.4584,-2.4452,-2.4014,-2.3792,-2.364,-0.6207,-0.6383,-0.65,-0.6207,-0.6561,-0.6841,-0.6678,-0.6791,-0.6824,-0.6633,-0.6693,-0.6755,-0.6755,-0.6856,-0.6936,-0.6984,-0.6883,-0.6872,-0.6935,-0.6993,-0.7125,-0.7318,-0.7538,-0.7804,-0.8096,-0.8137,-0.8364,-0.8785,0.0,0.0,0.0,-0.9807,-0.9955,-1.0082,0.0,0.0,0.0,0.0,0.0,-1.0733,0.0,-1.3109,-1.3705,-1.4746,-1.5146,-1.5174,-1.5342,-1.5777,-1.6191,-1.564,-1.6461,-1.7597,-1.6936,-1.7375,0.0,0.0,0.0,-1.6865,0.0,0.0,-1.698,-1.7539,0.0,-1.7455,0.0,0.0,0.0,-1.7465,-1.7052,0.0,0.0,0.0,0.0,0.0,0.0,0.0,0.0,-2.0297,0.0,-2.0736,-2.1639,-2.2428,-2.2848,-2.3218,-2.3735,-2.4452,-2.4706,-2.4887,-2.4989,-2.5194,-2.5293,-2.5293,-2.5303,-2.5341,-2.5399,-2.5408,-2.5454,-2.5502,-2.5436,-2.5399,-2.5399,-2.5322,-2.5293,-2.5293,-2.5293,-2.5293,-2.5293,-2.5293,-2.5293,-2.5273,-2.4962,-2.4741,-2.4563,-2.4254,-2.4044,-2.3864,-0.6027,-0.629,-0.6454,-0.6009,-0.6464,-0.6884,-0.6868,-0.6884,-0.6824,-0.6633,-0.7006,-0.7306,-0.7306,0.0,0.0,0.0,-0.7939,-0.782,-0.8174,-0.7774,-0.7612,-0.7812,-0.7848,-0.7948,-0.8096,-0.828,-0.8484,-0.8712,0.0,0.0,0.0,0.0,-0.9881,-1.0016,-1.0016,0.0,0.0,0.0,-1.1002,0.0,-1.2632,-1.2343,0.0,-1.3623,-1.4248,-1.4346,-1.5115,-1.542,-1.5528,0.0,-1.699,-1.7764,0.0,-1.8679,-1.9671,-1.8018,0.0,0.0,0.0,0.0,0.0,0.0,-1.9066,0.0,0.0,0.0,-1.8237,-1.7553,0.0,0.0,0.0,0.0,0.0,0.0,0.0,0.0,-2.0365,-2.087,-2.1233,-2.1305,-2.1794,-2.2504,-2.3491,-2.4051,-2.4399,-2.4486,-2.4799,-2.4977,-2.5001,-2.5194,-2.5293,-2.5293,-2.5361,-2.539,-2.5399,-2.5463,-2.5488,-2.5497,-2.5425,-2.5397,-2.5399,-2.5322,-2.5293,-2.5293,-2.5293,-2.5293,-2.5293,-2.5293,-2.5293,-2.5283,-2.5065,-2.4965,-2.4927,-2.4766,-2.4687,-2.4672,-0.6343,-0.6471,-0.6547,-0.6343,-0.6535,-0.6729,-0.6729,-0.6987,-0.7087,-0.6813,-0.7039,0.0,0.0,0.0,0.0,0.0,0.0,-0.824,0.0,0.0,0.0,-0.8295,-0.805,-0.8012,-0.8267,-0.8434,-0.8694,-0.9045,-0.9294,0.0,0.0,0.0,-0.9933,-1.0061,-1.0061,0.0,-1.0819,0.0,-1.081,0.0,0.0,0.0,0.0,-1.3936,-1.4817,-1.4902,-1.5273,-1.5382,-1.5402,0.0,-1.6382,0.0,0.0,0.0,0.0,-1.8732,0.0,0.0,0.0,0.0,0.0,0.0,0.0,0.0,-1.9059,0.0,-1.9198,0.0,0.0,0.0,0.0,0.0,0.0,0.0,-2.0075,0.0,0.0,0.0,-2.144,0.0,0.0,0.0,-2.289,-2.3916,-2.4552,-2.4679,-2.4881,-2.5055,-2.5172,-2.5244,-2.5293,-2.5293,-2.5322,-2.536,-2.5397,-2.5428,-2.5463,-2.5498,-2.5425,-2.5397,-2.5399,-2.5322,-2.5293,-2.5293,-2.5293,-2.5293,-2.5293,-2.5293,-2.5293,-2.5293,-2.5214,-2.5099,-2.4989,-2.4933,-2.486,-2.4804,-0.6599,0.0,-0.6599,-0.6604,-0.6644,-0.6729,-0.6899,-0.7218,-0.7353,-0.7147,-0.7261,0.0,-0.7417,-0.7514,0.0,0.0,-0.8275,-0.8553,0.0,-0.8444,-0.8363,-0.8935,-0.828,-0.8146,-0.8661,-0.8582,-0.877,-0.9246,-0.9403,0.0,0.0,0.0,-0.9965,-1.0074,-1.0074,-1.0576,-1.1358,0.0,-1.1089,-1.2089,-1.2089,-1.2243,-1.265,-1.4331,-1.5146,-1.54,-1.54,-1.54,-1.539,-1.5344,-1.5887,0.0,-1.7629,-1.8452,-1.9146,0.0,0.0,0.0,-1.9386,0.0,0.0,0.0,0.0,0.0,0.0,0.0,0.0,0.0,0.0,0.0,0.0,0.0,0.0,0.0,0.0,-2.0309,0.0,0.0,0.0,0.0,0.0,0.0,0.0,-2.3349,-2.4093,-2.4422,-2.4635,-2.4881,-2.5204,-2.5264,-2.5293,-2.5293,-2.5312,-2.535,-2.5398,-2.5418,-2.5449,-2.5496,-2.5424,-2.5399,-2.5399,-2.5322,-2.5293,-2.5293,-2.5293,-2.5293,-2.5293,-2.5293,-2.5293,-2.5293,-2.5293,-2.5214,-2.5078,-2.5078,-2.5027,-2.4932,-0.6599,-0.6599,0.0,0.0,-0.6754,-0.7091,-0.7661,-0.7603,-0.7539,-0.7659,-0.785,0.0,0.0,0.0,0.0,0.0,0.0,-0.8884,-0.9807,-0.8753,-0.8624,-0.9812,-0.8596,-0.836,-0.935,-0.8738,-0.8632,-0.9107,-0.9305,0.0,0.0,0.0,0.0,0.0,-0.9997,-1.0522,-1.1396,-1.1368,-1.231,-1.3819,-1.3819,-1.4363,-1.5098,0.0,-1.4658,-1.54,-1.54,0.0,0.0,-1.54,-1.5928,0.0,0.0,0.0,0.0,0.0,0.0,0.0,0.0,0.0,0.0,-2.0292,0.0,0.0,0.0,0.0,-2.0277,0.0,0.0,0.0,0.0,0.0,0.0,0.0,0.0,0.0,0.0,0.0,0.0,0.0,0.0,0.0,0.0,-2.2416,-2.2835,0.0,-2.3909,-2.4399,-2.4984,-2.5194,-2.5293,-2.5293,-2.5361,-2.5399,-2.5399,-2.5467,-2.5505,-2.5495,-2.5428,-2.5399,-2.5399,-2.5322,-2.5293,-2.5293,-2.5293,-2.5293,-2.5293,-2.5293,-2.5293,-2.5293,-2.5293,-2.5303,-2.5293,-2.5293,-2.5283,-2.5283,0.0,0.0,0.0,0.0,0.0,-0.7047,-0.7477,-0.8118,-0.8393,0.0,-0.8032,0.0,0.0,-0.7934,-0.8283,0.0,0.0,-0.9517,-1.0503,-0.9756,-0.9643,-1.0457,-0.968,-0.9277,-0.9405,-0.9269,-0.9209,-0.9237,-0.9386,0.0,0.0,0.0,0.0,0.0,0.0,-1.0879,0.0,0.0,0.0,0.0,0.0,-1.4529,-1.5342,0.0,-1.5139,-1.54,-1.54,-1.54,0.0,-1.54,-1.5576,-1.6052,-1.7457,-1.8056,-1.8518,-1.9964,-2.035,-2.0306,0.0,0.0,-2.0305,-2.0364,0.0,0.0,0.0,0.0,0.0,0.0,0.0,0.0,0.0,0.0,0.0,0.0,0.0,0.0,0.0,0.0,0.0,0.0,0.0,0.0,0.0,0.0,0.0,0.0,-2.4368,0.0,-2.4991,-2.5194,-2.5293,-2.5293,-2.5312,-2.5322,-2.5322,-2.5361,-2.537,-2.537,-2.5332,-2.5322,-2.5322,-2.5303,-2.5293,-2.5293,-2.5293,-2.5293,-2.5293,-2.5293,-2.5293,-2.5293,-2.5293,-2.5293,-2.5293,-2.5293,-2.5293,-2.5293,-0.742,0.0,0.0,0.0,0.0,-0.7395,-0.793,-0.8742,-0.9125,0.0,-0.8534,0.0,-0.7985,0.0,-0.8107,0.0,-0.9266,-0.9938,-1.0849,-1.0384,0.0,-1.1113,-1.0417,-1.0,-0.9993,-1.004,-0.989,-0.9545,-0.9752,-0.9851,0.0,0.0,0.0,0.0,0.0,-1.1358,-1.268,-1.243,-1.3152,0.0,0.0,-1.4856,0.0,0.0,-1.5403,-1.54,0.0,-1.54,-1.54,-1.54,-1.54,-1.5701,-1.7404,-1.7868,-1.8146,-1.9949,-2.0412,-2.0361,-2.0455,-2.0425,0.0,-2.0419,-2.0393,0.0,-2.0394,0.0,-2.0337,0.0,0.0,0.0,0.0,0.0,0.0,0.0,0.0,0.0,0.0,-1.9134,0.0,0.0,0.0,0.0,0.0,0.0,-2.272,-2.3114,-2.3932,0.0,0.0,-2.5194,-2.5293,-2.5293,-2.5293,-2.5293,-2.5293,-2.5293,-2.5293,-2.5293,-2.5293,-2.5293,-2.5293,-2.5293,-2.5293,-2.5293,-2.5293,-2.5293,-2.5293,-2.5293,-2.5293,-2.5293,-2.5293,-2.5293,-2.5293,-2.5293,-2.5293,-2.5293,-0.7377,0.0,0.0,0.0,-0.7659,0.0,0.0,0.0,-0.9701,0.0,-0.9308,-0.8957,-0.8469,-0.8363,-0.8481,-0.8767,-0.9439,-1.0141,-1.0849,-1.0611,0.0,0.0,-1.0836,-1.0554,-1.1134,-1.1027,-1.067,-1.0081,-1.0364,0.0,0.0,0.0,0.0,0.0,-1.098,0.0,-1.2757,-1.3628,-1.45,-1.5314,-1.5374,-1.5403,-1.54,-1.5403,-1.5397,-1.54,-1.54,-1.54,-1.54,-1.54,-1.54,-1.5703,-1.7451,-1.791,-1.8171,-2.0044,-2.0504,-2.0435,-2.0563,-2.0547,-2.0501,-2.0498,-2.045,0.0,0.0,0.0,-2.0393,0.0,0.0,0.0,0.0,0.0,0.0,0.0,0.0,0.0,0.0,0.0,0.0,0.0,0.0,0.0,0.0,-2.0379,-2.1003,-2.2404,-2.2758,0.0,0.0,-2.5194,-2.5293,-2.5293,-2.5293,-2.5293,-2.5293,-2.5293,-2.5293,-2.5293,-2.5293,-2.5293,-2.5293,-2.5293,-2.5293,-2.5293,-2.5293,-2.5293,-2.5293,-2.5293,-2.5293,-2.5293,-2.5293,-2.5293,-2.5293,-2.5293,-2.5293,-2.5293,-0.8822,-0.9461,-0.9953,0.0,-0.943,-0.9272,0.0,0.0,0.0,0.0,-0.9794,-0.9591,-0.8515,-0.8921,-0.9136,-0.8834,-0.9815,0.0,0.0,0.0,0.0,-1.2066,-1.1829,-1.17,-1.1699,-1.1808,-1.1642,-1.1185,-1.0825,0.0,-1.0675,0.0,0.0,0.0,0.0,0.0,-1.2757,-1.3628,-1.4495,-1.5299,-1.5322,-1.533,-1.5328,0.0,-1.5361,-1.54,-1.5403,-1.54,-1.54,-1.54,-1.54,-1.5703,-1.7393,-1.7895,-1.8217,-1.9999,-2.0504,-2.0487,-2.0578,-2.0547,-2.0507,-2.0562,-2.049,-2.0431,0.0,0.0,0.0,0.0,0.0,0.0,0.0,0.0,0.0,0.0,0.0,0.0,0.0,0.0,0.0,-2.042,0.0,0.0,0.0,-2.1471,-2.2306,-2.249,-2.3841,0.0,0.0,0.0,-2.5293,-2.5293,-2.5293,-2.5293,-2.5293,-2.5293,-2.5293,-2.5293,-2.5293,-2.5293,-2.5293,-2.5293,-2.5293,-2.5293,-2.5293,-2.5293,-2.5293,-2.5293,-2.5293,-2.5293,-2.5293,-2.5293,-2.5293,-2.5293,-2.5293,-2.5293,-0.9543,-1.0463,0.0,-1.209,0.0,0.0,-1.0672,-1.106,0.0,-1.018,-1.037,0.0,-0.9346,-0.982,-1.0095,-0.9788,-1.086,0.0,-1.1257,0.0,0.0,-1.2192,-1.2506,-1.2578,-1.2346,-1.2747,0.0,-1.2042,-1.1463,0.0,-1.094,0.0,0.0,0.0,0.0,-1.2242,-1.2786,-1.4043,-1.4849,-1.5302,-1.5305,-1.5301,0.0,-1.5301,-1.5338,-1.5401,-1.5401,-1.5395,-1.5459,-1.584,-1.5967,-1.6269,-1.7969,-1.8486,-1.8738,-2.0139,-2.0514,-2.0514,-2.0575,-2.0566,-2.0547,-2.0586,-2.0541,-2.051,-2.0576,-2.057,-2.0548,0.0,-2.0581,-2.0705,0.0,0.0,0.0,0.0,0.0,0.0,0.0,0.0,0.0,0.0,-2.0114,0.0,0.0,-2.1195,-2.17,-2.1541,-2.3199,-2.4322,0.0,0.0,-2.5293,-2.5293,-2.5293,-2.5293,-2.5293,-2.5293,-2.5293,-2.5293,-2.5293,-2.5293,-2.5293,-2.5293,-2.5293,-2.5293,-2.5293,-2.5293,-2.5293,-2.5293,-2.5293,-2.5293,-2.5293,-2.5293,-2.5293,-2.5293,-2.5293,-2.5293,-1.0276,0.0,0.0,0.0,0.0,0.0,0.0,-1.2164,0.0,-1.1179,0.0,-1.1061,-1.0529,-1.105,-1.1301,-1.1007,-1.2121,-1.2561,-1.1939,-1.2738,-1.3019,-1.2501,-1.3035,-1.3244,-1.3048,-1.3633,-1.3583,-1.2816,-1.2164,-1.1574,0.0,0.0,0.0,0.0,0.0,0.0,0.0,-1.4661,-1.5302,-1.5301,-1.5291,-1.5291,-1.5301,-1.5301,-1.5339,-1.5407,-1.5528,-1.5501,-1.5527,-1.6406,-1.6699,-1.7002,-1.875,-1.9258,-1.9404,-2.0332,-2.0562,-2.0532,-2.0578,-2.0596,-2.0596,-2.0596,-2.0596,-2.0596,-2.0596,-2.0596,-2.0576,-2.0527,-2.0558,-2.0802,-2.1438,0.0,0.0,0.0,0.0,0.0,0.0,0.0,0.0,0.0,0.0,0.0,0.0,-2.0379,-2.0467,-2.0465,-2.1908,-2.3186,0.0,0.0,-2.5187,-2.5293,-2.5293,-2.5293,-2.5293,-2.5293,-2.5293,-2.5293,-2.5293,-2.5293,-2.5293,-2.5293,-2.5293,-2.5293,-2.5293,-2.5293,-2.5293,-2.5293,-2.5293,-2.5293,-2.5293,-2.5293,-2.5293,-2.5293,-2.5293,-2.5293,-1.2982,0.0,0.0,0.0,0.0,-1.4957,-1.4122,-1.3353,-1.2793,-1.2574,-1.2587,-1.2348,-1.1553,-1.2697,-1.2878,-1.116,-1.2459,0.0,0.0,0.0,0.0,-1.3999,-1.3777,-1.3652,-1.3719,-1.4116,-1.4183,-1.3924,-1.2668,-1.1983,-1.1856,0.0,0.0,0.0,0.0,0.0,-1.486,-1.517,0.0,-1.5301,-1.5243,-1.5253,-1.5301,-1.5301,-1.5339,-1.549,-1.621,-1.601,-1.5527,-1.6406,-1.6699,-1.7002,-1.875,-1.9287,-1.9463,-2.0342,-2.0593,-2.0589,-2.0595,-2.0596,-2.0596,-2.0596,-2.0596,-2.0596,-2.0596,-2.0596,-2.0596,-2.0576,-2.0585,-2.0642,-2.0769,0.0,0.0,0.0,0.0,0.0,0.0,0.0,0.0,0.0,0.0,-2.0128,0.0,-2.0563,-2.1352,-2.1293,-2.2225,0.0,0.0,0.0,-2.4611,0.0,-2.5293,-2.5293,0.0,0.0,-2.5293,-2.5293,-2.5293,-2.5293,-2.5293,-2.5293,-2.5293,-2.5293,-2.5293,-2.5293,-2.5293,-2.5293,-2.5293,-2.5293,-2.5293,-2.5293,-2.5293,-2.5293,-2.5293,-2.5293,-1.5396,0.0,0.0,0.0,0.0,0.0,0.0,-1.4393,-1.3676,-1.3367,-1.3481,-1.3299,-1.2481,-1.368,-1.3999,-1.2622,-1.3919,-1.4664,-1.4318,-1.4573,-1.4777,-1.4812,-1.4324,-1.4125,-1.4265,-1.4391,-1.4444,-1.4456,-1.3289,-1.2518,-1.2095,-1.1474,0.0,-1.1276,0.0,-1.4746,0.0,0.0,0.0,-1.5917,-1.5891,-1.5888,-1.5925,-1.6002,-1.6309,-1.675,-1.7167,-1.7025,-1.6775,-1.7686,-1.7969,-1.8184,-1.9501,-1.9922,-2.001,-2.0469,-2.0596,-2.0596,-2.0596,-2.0596,-2.0596,-2.0596,-2.0596,-2.0596,-2.0596,-2.0596,-2.0596,-2.0596,-2.0596,-2.0742,-2.1191,-2.1641,0.0,0.0,0.0,0.0,0.0,0.0,-2.1046,0.0,0.0,0.0,0.0,0.0,0.0,0.0,0.0,0.0,0.0,0.0,-2.4286,0.0,0.0,0.0,-2.5142,0.0,-2.5293,-2.5293,-2.5293,-2.5293,-2.5293,-2.5293,-2.5293,-2.5293,-2.5293,-2.5293,-2.5293,-2.5293,-2.5293,-2.5293,-2.5293,-2.5293,-2.5293,-2.5293,-2.5293,-2.5293,0.0,-1.7647,0.0,0.0,-1.6004,-1.6004,-1.6004,-1.5441,-1.4798,-1.421,-1.4378,-1.4363,-1.393,-1.4756,-1.5066,-1.4422,-1.5556,-1.6178,-1.5875,-1.6146,-1.6094,-1.5579,-1.5084,-1.477,-1.4671,-1.4815,-1.4916,-1.4958,-1.4049,-1.3266,0.0,-1.2472,-1.2269,-1.2148,0.0,0.0,0.0,0.0,-1.7433,-1.6798,-1.6798,-1.6801,-1.6812,-1.6905,-1.7347,-1.7922,-1.8095,-1.8124,-1.8222,-1.9124,-1.9294,-1.9259,-2.0187,-2.048,-2.0486,-2.0556,-2.0576,-2.0576,-2.0596,-2.0596,-2.0596,-2.0596,-2.0596,-2.0596,-2.0596,-2.0596,-2.0596,-2.0596,-2.0596,-2.0869,-2.1738,-2.2314,0.0,0.0,0.0,0.0,0.0,0.0,0.0,0.0,0.0,0.0,-2.0312,0.0,0.0,0.0,0.0,0.0,-2.2306,0.0,0.0,0.0,0.0,-2.5067,-2.5067,0.0,-2.5293,-2.5293,-2.5293,-2.5293,-2.5293,-2.5293,-2.5293,-2.5293,-2.5293,-2.5293,-2.5293,-2.5293,-2.5293,-2.5293,-2.5293,-2.5293,-2.5293,-2.5293,-2.5293,-2.5293,0.0,0.0,0.0,0.0,0.0,-1.6712,-1.6712,-1.6651,-1.6363,-1.5694,-1.5636,-1.591,-1.663,-1.649,-1.6236,-1.5915,-1.6807,-1.7448,-1.7643,-1.7686,-1.7427,-1.677,-1.6403,-1.5791,-1.4886,-1.57,-1.6016,0.0,0.0,-1.447,0.0,-1.2989,-1.3267,-1.487,-1.5923,0.0,0.0,-1.7835,-1.7842,-1.7767,-1.7767,-1.7769,-1.7765,-1.7782,-1.7832,-1.7994,-1.8736,-1.8983,-1.9095,-1.9919,-1.9708,-1.9254,-2.0135,-2.0413,-2.0419,-2.0486,-2.0508,-2.0518,-2.0576,-2.0596,-2.0596,-2.0596,-2.0596,-2.0596,-2.0596,-2.0596,-2.0596,-2.0596,-2.0596,-2.0869,-2.1738,-2.1318,-2.1061,0.0,0.0,0.0,0.0,0.0,-2.1279,-2.0421,0.0,0.0,0.0,-2.0302,0.0,0.0,-2.0041,-2.0833,-2.2399,-2.2634,0.0,-2.4929,-2.5172,-2.5274,-2.5274,-2.5293,-2.5293,-2.5293,-2.5293,-2.5293,-2.5293,-2.5293,-2.5293,-2.5293,-2.5293,-2.5293,-2.5293,-2.5293,-2.5293,-2.5293,-2.5293,-2.5293,-2.5293,-2.5293,-2.5293,-2.5293,0.0,0.0,0.0,0.0,0.0,0.0,0.0,-1.7907,-1.8196,-1.7933,-1.7309,-1.7151,-1.7862,-1.7549,-1.7125,-1.6726,-1.7477,-1.813,-1.8474,-1.8463,-1.8376,-1.8232,-1.7514,-1.6971,-1.6651,-1.6851,-1.6951,0.0,0.0,0.0,-1.5516,-1.5512,-1.594,-1.6744,0.0,-1.8256,-1.8625,-1.9173,-1.9121,-1.8678,-1.8677,-1.8678,-1.8681,-1.8679,-1.8959,-1.9377,-1.9702,-1.9825,-1.9873,-2.0188,-2.0092,-1.9883,-2.0227,-2.0345,-2.0359,-2.0468,-2.0497,-2.0508,-2.0576,-2.0596,-2.0596,-2.0596,-2.0596,-2.0596,-2.0596,-2.0596,-2.0596,-2.0596,-2.0596,-2.0713,-2.1064,-2.1226,-2.1254,-2.1051,0.0,0.0,0.0,0.0,0.0,-2.0348,0.0,-2.0302,0.0,0.0,0.0,0.0,0.0,-2.0824,-2.2305,-2.2483,0.0,-2.483,0.0,-2.512,-2.512,-2.5244,-2.5293,-2.5293,-2.5293,-2.5293,-2.5293,-2.5293,-2.5293,-2.5293,-2.5293,-2.5293,-2.5293,-2.5293,-2.5293,-2.5293,-2.5293,-2.5293,-2.5293,-2.5293,-2.5293,-2.5293,-2.24,0.0,-2.1877,0.0,-1.8235,-1.8235,-1.8235,-1.8842,-1.9305,-1.9305,-1.8773,-1.8565,-1.8971,-1.8649,-1.8139,-1.7509,-1.8276,-1.8921,-1.9198,-1.9222,-1.9176,-1.9101,-1.8423,0.0,-1.7805,-1.7842,-1.7906,-1.7942,-1.7861,0.0,-1.6924,-1.7383,-1.7779,-1.8145,-1.8799,-1.9254,-1.9554,-2.0167,-2.01,-1.9578,-1.9575,-1.9572,-1.9553,-1.9535,-1.9854,-2.0302,-2.0302,-2.0302,-2.0302,-2.0302,-2.0302,-2.0302,-2.0302,-2.0302,-2.0321,-2.0408,-2.0463,-2.0493,-2.0547,-2.0576,-2.0596,-2.0596,-2.0596,-2.0596,-2.0596,-2.0596,-2.0596,-2.0596,-2.0596,-2.0594,-2.0574,-2.103,-2.1201,-2.055,0.0,0.0,0.0,-2.0369,0.0,-2.0312,-2.0302,-2.0302,-2.0302,-2.0302,0.0,0.0,0.0,-2.1148,-2.23,-2.2471,0.0,0.0,0.0,0.0,-2.5088,-2.5234,-2.5293,-2.5293,-2.5293,-2.5293,-2.5293,-2.5293,-2.5293,-2.5293,-2.5293,-2.5293,-2.5293,-2.5293,-2.5293,-2.5293,-2.5293,-2.5293,-2.5293,-2.5293,-2.5293,-2.5293,-2.2888,-2.3714,-2.3134,-1.9842,-1.9289,-1.9289,-1.9289,-1.9289,-1.9305,-1.9305,-1.9867,-2.0267,-2.0285,-1.9978,-1.9373,-1.8366,-1.9322,-1.9981,-1.9993,-2.0109,-1.9864,0.0,0.0,-1.8675,-1.7819,-1.8583,-1.892,-1.8783,0.0,0.0,-1.8557,-1.7898,-1.8131,-1.9085,-1.9095,-1.9617,-2.0483,-2.0493,-2.0493,-2.0481,-2.0481,-2.044,-2.0379,-2.0308,-2.0292,-2.0302,-2.0302,-2.0302,-2.0302,-2.0302,-2.0302,-2.0302,-2.0302,-2.0302,-2.0302,-2.0302,-2.0355,-2.0422,-2.0476,-2.0547,-2.0596,-2.0596,-2.0596,-2.0596,-2.0596,-2.0596,-2.0596,-2.0596,-2.0596,-2.0583,-2.0508,-2.0512,-2.0465,-2.0331,0.0,0.0,0.0,-2.0302,0.0,-2.0302,-2.0302,-2.0302,-2.0302,-2.0302,0.0,0.0,0.0,-2.1779,-2.2459,-2.2558,0.0,-2.4953,-2.5194,0.0,-2.5303,-2.5293,-2.5293,-2.5293,-2.5293,-2.5293,-2.5293,-2.5293,-2.5293,-2.5293,-2.5293,-2.5293,-2.5293,-2.5293,-2.5293,-2.5293,-2.5293,-2.5293,-2.5293,-2.5293,-2.5293,-2.5293,-2.2589,-2.3459,-2.3153,-1.9867,-2.1143,-2.2639,-2.2639,-2.073,-1.9453,-1.992,-2.0172,-2.0352,-2.0487,-2.0081,-1.9668,0.0,-1.9403,-1.9569,0.0,-1.9993,-2.0025,-1.9915,-1.9915,-1.9789,-1.9506,-1.9763,-1.9873,-1.9813,0.0,0.0,0.0,-1.9545,-1.9615,-1.9925,-1.9922,-2.0079,-2.0369,-2.0403,-2.0429,-2.0428,-2.0431,-2.0388,-2.0324,-2.0315,-2.0302,-2.0302,-2.0302,-2.0302,-2.0302,-2.0302,-2.0302,-2.0302,-2.0302,-2.0302,-2.0312,-2.035,-2.0386,-2.0421,-2.054,-2.0576,-2.0596,-2.0596,-2.0596,-2.0596,-2.0596,-2.0596,-2.0596,-2.0596,-2.0564,-2.0526,-2.0498,-2.0427,-2.035,-2.0312,-2.0302,0.0,-2.0302,0.0,-2.0302,-2.0302,-2.0302,-2.0523,-2.1062,-2.1119,0.0,0.0,0.0,-2.2477,-2.2681,0.0,0.0,0.0,-2.5264,0.0,-2.5099,-2.5234,-2.5191,-2.4958,-2.5191,-2.5293,-2.5293,-2.5293,-2.5293,-2.5293,-2.5293,-2.5293,-2.5293,-2.5293,-2.5293,-2.5293,-2.5293,-2.5293,-2.5293,-2.5293,-2.5293,-2.5293,-2.3113,-2.3646,-2.3547,-2.1492,-2.2832,-2.4199,-2.4199,-2.2684,-2.1701,-2.2123,-2.2178,-2.2257,-2.2488,-2.107,0.0,-1.9926,-1.9641,-1.9587,-1.9892,-1.9992,-2.0105,-2.0263,-2.021,-2.0176,-2.0155,-2.0127,0.0,-2.0107,-2.0107,-2.0135,-2.0197,-2.0197,-2.0233,-2.0302,-2.0295,-2.0308,-2.0343,-2.0383,-2.0389,-2.0359,-2.0357,-2.034,-2.0302,-2.0302,-2.0302,-2.0302,-2.0302,-2.0302,-2.0302,-2.0302,-2.0302,-2.0302,-2.0302,-2.0302,-2.0312,-2.035,-2.0398,-2.046,-2.0541,-2.0585,-2.0596,-2.0596,-2.0596,-2.0596,-2.0596,-2.0596,-2.0594,-2.0572,-2.0524,-2.0475,-2.0427,-2.036,-2.0302,-2.0302,-2.0302,-2.0302,-2.0302,0.0,-2.0302,0.0,0.0,0.0,0.0,-2.1235,-2.1312,0.0,0.0,0.0,0.0,0.0,-2.4466,-2.5264,-2.5293,-2.5244,-2.5111,-2.5163,-2.5075,-2.4873,-2.5046,-2.5138,-2.5183,-2.5183,-2.5234,-2.5293,-2.5293,-2.5293,-2.5293,-2.5293,-2.5293,-2.5293,-2.5293,-2.5293,-2.5293,-2.5293,-2.5293,-2.5293,-2.4348,-2.4284,-2.4284,0.0,-2.4284,-2.4284,-2.4284,-2.4864,-2.5293,-2.5293,-2.5293,-2.5401,-2.5647,-2.2851,-2.076,-2.0297,0.0,0.0,-2.0098,-2.0089,-2.0113,-2.0161,-2.0049,-1.9948,-1.9869,-1.9828,-1.98,-1.98,-1.98,-1.9859,-1.9983,-1.9993,-2.0097,-2.0277,-2.0285,-2.0331,-2.0389,-2.0389,-2.036,-2.0302,-2.0302,-2.0302,-2.0302,-2.0302,-2.0331,-2.0379,-2.0321,-2.034,-2.0379,-2.0379,-2.0379,-2.0389,-2.0465,-2.0437,-2.0389,-2.0317,-2.0396,-2.0502,-2.0513,-2.0554,-2.0596,-2.0596,-2.0596,-2.0596,-2.0596,-2.0595,-2.0576,-2.051,-2.0485,-2.0446,-2.0321,-2.0302,-2.0302,-2.0302,-2.0302,-2.0302,-2.0302,-2.0302,-2.0302,0.0,0.0,0.0,-2.1514,-2.0908,-2.1119,0.0,0.0,0.0,0.0,0.0,-2.4524,-2.5274,-2.5293,-2.5274,-2.5197,-2.508,-2.5013,-2.5001,-2.4846,-2.486,-2.5001,-2.5001,-2.5111,-2.5293,-2.5293,-2.5293,-2.5293,-2.5293,-2.5293,-2.5293,-2.5293,-2.5293,-2.5293,-2.5293,-2.5293,-2.5293,0.0,0.0,-2.5049,-2.5049,-2.5049,-2.5049,-2.5049,-2.5191,-2.5293,-2.5293,-2.5293,-2.5322,-2.5393,-2.4848,-2.3757,-2.1936,-2.0675,-2.0012,-2.009,-1.9999,-1.9915,-1.9819,-1.9839,-1.9741,-1.9524,-1.97,-1.98,-1.98,-1.98,-1.9823,-1.9847,-1.9954,-2.0022,-2.0088,-2.0223,-2.0312,-2.0321,-2.0321,-2.0312,-2.0302,-2.0302,-2.0302,-2.0302,-2.0302,-2.0687,-2.1139,-2.0523,-2.0696,-2.1225,-2.1225,-2.1225,-2.1341,-2.2059,-2.1865,-2.1241,-2.0574,-2.0444,-2.0513,-2.0561,-2.0591,-2.0596,-2.0596,-2.0596,-2.0596,-2.0596,-2.0555,-2.0515,-2.0498,-2.0417,-2.034,-2.0312,-2.0302,-2.0302,-2.0302,-2.0302,-2.0302,-2.0302,-2.0302,-2.0302,0.0,-2.0302,-2.0879,-2.235,-2.2322,-2.237,0.0,0.0,-2.4245,-2.3177,-2.4322,-2.5101,-2.5284,-2.5293,-2.4936,-2.4169,-2.4876,-2.5152,-2.4998,-2.4717,-2.4723,-2.5001,-2.5001,-2.5111,-2.5293,-2.5293,-2.5293,-2.5293,-2.5293,-2.5293,-2.5293,-2.5293,-2.5293,-2.5293,-2.5293,-2.5293,-2.5293,-2.5223,-2.5293,-2.5293,-2.5293,-2.5293,-2.5293,-2.5293,-2.5293,-2.5293,-2.5293,-2.5293,-2.5293,-2.5293,-2.5486,-2.5119,-2.3905,-2.2305,-2.1352,-2.1285,-2.1046,-2.0649,-2.0086,-1.9917,-1.9595,-1.9052,-1.9506,-1.9985,-2.0483,-2.0633,-2.0751,-2.08,-2.0561,-2.0484,-2.0536,-2.037,-2.0302,-2.0321,-2.0696,-2.085,-2.0879,-2.1283,-2.1437,-2.1437,-2.1437,-2.1706,-2.2043,-2.16,-2.1716,-2.2091,-2.2091,-2.2091,-2.2187,-2.2733,-2.262,-2.221,-2.176,-2.1124,-2.0548,-2.0593,-2.0596,-2.0596,-2.0596,-2.0596,-2.0596,-2.0596,-2.057,-2.0541,-2.0504,-2.0417,-2.034,-2.0312,-2.0302,-2.0302,-2.0302,-2.0302,-2.0302,-2.0302,-2.0302,-2.0302,-2.0302,-2.0302,-2.0802,-2.2081,-2.187,-2.2139,-2.3311,-2.387,0.0,-2.3947,-2.4812,-2.5293,-2.5293,-2.5293,-2.5042,-2.449,-2.4941,-2.5075,-2.4904,-2.4727,-2.4766,-2.5001,-2.5001,-2.5111,-2.5293,-2.5293,-2.5293,-2.5293,-2.5293,-2.5293,-2.5293,-2.5293,-2.5293,-2.5293,-2.5293,-2.5293,-2.5293,-2.5213,-2.5293,-2.5293,-2.5293,-2.5293,-2.5293,-2.5293,-2.5293,-2.5293,-2.5293,-2.5293,-2.5293,-2.5293,-2.5399,-2.5495,-2.5553,-2.4183,-2.3141,-2.2704,-2.2303,-2.1624,-2.0622,-2.0243,-1.9663,-1.8889,-1.9517,-2.0343,-2.1309,-2.1589,-2.1809,-2.1968,-2.1405,-2.1239,-2.134,-2.0852,-2.0643,-2.0725,-2.1408,-2.1696,-2.1764,-2.2495,-2.2793,-2.2793,-2.2793,-2.2879,-2.2976,-2.2851,-2.2879,-2.2995,-2.2995,-2.2995,-2.3032,-2.3224,-2.3234,-2.3188,-2.3258,-2.2185,-2.0957,-2.083,-2.0703,-2.0596,-2.0596,-2.0596,-2.0596,-2.0596,-2.0586,-2.0568,-2.0503,-2.0439,-2.0373,-2.0312,-2.0302,-2.0302,-2.0302,-2.0408,-2.0446,-2.0321,0.0,-2.0446,-2.0312,-2.0302,-2.0619,-2.1418,-2.0879,-2.1379,-2.3542,-2.3148,-2.336,-2.4659,-2.4841,-2.4918,-2.4918,-2.5168,-2.5293,-2.5293,-2.4985,-2.4822,-2.4837,-2.4818,-2.4873,-2.5001,-2.5001,-2.5111,-2.5293,-2.5293,-2.5293,-2.5293,-2.5293,-2.5293,-2.5293,-2.5293,-2.5293,-2.5293,-2.5293,-2.5293,-2.5293,-2.5171,-2.5293,-2.5293,-2.5293,-2.5293,-2.5293,-2.5293,-2.5293,-2.5293,-2.5293,-2.5293,-2.5293,-2.5293,-2.5312,-2.5332,-2.5341,-2.5002,-2.4164,-2.2717,-2.2187,-2.1652,-2.1038,-2.0791,-2.0482,-2.0122,-2.0456,-2.0856,-2.1309,-2.1357,-2.1525,-2.1828,-2.1848,-2.1948,-2.2127,-2.215,-2.2249,-2.2418,-2.2543,-2.2601,-2.261,-2.2745,-2.2793,-2.2793,-2.2793,-2.3263,-2.3802,-2.3053,-2.3273,-2.3898,-2.3898,-2.3898,-2.4033,-2.4774,-2.4549,-2.4029,-2.4087,-2.3488,-2.2637,-2.1904,-2.1162,-2.0596,-2.0596,-2.0596,-2.0596,-2.0596,-2.0557,-2.0508,-2.0502,-2.0402,-2.0305,-2.0298,-2.0302,-2.0302,-2.0302,-2.0869,-2.1081,-2.0408,0.0,-2.1062,-2.0379,-2.0302,-2.0619,-2.1418,-2.1389,-2.1485,-2.187,-2.2456,-2.2591,-2.212,-2.2793,-2.3187,-2.3187,-2.4562,-2.5293,-2.5293,-2.4439,-2.4319,-2.4974,-2.4846,-2.4873,-2.5001,-2.5001,-2.5111,-2.5293,-2.5293,-2.5293,-2.5293,-2.5293,-2.5293,-2.5293,-2.5293,-2.5293,-2.5293,-2.5293,-2.5293,-2.5293,-2.4869,-2.5126,-2.5293,-2.5293,-2.5293,-2.5293,-2.5293,-2.5293,-2.5293,-2.5293,-2.5293,-2.5293,-2.5293,-2.4952,-2.4795,-2.5009,-2.4968,-2.4558,-2.368,-2.3254,-2.2608,-2.1694,-2.137,-2.1123,-2.0832,-2.109,-2.1599,-2.2312,-2.25,-2.2768,-2.3098,-2.28,-2.2697,-2.2781,-2.259,-2.2551,-2.268,-2.3256,-2.3504,-2.3542,-2.3966,-2.4149,-2.4149,-2.4149,-2.4399,-2.4687,-2.4293,-2.4409,-2.4745,-2.4745,-2.4745,-2.4822,-2.5264,-2.5146,-2.4871,-2.4967,-2.4153,-2.3096,-2.2666,-2.2275,-2.1894,-2.1416,-2.1299,-2.1182,-2.0713,-2.0576,-2.0547,-2.0547,-2.0448,-2.0346,-2.0352,-2.0687,-2.0956,-2.0956,-2.1648,-2.1908,-2.1062,-2.1273,-2.1206,-2.0408,-2.0302,-2.0456,-2.0821,-2.085,-2.1033,-2.1475,-2.187,-2.2129,-2.2197,-2.2581,-2.2793,-2.2793,-2.3553,-2.4389,-2.5284,-2.4408,-2.4367,-2.5163,-2.5105,-2.5105,-2.5163,-2.5163,-2.5214,-2.5293,-2.5293,-2.5293,-2.5293,-2.5293,-2.5293,-2.5293,-2.5293,-2.5293,-2.5293,-2.5293,-2.5293,-2.5293,-2.476,-2.5058,-2.5283,-2.5223,-2.5264,-2.5283,-2.5223,-2.5264,-2.5293,-2.5293,-2.515,-2.5039,-2.5039,-2.4533,-2.4348,-2.4716,-2.47,-2.4582,-2.4407,-2.409,-2.3465,-2.2393,-2.1978,-2.1679,-2.1466,-2.1653,-2.2232,-2.3189,-2.3468,-2.3795,-2.4181,-2.3674,-2.3479,-2.3556,-2.3201,-2.3077,-2.3202,-2.4034,-2.4389,-2.4428,-2.5053,-2.5293,-2.5293,-2.5293,-2.5293,-2.5293,-2.5293,-2.5293,-2.5293,-2.5293,-2.5293,-2.5303,-2.5361,-2.539,-2.5425,-2.5518,-2.4701,-2.3711,-2.3467,-2.3291,-2.2969,-2.2109,-2.1904,-2.167,-2.0801,-2.0596,-2.0596,-2.0596,-2.0515,-2.0416,-2.0424,-2.1041,-2.1475,-2.1265,0.0,-2.2455,-2.137,-2.1379,-2.1206,-2.0408,-2.0302,-2.0302,-2.0302,-2.0302,-2.0562,-2.1168,-2.1225,-2.1514,-2.2177,-2.2216,-2.2302,-2.2485,-2.2687,-2.3505,-2.5014,-2.4409,-2.4495,-2.5293,-2.5293,-2.5293,-2.5293,-2.5293,-2.5293,-2.5293,-2.5293,-2.5293,-2.5293,-2.5293,-2.5293,-2.5293,-2.5293,-2.5293,-2.5293,-2.5293,-2.5293,-2.5293,-2.516,-2.5283,-2.5214,-2.4965,-2.5131,-2.5223,-2.4974,-2.5141,-2.5293,-2.5293,-2.4702,-2.4284,-2.4284,-2.4219,-2.4303,-2.4594,-2.4384,-2.4192,-2.4044,-2.3835,-2.353,-2.3141,-2.2556,-2.2254,-2.2226,-2.2254,-2.2564,-2.3189,-2.3212,-2.3575,-2.4199,-2.4154,-2.4335,-2.4681,-2.4653,-2.4794,-2.5101,-2.5178,-2.5207,-2.5216,-2.5274,-2.5293,-2.5293,-2.5293,-2.5293,-2.5293,-2.5293,-2.5293,-2.5293,-2.5293,-2.5293,-2.5293,-2.5303,-2.5341,-2.5399,-2.5408,-2.5425,-2.5264,-2.4512,-2.3721,-2.291,-2.21,-2.1904,-2.167,-2.0801,-2.0596,-2.0596,-2.0596,-2.0537,-2.049,-2.0491,-2.1153,-2.1395,-2.053,0.0,0.0,-2.0619,-2.1033,-2.1206,-2.0408,-2.0302,-2.0302,-2.0302,-2.0302,-2.0321,-2.0379,-2.0389,-2.0427,-2.0485,-2.0485,-2.0831,-2.1571,-2.2379,-2.3254,-2.4177,-2.4129,-2.4495,-2.5293,-2.5293,-2.5293,-2.5293,-2.5293,-2.5293,-2.5293,-2.5293,-2.5293,-2.5293,-2.5293,-2.5293,-2.5293,-2.5293,-2.5293,-2.5293,-2.5293,-2.5293,-2.5293,-2.4865,-2.4923,-2.4923,-2.4756,-2.4869,-2.4958,-2.486,-2.4913,-2.4896,-2.4642,-2.4374,-2.4199,-2.4199,-2.4199,-2.4247,-2.433,-2.4256,-2.4181,-2.4125,-2.4037,-2.3774,-2.3212,-2.2974,-2.2866,-2.2866,-2.2866,-2.3072,-2.3513,-2.3513,-2.3744,-2.4199,-2.4199,-2.4348,-2.4623,-2.4736,-2.4923,-2.512,-2.5253,-2.5293,-2.5293,-2.5293,-2.5293,-2.5293,-2.5293,-2.5293,-2.5293,-2.5293,-2.5293,-2.5293,-2.5293,-2.5293,-2.5293,-2.5293,-2.5312,-2.5341,-2.539,-2.5467,-2.5481,-2.5223,-2.4932,-2.4512,-2.3662,-2.3076,-2.248,-2.1602,-2.0986,-2.0596,-2.0596,-2.0547,-2.0496,-2.0501,-2.1157,-2.1572,-2.1166,0.0,-2.2473,-2.1216,-2.1312,-2.1206,-2.0408,-2.0302,-2.0302,-2.0302,-2.0302,-2.0302,-2.0302,-2.0302,-2.0302,-2.0302,-2.0302,-2.0446,-2.0754,-2.1081,-2.1908,-2.3283,-2.3292,-2.3716,-2.4553,-2.5063,-2.5293,-2.5293,-2.5293,-2.5293,-2.5293,-2.5293,-2.5293,-2.5293,-2.5293,-2.5293,-2.5293,-2.5293,-2.5293,-2.5293,-2.5293,-2.5293,-2.5293,-2.4617,-2.471,-2.4731,-2.4521,-2.4654,-2.476,-2.4623,-2.4607,-2.4502,-2.4247,-2.4199,-2.4199,-2.4199,-2.4199,-2.4199,-2.4199,-2.4199,-2.4151,-2.4045,-2.4045,-2.3846,-2.3369,-2.3174,-2.3093,-2.3189,-2.3189,-2.336,-2.3692,-2.3692,-2.3867,-2.4199,-2.4199,-2.4303,-2.4512,-2.4716,-2.4864,-2.5013,-2.5214,-2.5293,-2.5293,-2.5293,-2.5293,-2.5293,-2.5293,-2.5293,-2.5293,-2.5293,-2.5293,-2.5293,-2.5293,-2.5293,-2.5293,-2.5293,-2.5293,-2.5303,-2.538,-2.5429,-2.5485,-2.5551,-2.5624,-2.5459,-2.4609,-2.3994,-2.3281,-2.2158,-2.1435,-2.0928,-2.0664,-2.0557,-2.0527,-2.0527,-2.1209,-2.1649,-2.1308,-2.1975,-2.2194,-2.1264,-2.1119,-2.0927,-2.0369,-2.0302,-2.0302,-2.0302,-2.0302,-2.0302,-2.0302,-2.0302,-2.0302,-2.0302,-2.0302,-2.0302,-2.0302,-2.0302,-2.085,-2.1995,-2.2264,-2.2822,-2.3706,-2.4534,-2.4918,-2.4928,-2.5178,-2.5293,-2.5293,-2.5293,-2.5293,-2.5293,-2.5293,-2.5293,-2.5293,-2.5293,-2.5293,-2.5293,-2.5293,-2.5293,-2.5293,-2.4587,-2.471,-2.467,-2.4275,-2.4519,-2.4654,-2.4256,-2.4199,-2.4199,-2.4199,-2.4199,-2.4199,-2.4199,-2.4199,-2.4199,-2.4199,-2.4199,-2.4065,-2.3723,-2.3692,-2.3692,-2.3692,-2.3069,-2.2873,-2.3189,-2.3221,-2.3369,-2.3692,-2.3692,-2.3867,-2.4199,-2.4199,-2.4303,-2.4512,-2.4716,-2.4873,-2.5022,-2.5223,-2.5293,-2.5293,-2.5293,-2.5293,-2.5293,-2.5293,-2.5293,-2.5293,-2.5293,-2.5293,-2.5293,-2.5293,-2.5293,-2.5293,-2.5293,-2.5293,-2.5303,-2.538,-2.5399,-2.5409,-2.5486,-2.5552,-2.541,-2.46,-2.4394,-2.3945,-2.2275,-2.1894,-2.1641,-2.0781,-2.0596,-2.0596,-2.0596,-2.1309,-2.1582,-2.0654,-2.1176,-2.1373,-2.0427,-2.0302,-2.0302,-2.0302,-2.0302,-2.0302,-2.0302,-2.0302,-2.0302,-2.0302,-2.0302,-2.0302,-2.0302,-2.0302,-2.0302,-2.0302,-2.0302,-2.0302,-2.0302,-2.11,-2.1927,-2.2793,-2.3667,-2.4091,-2.4129,-2.4928,-2.5284,-2.5293,-2.5293,-2.5293,-2.5293,-2.5293,-2.5293,-2.5293,-2.5293,-2.5293,-2.5293,-2.5293,-2.5293,-2.5293,-2.4504,-2.4453,-2.4348,-2.4228,-2.4303,-2.433,-2.4209,-2.4199,-2.4199,-2.4199,-2.4199,-2.4199,-2.4199,-2.4199,-2.4199,-2.4199,-2.4199,-2.4151,-2.4074,-2.3816,-2.3795,-2.4045,-2.3867,-2.3795,-2.3896,-2.3896,-2.3946,-2.4045,-2.4045,-2.4094,-2.4199,-2.4199,-2.4375,-2.4716,-2.4775,-2.4949,-2.5214,-2.5274,-2.5293,-2.5293,-2.5293,-2.5293,-2.5293,-2.5293,-2.5293,-2.5293,-2.5293,-2.5293,-2.5293,-2.5293,-2.5293,-2.5293,-2.5293,-2.5293,-2.5293,-2.5312,-2.5322,-2.5332,-2.5409,-2.5441,-2.5281,-2.4516,-2.3935,-2.3271,-2.2148,-2.1426,-2.0908,-2.0654,-2.0596,-2.0596,-2.0596,-2.081,-2.0879,-2.0547,-2.0705,-2.0733,-2.0349,-2.0302,-2.0302,-2.0302,-2.0302,-2.0302,-2.0302,-2.0302,-2.0302,-2.0302,-2.0302,-2.0302,-2.0302,-2.0302,-2.0302,-2.0302,-2.0302,-2.0302,-2.0302,-2.11,-2.1629,-2.1898,-2.2764,-2.3514,-2.411,-2.4351,-2.4774,-2.5293,-2.5293,-2.5293,-2.5293,-2.5293,-2.5293,-2.5293,-2.5293,-2.5293,-2.5293,-2.5293,-2.5293,-2.5293,-2.3955,-2.3892,-2.3825,-2.3917,-2.3917,-2.3876,-2.371,-2.3825,-2.3946,-2.3996,-2.4122,-2.4199,-2.4199,-2.4199,-2.4199,-2.4199,-2.4199,-2.4199,-2.4199,-2.4016,-2.3996,-2.4199,-2.4199,-2.4199,-2.4199,-2.4199,-2.4199,-2.4199,-2.4199,-2.4199,-2.4199,-2.4199,-2.433,-2.4568,-2.4731,-2.4906,-2.5115,-2.5243,-2.5293,-2.5293,-2.5293,-2.5293,-2.5293,-2.5293,-2.5293,-2.5293,-2.5293,-2.5293,-2.5293,-2.5293,-2.5293,-2.5293,-2.5293,-2.5293,-2.5293,-2.5293,-2.5293,-2.5303,-2.5341,-2.538,-2.5127,-2.4015,-2.3687,-2.332,-2.2129,-2.1475,-2.1016,-2.0674,-2.0596,-2.0596,-2.0596,-2.0596,-2.0586,-2.0547,-2.0518,-2.0473,-2.0394,-2.0357,-2.034,-2.034,-2.034,-2.0331,-2.0302,-2.0302,-2.0302,-2.0302,-2.0302,-2.0302,-2.0302,-2.0302,-2.0302,-2.0302,-2.0302,-2.0302,-2.0302,-2.0783,-2.1033,-2.1043,-2.1879,-2.2735,-2.36,-2.3937,-2.4534,-2.5293,-2.5293,-2.5293,-2.5293,-2.5293,-2.5293,-2.5293,-2.5293,-2.5293,-2.5293,-2.5293,-2.5293,-2.5293,-2.3189,-2.3189,-2.3268,-2.3446,-2.3468,-2.3355,-2.2974,-2.323,-2.3522,-2.364,-2.3946,-2.4151,-2.4151,-2.417,-2.4199,-2.4199,-2.4199,-2.4199,-2.4199,-2.4199,-2.4199,-2.4199,-2.4199,-2.4199,-2.4199,-2.4199,-2.4199,-2.4199,-2.4199,-2.4199,-2.4199,-2.4199,-2.4218,-2.4238,-2.4632,-2.4804,-2.4837,-2.516,-2.5293,-2.5293,-2.5293,-2.5293,-2.5293,-2.5293,-2.5293,-2.5293,-2.5293,-2.5293,-2.5293,-2.5293,-2.5293,-2.5293,-2.5293,-2.5293,-2.5293,-2.5293,-2.5293,-2.5293,-2.5293,-2.5332,-2.5005,-2.3409,-2.3602,-2.3738,-2.206,-2.1738,-2.1562,-2.0762,-2.0596,-2.0596,-2.0596,-2.0596,-2.0596,-2.0596,-2.0547,-2.0508,-2.0498,-2.0451,-2.0405,-2.04,-2.0392,-2.0373,-2.0308,-2.0292,-2.0302,-2.0302,-2.0302,-2.0302,-2.0302,-2.0302,-2.0302,-2.0302,-2.0302,-2.0302,-2.0302,-2.0302,-2.0302,-2.0312,-2.1043,-2.1889,-2.2822,-2.3619,-2.4466,-2.5293,-2.5293,-2.5293,-2.5293,-2.5293,-2.5293,-2.5293,-2.5293,-2.5293,-2.5293,-2.5293,-2.5293,-2.5293,-2.3189,-2.3189,-2.3212,-2.3268,-2.3268,-2.3245,-2.315,-2.3221,-2.3268,-2.3291,-2.3597,-2.3816,-2.3816,-2.4045,-2.4199,-2.4199,-2.4199,-2.4199,-2.4199,-2.4199,-2.4199,-2.4199,-2.4199,-2.4199,-2.4199,-2.4199,-2.4199,-2.4199,-2.4199,-2.4199,-2.4199,-2.4199,-2.4284,-2.4453,-2.4685,-2.4869,-2.4962,-2.5203,-2.5293,-2.5293,-2.5293,-2.5293,-2.5293,-2.5293,-2.5293,-2.5293,-2.5293,-2.5293,-2.5293,-2.5293,-2.5293,-2.5293,-2.5293,-2.5293,-2.5293,-2.5293,-2.5293,-2.5293,-2.5293,-2.5303,-2.5072,-2.4091,-2.3522,-2.2784,-2.1147,-2.083,-2.083,-2.0644,-2.0596,-2.0596,-2.0596,-2.0596,-2.0596,-2.0596,-2.0586,-2.0557,-2.0508,-2.0493,-2.0458,-2.041,-2.04,-2.0366,-2.0309,-2.0304,-2.0302,-2.0302,-2.0302,-2.0302,-2.0302,-2.0302,-2.0302,-2.0302,-2.0302,-2.0302,-2.0302,-2.0302,-2.0302,-2.0302,-2.0485,-2.135,-2.2802,-2.2995,-2.3889,-2.5293,-2.5293,-2.5293,-2.5293,-2.5293,-2.5293,-2.5293,-2.5293,-2.5293,-2.5293,-2.5293,-2.5293,-2.5293,-2.2773,-2.2773,-2.2773,-2.2773,-2.2773,-2.2773,-2.2773,-2.289,-2.2972,-2.2972,-2.3392,-2.3692,-2.3692,-2.3996,-2.4199,-2.4199,-2.4199,-2.4199,-2.4199,-2.4199,-2.4199,-2.4199,-2.4199,-2.4199,-2.4199,-2.4199,-2.4199,-2.4199,-2.4199,-2.4199,-2.4199,-2.4199,-2.4303,-2.4512,-2.4716,-2.4864,-2.5013,-2.5214,-2.5293,-2.5293,-2.5293,-2.5293,-2.5293,-2.5293,-2.5293,-2.5293,-2.5293,-2.5293,-2.5293,-2.5293,-2.5293,-2.5293,-2.5293,-2.5293,-2.5293,-2.5293,-2.5293,-2.5293,-2.5293,-2.5293,-2.5111,-2.4302,-2.3783,-2.3043,-2.1406,-2.0784,-2.0547,-2.0547,-2.0576,-2.0596,-2.0596,-2.0596,-2.0596,-2.0596,-2.0596,-2.0586,-2.0547,-2.0547,-2.0526,-2.05,-2.0496,-2.0464,-2.0357,-2.0321,-2.0302,-2.0302,-2.0302,-2.0302,-2.0302,-2.0302,-2.0302,-2.0302,-2.0302,-2.0302,-2.0302,-2.0302,-2.0494,-2.0869,-2.0869,-2.1552,-2.2802,-2.3235,-2.411,-2.5293,-2.5293,-2.5293,-2.5293,-2.5293,-2.5293,-2.5293,-2.5293,-2.5293,-2.5293,-2.5293,-2.5293,-2.5293,-2.231,-2.231,-2.231,-2.231,-2.231,-2.231,-2.231,-2.2482,-2.2634,-2.2634,-2.3206,-2.361,-2.361,-2.3967,-2.4199,-2.4199,-2.4199,-2.4199,-2.4199,-2.4199,-2.4199,-2.4199,-2.4199,-2.4199,-2.4199,-2.4199,-2.4199,-2.4199,-2.4199,-2.4209,-2.4256,-2.4256,-2.4366,-2.4552,-2.4751,-2.4891,-2.5013,-2.5214,-2.5293,-2.5293,-2.5293,-2.5293,-2.5293,-2.5293,-2.5293,-2.5293,-2.5293,-2.5293,-2.5293,-2.5293,-2.5293,-2.5293,-2.5293,-2.5293,-2.5293,-2.5293,-2.5293,-2.5293,-2.5293,-2.5293,-2.5149,-2.4466,-2.4197,-2.3744,-2.234,-2.1344,-2.0668,-2.0527,-2.0537,-2.0586,-2.0596,-2.0596,-2.0596,-2.0596,-2.0596,-2.0596,-2.0596,-2.0596,-2.0596,-2.0596,-2.0586,-2.0529,-2.0411,-2.0337,-2.0302,-2.0302,-2.0302,-2.0302,-2.0302,-2.0302,-2.0302,-2.0302,-2.0302,-2.0302,-2.0302,-2.0446,-2.0841,-2.1504,-2.1802,-2.2322,-2.3052,-2.3773,-2.4534,-2.5293,-2.5293,-2.5293,-2.5293,-2.5293,-2.5293,-2.5293,-2.5293,-2.5293,-2.5293,-2.5293,-2.5293,-2.5293,-2.231,-2.231,-2.231,-2.231,-2.231,-2.231,-2.231,-2.233,-2.2341,-2.2341,-2.2891,-2.3268,-2.3268,-2.3825,-2.4199,-2.4199,-2.4199,-2.4199,-2.4199,-2.4199,-2.4199,-2.4199,-2.4199,-2.4199,-2.4199,-2.4199,-2.4199,-2.4199,-2.4199,-2.4284,-2.447,-2.447,-2.4568,-2.4775,-2.4907,-2.4977,-2.5013,-2.5214,-2.5293,-2.5293,-2.5293,-2.5293,-2.5293,-2.5293,-2.5293,-2.5293,-2.5293,-2.5293,-2.5293,-2.5293,-2.5293,-2.5293,-2.5293,-2.5293,-2.5293,-2.5293,-2.5293,-2.5293,-2.5293,-2.5293,-2.5264,-2.5159,-2.4611,-2.4043,-2.3809,-2.2607,-2.1335,-2.064,-2.0508,-2.0527,-2.0586,-2.0596,-2.0596,-2.0596,-2.0596,-2.0596,-2.0596,-2.0596,-2.0596,-2.0596,-2.0547,-2.0481,-2.0408,-2.0337,-2.0302,-2.0302,-2.0302,-2.0302,-2.0302,-2.0302,-2.0302,-2.0302,-2.0302,-2.0302,-2.0302,-2.0994,-2.1389,-2.1523,-2.3024,-2.3812,-2.3927,-2.4052,-2.4534,-2.5293,-2.5293,-2.5293,-2.5293,-2.5293,-2.5293,-2.5293,-2.5293,-2.5293,-2.5293,-2.5293,-2.5293,-2.5293,-2.231,-2.231,-2.231,-2.231,-2.231,-2.231,-2.231,-2.231,-2.231,-2.231,-2.2669,-2.2914,-2.2914,-2.3522,-2.3996,-2.417,-2.4199,-2.4199,-2.4199,-2.4199,-2.4199,-2.4199,-2.4199,-2.4199,-2.4199,-2.4199,-2.4199,-2.4199,-2.4199,-2.4247,-2.433,-2.4453,-2.4617,-2.4804,-2.4946,-2.5067,-2.5163,-2.5264,-2.5293,-2.5293,-2.5293,-2.5293,-2.5293,-2.5293,-2.5293,-2.5293,-2.5293,-2.5293,-2.5293,-2.5293,-2.5293,-2.5293,-2.5293,-2.5293,-2.5293,-2.5293,-2.5293,-2.5293,-2.5293,-2.5293,-2.5293,-2.5293,-2.5034,-2.4649,-2.4206,-2.358,-2.2867,-2.2061,-2.1571,-2.1289,-2.1318,-2.0928,-2.0596,-2.0596,-2.0596,-2.0596,-2.0596,-2.0596,-2.0596,-2.0596,-2.0566,-2.0512,-2.0408,-2.037,-2.034,-2.0302,-2.0302,-2.0302,-2.0302,-2.0302,-2.0302,-2.0302,-2.0302,-2.0523,-2.0975,-2.1321,-2.1985,-2.2956,-2.3735,-2.41,-2.412,-2.4562,-2.4966,-2.5293,-2.5293,-2.5293,-2.5293,-2.5293,-2.5293,-2.5293,-2.5293,-2.5293,-2.5293,-2.5293,-2.5293,-2.5293]}]]